<?xml version='1.0' encoding='UTF-8'?>
<gpx version="1.1" creator="https://www.komoot.de" xmlns="http://www.topografix.com/GPX/1/1" xmlns:xsi="http://www.w3.org/2001/XMLSchema-instance" xsi:schemaLocation="http://www.topografix.com/GPX/1/1 http://www.topografix.com/GPX/1/1/gpx.xsd">
  <metadata>
    <name>72_800EichholzBrombach</name>
    <author>
      <link href="https://www.komoot.de">
        <text>komoot</text>
        <type>text/html</type>
      </link>
    </author>
  </metadata>
  <trk>
    <name>72_800EichholzBrombach</name>
    <trkseg>
      <trkpt lat="47.541363" lon="7.870830">
        <ele>339.190207</ele>
        <time>2021-11-20T20:08:47.387Z</time>
      </trkpt>
      <trkpt lat="47.541410" lon="7.870791">
        <ele>339.190207</ele>
        <time>2021-11-20T20:08:48.200Z</time>
      </trkpt>
      <trkpt lat="47.541576" lon="7.870664">
        <ele>339.190207</ele>
        <time>2021-11-20T20:08:50.640Z</time>
      </trkpt>
      <trkpt lat="47.541550" lon="7.870601">
        <ele>339.190207</ele>
        <time>2021-11-20T20:08:51.449Z</time>
      </trkpt>
      <trkpt lat="47.541521" lon="7.870517">
        <ele>339.190207</ele>
        <time>2021-11-20T20:08:52.507Z</time>
      </trkpt>
      <trkpt lat="47.541606" lon="7.870424">
        <ele>339.190207</ele>
        <time>2021-11-20T20:08:54.135Z</time>
      </trkpt>
      <trkpt lat="47.541910" lon="7.870106">
        <ele>339.190207</ele>
        <time>2021-11-20T20:08:59.797Z</time>
      </trkpt>
      <trkpt lat="47.542014" lon="7.870126">
        <ele>339.153301</ele>
        <time>2021-11-20T20:09:01.268Z</time>
      </trkpt>
      <trkpt lat="47.542118" lon="7.870135">
        <ele>339.051087</ele>
        <time>2021-11-20T20:09:03.010Z</time>
      </trkpt>
      <trkpt lat="47.542181" lon="7.870131">
        <ele>338.989218</ele>
        <time>2021-11-20T20:09:03.881Z</time>
      </trkpt>
      <trkpt lat="47.542317" lon="7.870012">
        <ele>338.834242</ele>
        <time>2021-11-20T20:09:05.988Z</time>
      </trkpt>
      <trkpt lat="47.542348" lon="7.869983">
        <ele>338.798270</ele>
        <time>2021-11-20T20:09:06.427Z</time>
      </trkpt>
      <trkpt lat="47.542329" lon="7.869820">
        <ele>338.688713</ele>
        <time>2021-11-20T20:09:08.212Z</time>
      </trkpt>
      <trkpt lat="47.542372" lon="7.869746">
        <ele>338.624044</ele>
        <time>2021-11-20T20:09:09.021Z</time>
      </trkpt>
      <trkpt lat="47.542657" lon="7.869354">
        <ele>338.242469</ele>
        <time>2021-11-20T20:09:13.817Z</time>
      </trkpt>
      <trkpt lat="47.542696" lon="7.869257">
        <ele>338.167692</ele>
        <time>2021-11-20T20:09:14.752Z</time>
      </trkpt>
      <trkpt lat="47.542722" lon="7.869201">
        <ele>338.122676</ele>
        <time>2021-11-20T20:09:15.344Z</time>
      </trkpt>
      <trkpt lat="47.543049" lon="7.868759">
        <ele>337.688354</ele>
        <time>2021-11-20T20:09:20.257Z</time>
      </trkpt>
      <trkpt lat="47.543105" lon="7.868711">
        <ele>337.624875</ele>
        <time>2021-11-20T20:09:20.995Z</time>
      </trkpt>
      <trkpt lat="47.543201" lon="7.868657">
        <ele>337.524123</ele>
        <time>2021-11-20T20:09:22.073Z</time>
      </trkpt>
      <trkpt lat="47.543657" lon="7.868359">
        <ele>336.908505</ele>
        <time>2021-11-20T20:09:27.869Z</time>
      </trkpt>
      <trkpt lat="47.543801" lon="7.868269">
        <ele>336.705420</ele>
        <time>2021-11-20T20:09:30.348Z</time>
      </trkpt>
      <trkpt lat="47.544214" lon="7.867988">
        <ele>336.114873</ele>
        <time>2021-11-20T20:09:37.965Z</time>
      </trkpt>
      <trkpt lat="47.544246" lon="7.867967">
        <ele>336.069395</ele>
        <time>2021-11-20T20:09:38.561Z</time>
      </trkpt>
      <trkpt lat="47.544410" lon="7.867825">
        <ele>335.822564</ele>
        <time>2021-11-20T20:09:41.814Z</time>
      </trkpt>
      <trkpt lat="47.544469" lon="7.867776">
        <ele>335.734673</ele>
        <time>2021-11-20T20:09:42.836Z</time>
      </trkpt>
      <trkpt lat="47.544568" lon="7.867693">
        <ele>335.586861</ele>
        <time>2021-11-20T20:09:44.763Z</time>
      </trkpt>
      <trkpt lat="47.545003" lon="7.867278">
        <ele>335.171353</ele>
        <time>2021-11-20T20:09:53.612Z</time>
      </trkpt>
      <trkpt lat="47.545160" lon="7.866985">
        <ele>335.328202</ele>
        <time>2021-11-20T20:09:58.262Z</time>
      </trkpt>
      <trkpt lat="47.545240" lon="7.866887">
        <ele>335.392681</ele>
        <time>2021-11-20T20:10:00.536Z</time>
      </trkpt>
      <trkpt lat="47.546096" lon="7.866147">
        <ele>336.008282</ele>
        <time>2021-11-20T20:10:25.606Z</time>
      </trkpt>
      <trkpt lat="47.546327" lon="7.865959">
        <ele>336.171991</ele>
        <time>2021-11-20T20:10:32.026Z</time>
      </trkpt>
      <trkpt lat="47.546510" lon="7.865766">
        <ele>336.226933</ele>
        <time>2021-11-20T20:10:38.412Z</time>
      </trkpt>
      <trkpt lat="47.546819" lon="7.865489">
        <ele>336.272264</ele>
        <time>2021-11-20T20:10:46.565Z</time>
      </trkpt>
      <trkpt lat="47.546889" lon="7.865225">
        <ele>336.296293</ele>
        <time>2021-11-20T20:10:50.352Z</time>
      </trkpt>
      <trkpt lat="47.546894" lon="7.864837">
        <ele>336.329170</ele>
        <time>2021-11-20T20:10:55.529Z</time>
      </trkpt>
      <trkpt lat="47.546885" lon="7.864500">
        <ele>336.357743</ele>
        <time>2021-11-20T20:11:01.168Z</time>
      </trkpt>
      <trkpt lat="47.546974" lon="7.864423">
        <ele>336.370678</ele>
        <time>2021-11-20T20:11:02.756Z</time>
      </trkpt>
      <trkpt lat="47.547320" lon="7.863864">
        <ele>336.385244</ele>
        <time>2021-11-20T20:11:12.681Z</time>
      </trkpt>
      <trkpt lat="47.547568" lon="7.863151">
        <ele>335.533017</ele>
        <time>2021-11-20T20:11:21.694Z</time>
      </trkpt>
      <trkpt lat="47.547930" lon="7.861711">
        <ele>333.900365</ele>
        <time>2021-11-20T20:11:38.068Z</time>
      </trkpt>
      <trkpt lat="47.548049" lon="7.860929">
        <ele>333.170445</ele>
        <time>2021-11-20T20:11:46.768Z</time>
      </trkpt>
      <trkpt lat="47.548334" lon="7.859801">
        <ele>332.173446</ele>
        <time>2021-11-20T20:12:00.249Z</time>
      </trkpt>
      <trkpt lat="47.548611" lon="7.858381">
        <ele>331.327770</ele>
        <time>2021-11-20T20:12:18.206Z</time>
      </trkpt>
      <trkpt lat="47.548686" lon="7.857973">
        <ele>331.275452</ele>
        <time>2021-11-20T20:12:23.595Z</time>
      </trkpt>
      <trkpt lat="47.548701" lon="7.857893">
        <ele>331.265179</ele>
        <time>2021-11-20T20:12:24.715Z</time>
      </trkpt>
      <trkpt lat="47.548743" lon="7.857692">
        <ele>331.239146</ele>
        <time>2021-11-20T20:12:27.489Z</time>
      </trkpt>
      <trkpt lat="47.548887" lon="7.857308">
        <ele>331.184796</ele>
        <time>2021-11-20T20:12:33.523Z</time>
      </trkpt>
      <trkpt lat="47.549362" lon="7.855774">
        <ele>330.868187</ele>
        <time>2021-11-20T20:12:57.568Z</time>
      </trkpt>
      <trkpt lat="47.549566" lon="7.855225">
        <ele>330.696193</ele>
        <time>2021-11-20T20:13:06.185Z</time>
      </trkpt>
      <trkpt lat="47.549883" lon="7.854434">
        <ele>330.443725</ele>
        <time>2021-11-20T20:13:17.639Z</time>
      </trkpt>
      <trkpt lat="47.550221" lon="7.853833">
        <ele>329.702680</ele>
        <time>2021-11-20T20:13:24.032Z</time>
      </trkpt>
      <trkpt lat="47.551516" lon="7.851950">
        <ele>325.008996</ele>
        <time>2021-11-20T20:13:42.867Z</time>
      </trkpt>
      <trkpt lat="47.551660" lon="7.851725">
        <ele>324.320232</ele>
        <time>2021-11-20T20:13:44.877Z</time>
      </trkpt>
      <trkpt lat="47.551830" lon="7.851603">
        <ele>323.698562</ele>
        <time>2021-11-20T20:13:46.839Z</time>
      </trkpt>
      <trkpt lat="47.551830" lon="7.851603">
        <ele>323.698562</ele>
        <time>2021-11-20T20:13:46.845Z</time>
      </trkpt>
      <trkpt lat="47.551925" lon="7.851845">
        <ele>323.076698</ele>
        <time>2021-11-20T20:13:48.692Z</time>
      </trkpt>
      <trkpt lat="47.552042" lon="7.852007">
        <ele>322.549665</ele>
        <time>2021-11-20T20:13:50.378Z</time>
      </trkpt>
      <trkpt lat="47.552097" lon="7.852063">
        <ele>322.330032</ele>
        <time>2021-11-20T20:13:50.992Z</time>
      </trkpt>
      <trkpt lat="47.552272" lon="7.852167">
        <ele>321.709478</ele>
        <time>2021-11-20T20:13:52.914Z</time>
      </trkpt>
      <trkpt lat="47.552449" lon="7.852231">
        <ele>321.109849</ele>
        <time>2021-11-20T20:13:54.702Z</time>
      </trkpt>
      <trkpt lat="47.552678" lon="7.851709">
        <ele>319.818283</ele>
        <time>2021-11-20T20:13:58.976Z</time>
      </trkpt>
      <trkpt lat="47.552876" lon="7.851300">
        <ele>319.097685</ele>
        <time>2021-11-20T20:14:02.522Z</time>
      </trkpt>
      <trkpt lat="47.553283" lon="7.850634">
        <ele>317.811428</ele>
        <time>2021-11-20T20:14:09.193Z</time>
      </trkpt>
      <trkpt lat="47.553344" lon="7.850525">
        <ele>317.608712</ele>
        <time>2021-11-20T20:14:10.270Z</time>
      </trkpt>
      <trkpt lat="47.553380" lon="7.850453">
        <ele>317.480430</ele>
        <time>2021-11-20T20:14:10.958Z</time>
      </trkpt>
      <trkpt lat="47.553537" lon="7.849904">
        <ele>316.626823</ele>
        <time>2021-11-20T20:14:15.443Z</time>
      </trkpt>
      <trkpt lat="47.553605" lon="7.849629">
        <ele>316.207535</ele>
        <time>2021-11-20T20:14:17.734Z</time>
      </trkpt>
      <trkpt lat="47.553725" lon="7.849291">
        <ele>315.834787</ele>
        <time>2021-11-20T20:14:20.656Z</time>
      </trkpt>
      <trkpt lat="47.554055" lon="7.848586">
        <ele>315.027411</ele>
        <time>2021-11-20T20:14:27.553Z</time>
      </trkpt>
      <trkpt lat="47.554209" lon="7.848300">
        <ele>314.683113</ele>
        <time>2021-11-20T20:14:30.516Z</time>
      </trkpt>
      <trkpt lat="47.554269" lon="7.848188">
        <ele>314.548550</ele>
        <time>2021-11-20T20:14:31.596Z</time>
      </trkpt>
      <trkpt lat="47.554351" lon="7.848049">
        <ele>314.374821</ele>
        <time>2021-11-20T20:14:33.055Z</time>
      </trkpt>
      <trkpt lat="47.554465" lon="7.847858">
        <ele>314.134881</ele>
        <time>2021-11-20T20:14:35.137Z</time>
      </trkpt>
      <trkpt lat="47.554618" lon="7.847626">
        <ele>313.829638</ele>
        <time>2021-11-20T20:14:37.636Z</time>
      </trkpt>
      <trkpt lat="47.554759" lon="7.847388">
        <ele>313.543776</ele>
        <time>2021-11-20T20:14:40.053Z</time>
      </trkpt>
      <trkpt lat="47.554892" lon="7.847148">
        <ele>313.279068</ele>
        <time>2021-11-20T20:14:42.484Z</time>
      </trkpt>
      <trkpt lat="47.554995" lon="7.846915">
        <ele>313.041645</ele>
        <time>2021-11-20T20:14:44.641Z</time>
      </trkpt>
      <trkpt lat="47.555068" lon="7.846672">
        <ele>312.814917</ele>
        <time>2021-11-20T20:14:46.701Z</time>
      </trkpt>
      <trkpt lat="47.555199" lon="7.846687">
        <ele>312.648966</ele>
        <time>2021-11-20T20:14:48.183Z</time>
      </trkpt>
      <trkpt lat="47.555727" lon="7.846715">
        <ele>311.981656</ele>
        <time>2021-11-20T20:14:54.640Z</time>
      </trkpt>
      <trkpt lat="47.555855" lon="7.846815">
        <ele>311.798892</ele>
        <time>2021-11-20T20:14:56.303Z</time>
      </trkpt>
      <trkpt lat="47.555892" lon="7.846856">
        <ele>311.740538</ele>
        <time>2021-11-20T20:14:56.860Z</time>
      </trkpt>
      <trkpt lat="47.555966" lon="7.846932">
        <ele>311.626818</ele>
        <time>2021-11-20T20:14:58.010Z</time>
      </trkpt>
      <trkpt lat="47.555990" lon="7.846965">
        <ele>311.585464</ele>
        <time>2021-11-20T20:14:58.442Z</time>
      </trkpt>
      <trkpt lat="47.556060" lon="7.846859">
        <ele>311.459051</ele>
        <time>2021-11-20T20:14:59.636Z</time>
      </trkpt>
      <trkpt lat="47.556636" lon="7.845928">
        <ele>310.791856</ele>
        <time>2021-11-20T20:15:10.022Z</time>
      </trkpt>
      <trkpt lat="47.557134" lon="7.845095">
        <ele>310.229138</ele>
        <time>2021-11-20T20:15:19.841Z</time>
      </trkpt>
      <trkpt lat="47.557282" lon="7.844832">
        <ele>310.055983</ele>
        <time>2021-11-20T20:15:22.980Z</time>
      </trkpt>
      <trkpt lat="47.557560" lon="7.844433">
        <ele>309.999205</ele>
        <time>2021-11-20T20:15:28.155Z</time>
      </trkpt>
      <trkpt lat="47.557715" lon="7.843940">
        <ele>309.957221</ele>
        <time>2021-11-20T20:15:33.160Z</time>
      </trkpt>
      <trkpt lat="47.557759" lon="7.843839">
        <ele>309.947941</ele>
        <time>2021-11-20T20:15:34.340Z</time>
      </trkpt>
      <trkpt lat="47.557846" lon="7.843756">
        <ele>309.936105</ele>
        <time>2021-11-20T20:15:35.682Z</time>
      </trkpt>
      <trkpt lat="47.557967" lon="7.843683">
        <ele>309.921161</ele>
        <time>2021-11-20T20:15:37.726Z</time>
      </trkpt>
      <trkpt lat="47.558136" lon="7.843582">
        <ele>309.900316</ele>
        <time>2021-11-20T20:15:40.413Z</time>
      </trkpt>
      <trkpt lat="47.558405" lon="7.843371">
        <ele>309.865501</ele>
        <time>2021-11-20T20:15:45.278Z</time>
      </trkpt>
      <trkpt lat="47.558471" lon="7.843365">
        <ele>309.857937</ele>
        <time>2021-11-20T20:15:46.129Z</time>
      </trkpt>
      <trkpt lat="47.558471" lon="7.843365">
        <ele>309.857937</ele>
        <time>2021-11-20T20:15:46.130Z</time>
      </trkpt>
      <trkpt lat="47.558555" lon="7.843392">
        <ele>309.848105</ele>
        <time>2021-11-20T20:15:47.430Z</time>
      </trkpt>
      <trkpt lat="47.558884" lon="7.843836">
        <ele>309.865620</ele>
        <time>2021-11-20T20:15:54.708Z</time>
      </trkpt>
      <trkpt lat="47.559060" lon="7.844197">
        <ele>309.892690</ele>
        <time>2021-11-20T20:15:59.535Z</time>
      </trkpt>
      <trkpt lat="47.559109" lon="7.844229">
        <ele>309.897514</ele>
        <time>2021-11-20T20:16:00.581Z</time>
      </trkpt>
      <trkpt lat="47.559158" lon="7.844233">
        <ele>309.901934</ele>
        <time>2021-11-20T20:16:01.529Z</time>
      </trkpt>
      <trkpt lat="47.559583" lon="7.843813">
        <ele>309.947947</ele>
        <time>2021-11-20T20:16:09.493Z</time>
      </trkpt>
      <trkpt lat="47.559847" lon="7.843604">
        <ele>309.974907</ele>
        <time>2021-11-20T20:16:13.907Z</time>
      </trkpt>
      <trkpt lat="47.560139" lon="7.843433">
        <ele>309.936219</ele>
        <time>2021-11-20T20:16:18.138Z</time>
      </trkpt>
      <trkpt lat="47.560209" lon="7.843393">
        <ele>309.863553</ele>
        <time>2021-11-20T20:16:19.089Z</time>
      </trkpt>
      <trkpt lat="47.560338" lon="7.843341">
        <ele>309.734069</ele>
        <time>2021-11-20T20:16:20.755Z</time>
      </trkpt>
      <trkpt lat="47.560430" lon="7.843341">
        <ele>309.644961</ele>
        <time>2021-11-20T20:16:22.298Z</time>
      </trkpt>
      <trkpt lat="47.560515" lon="7.843379">
        <ele>309.558968</ele>
        <time>2021-11-20T20:16:23.332Z</time>
      </trkpt>
      <trkpt lat="47.560812" lon="7.843560">
        <ele>309.247929</ele>
        <time>2021-11-20T20:16:27.391Z</time>
      </trkpt>
      <trkpt lat="47.560934" lon="7.843550">
        <ele>309.129584</ele>
        <time>2021-11-20T20:16:28.913Z</time>
      </trkpt>
      <trkpt lat="47.561038" lon="7.843502">
        <ele>309.024081</ele>
        <time>2021-11-20T20:16:30.202Z</time>
      </trkpt>
      <trkpt lat="47.561434" lon="7.843181">
        <ele>308.586898</ele>
        <time>2021-11-20T20:16:35.643Z</time>
      </trkpt>
      <trkpt lat="47.561498" lon="7.843130">
        <ele>308.516517</ele>
        <time>2021-11-20T20:16:36.407Z</time>
      </trkpt>
      <trkpt lat="47.562179" lon="7.842500">
        <ele>307.596070</ele>
        <time>2021-11-20T20:16:45.665Z</time>
      </trkpt>
      <trkpt lat="47.562300" lon="7.842326">
        <ele>307.387586</ele>
        <time>2021-11-20T20:16:47.617Z</time>
      </trkpt>
      <trkpt lat="47.562385" lon="7.842183">
        <ele>307.228576</ele>
        <time>2021-11-20T20:16:49.028Z</time>
      </trkpt>
      <trkpt lat="47.562440" lon="7.842083">
        <ele>307.120930</ele>
        <time>2021-11-20T20:16:50.144Z</time>
      </trkpt>
      <trkpt lat="47.562574" lon="7.841873">
        <ele>306.879769</ele>
        <time>2021-11-20T20:16:52.542Z</time>
      </trkpt>
      <trkpt lat="47.562904" lon="7.841632">
        <ele>306.424854</ele>
        <time>2021-11-20T20:16:57.031Z</time>
      </trkpt>
      <trkpt lat="47.562965" lon="7.841597">
        <ele>306.343969</ele>
        <time>2021-11-20T20:16:57.819Z</time>
      </trkpt>
      <trkpt lat="47.563016" lon="7.841568">
        <ele>306.276423</ele>
        <time>2021-11-20T20:16:58.520Z</time>
      </trkpt>
      <trkpt lat="47.563300" lon="7.841391">
        <ele>305.915574</ele>
        <time>2021-11-20T20:17:02.257Z</time>
      </trkpt>
      <trkpt lat="47.563483" lon="7.841269">
        <ele>305.704195</ele>
        <time>2021-11-20T20:17:04.815Z</time>
      </trkpt>
      <trkpt lat="47.563659" lon="7.841150">
        <ele>305.500413</ele>
        <time>2021-11-20T20:17:07.143Z</time>
      </trkpt>
      <trkpt lat="47.563805" lon="7.841046">
        <ele>305.329773</ele>
        <time>2021-11-20T20:17:09.205Z</time>
      </trkpt>
      <trkpt lat="47.563941" lon="7.840948">
        <ele>305.170474</ele>
        <time>2021-11-20T20:17:11.057Z</time>
      </trkpt>
      <trkpt lat="47.563986" lon="7.840916">
        <ele>305.117896</ele>
        <time>2021-11-20T20:17:11.678Z</time>
      </trkpt>
      <trkpt lat="47.564094" lon="7.840838">
        <ele>304.991339</ele>
        <time>2021-11-20T20:17:13.147Z</time>
      </trkpt>
      <trkpt lat="47.564463" lon="7.840580">
        <ele>304.561548</ele>
        <time>2021-11-20T20:17:18.134Z</time>
      </trkpt>
      <trkpt lat="47.564534" lon="7.840532">
        <ele>304.479342</ele>
        <time>2021-11-20T20:17:19.041Z</time>
      </trkpt>
      <trkpt lat="47.564558" lon="7.840516">
        <ele>304.451620</ele>
        <time>2021-11-20T20:17:19.364Z</time>
      </trkpt>
      <trkpt lat="47.564936" lon="7.840261">
        <ele>304.009545</ele>
        <time>2021-11-20T20:17:24.266Z</time>
      </trkpt>
      <trkpt lat="47.565057" lon="7.840213">
        <ele>303.872664</ele>
        <time>2021-11-20T20:17:25.679Z</time>
      </trkpt>
      <trkpt lat="47.565168" lon="7.840179">
        <ele>303.748802</ele>
        <time>2021-11-20T20:17:27.020Z</time>
      </trkpt>
      <trkpt lat="47.565233" lon="7.840176">
        <ele>303.677737</ele>
        <time>2021-11-20T20:17:27.756Z</time>
      </trkpt>
      <trkpt lat="47.565343" lon="7.840185">
        <ele>303.557349</ele>
        <time>2021-11-20T20:17:29.017Z</time>
      </trkpt>
      <trkpt lat="47.565906" lon="7.840272">
        <ele>302.938779</ele>
        <time>2021-11-20T20:17:35.877Z</time>
      </trkpt>
      <trkpt lat="47.566081" lon="7.840309">
        <ele>302.745606</ele>
        <time>2021-11-20T20:17:38.019Z</time>
      </trkpt>
      <trkpt lat="47.566142" lon="7.840322">
        <ele>302.678261</ele>
        <time>2021-11-20T20:17:38.702Z</time>
      </trkpt>
      <trkpt lat="47.566221" lon="7.840340">
        <ele>302.590917</ele>
        <time>2021-11-20T20:17:39.900Z</time>
      </trkpt>
      <trkpt lat="47.566350" lon="7.840350">
        <ele>302.449756</ele>
        <time>2021-11-20T20:17:41.589Z</time>
      </trkpt>
      <trkpt lat="47.566450" lon="7.840326">
        <ele>302.339055</ele>
        <time>2021-11-20T20:17:42.812Z</time>
      </trkpt>
      <trkpt lat="47.566515" lon="7.840312">
        <ele>302.267278</ele>
        <time>2021-11-20T20:17:43.558Z</time>
      </trkpt>
      <trkpt lat="47.566592" lon="7.840279">
        <ele>302.179687</ele>
        <time>2021-11-20T20:17:44.748Z</time>
      </trkpt>
      <trkpt lat="47.566826" lon="7.840179">
        <ele>302.027176</ele>
        <time>2021-11-20T20:17:47.682Z</time>
      </trkpt>
      <trkpt lat="47.567111" lon="7.839998">
        <ele>301.837829</ele>
        <time>2021-11-20T20:17:51.708Z</time>
      </trkpt>
      <trkpt lat="47.567406" lon="7.839778">
        <ele>301.636161</ele>
        <time>2021-11-20T20:17:55.960Z</time>
      </trkpt>
      <trkpt lat="47.567481" lon="7.839664">
        <ele>301.570556</ele>
        <time>2021-11-20T20:17:57.199Z</time>
      </trkpt>
      <trkpt lat="47.567510" lon="7.839548">
        <ele>301.519585</ele>
        <time>2021-11-20T20:17:58.477Z</time>
      </trkpt>
      <trkpt lat="47.567530" lon="7.839459">
        <ele>301.480934</ele>
        <time>2021-11-20T20:17:59.332Z</time>
      </trkpt>
      <trkpt lat="47.567564" lon="7.839283">
        <ele>301.405503</ele>
        <time>2021-11-20T20:18:00.986Z</time>
      </trkpt>
      <trkpt lat="47.567626" lon="7.839064">
        <ele>301.307646</ele>
        <time>2021-11-20T20:18:03.132Z</time>
      </trkpt>
      <trkpt lat="47.567634" lon="7.839037">
        <ele>301.295496</ele>
        <time>2021-11-20T20:18:03.372Z</time>
      </trkpt>
      <trkpt lat="47.567823" lon="7.838648">
        <ele>301.097985</ele>
        <time>2021-11-20T20:18:07.945Z</time>
      </trkpt>
      <trkpt lat="47.567846" lon="7.838609">
        <ele>301.076643</ele>
        <time>2021-11-20T20:18:08.401Z</time>
      </trkpt>
      <trkpt lat="47.567936" lon="7.838380">
        <ele>300.952512</ele>
        <time>2021-11-20T20:18:10.980Z</time>
      </trkpt>
      <trkpt lat="47.567961" lon="7.838248">
        <ele>300.888007</ele>
        <time>2021-11-20T20:18:12.156Z</time>
      </trkpt>
      <trkpt lat="47.567944" lon="7.838073">
        <ele>300.804822</ele>
        <time>2021-11-20T20:18:13.727Z</time>
      </trkpt>
      <trkpt lat="47.567822" lon="7.837479">
        <ele>300.512689</ele>
        <time>2021-11-20T20:18:18.965Z</time>
      </trkpt>
      <trkpt lat="47.567670" lon="7.836721">
        <ele>300.140638</ele>
        <time>2021-11-20T20:18:25.583Z</time>
      </trkpt>
      <trkpt lat="47.567647" lon="7.836576">
        <ele>300.070556</ele>
        <time>2021-11-20T20:18:26.844Z</time>
      </trkpt>
      <trkpt lat="47.567583" lon="7.836155">
        <ele>299.867513</ele>
        <time>2021-11-20T20:18:30.541Z</time>
      </trkpt>
      <trkpt lat="47.567562" lon="7.835760">
        <ele>299.708039</ele>
        <time>2021-11-20T20:18:33.994Z</time>
      </trkpt>
      <trkpt lat="47.567566" lon="7.835567">
        <ele>299.635009</ele>
        <time>2021-11-20T20:18:35.657Z</time>
      </trkpt>
      <trkpt lat="47.567674" lon="7.835182">
        <ele>299.477312</ele>
        <time>2021-11-20T20:18:39.305Z</time>
      </trkpt>
      <trkpt lat="47.567558" lon="7.835042">
        <ele>299.393456</ele>
        <time>2021-11-20T20:18:41.292Z</time>
      </trkpt>
      <trkpt lat="47.567179" lon="7.834275">
        <ele>299.033889</ele>
        <time>2021-11-20T20:18:49.637Z</time>
      </trkpt>
      <trkpt lat="47.566744" lon="7.833235">
        <ele>298.532482</ele>
        <time>2021-11-20T20:19:00.982Z</time>
      </trkpt>
      <trkpt lat="47.566366" lon="7.832333">
        <ele>298.066045</ele>
        <time>2021-11-20T20:19:10.436Z</time>
      </trkpt>
      <trkpt lat="47.566477" lon="7.832241">
        <ele>297.983246</ele>
        <time>2021-11-20T20:19:12.053Z</time>
      </trkpt>
      <trkpt lat="47.566755" lon="7.832115">
        <ele>297.793981</ele>
        <time>2021-11-20T20:19:15.684Z</time>
      </trkpt>
      <trkpt lat="47.566920" lon="7.832056">
        <ele>297.683476</ele>
        <time>2021-11-20T20:19:17.797Z</time>
      </trkpt>
      <trkpt lat="47.567257" lon="7.831926">
        <ele>297.281338</ele>
        <time>2021-11-20T20:19:21.997Z</time>
      </trkpt>
      <trkpt lat="47.568550" lon="7.831407">
        <ele>295.570854</ele>
        <time>2021-11-20T20:19:37.502Z</time>
      </trkpt>
      <trkpt lat="47.568694" lon="7.831293">
        <ele>295.362397</ele>
        <time>2021-11-20T20:19:39.415Z</time>
      </trkpt>
      <trkpt lat="47.568760" lon="7.831139">
        <ele>295.261552</ele>
        <time>2021-11-20T20:19:40.863Z</time>
      </trkpt>
      <trkpt lat="47.568775" lon="7.830924">
        <ele>295.151692</ele>
        <time>2021-11-20T20:19:42.625Z</time>
      </trkpt>
      <trkpt lat="47.568745" lon="7.830356">
        <ele>294.862115</ele>
        <time>2021-11-20T20:19:47.353Z</time>
      </trkpt>
      <trkpt lat="47.568703" lon="7.829453">
        <ele>294.402063</ele>
        <time>2021-11-20T20:19:55.118Z</time>
      </trkpt>
      <trkpt lat="47.568703" lon="7.829421">
        <ele>294.385799</ele>
        <time>2021-11-20T20:19:55.417Z</time>
      </trkpt>
      <trkpt lat="47.568659" lon="7.828544">
        <ele>293.980349</ele>
        <time>2021-11-20T20:20:03.440Z</time>
      </trkpt>
      <trkpt lat="47.568555" lon="7.826544">
        <ele>293.827722</ele>
        <time>2021-11-20T20:20:23.104Z</time>
      </trkpt>
      <trkpt lat="47.568503" lon="7.825849">
        <ele>293.760042</ele>
        <time>2021-11-20T20:20:30.062Z</time>
      </trkpt>
      <trkpt lat="47.568448" lon="7.824552">
        <ele>293.522303</ele>
        <time>2021-11-20T20:20:42.768Z</time>
      </trkpt>
      <trkpt lat="47.568380" lon="7.822935">
        <ele>293.291446</ele>
        <time>2021-11-20T20:20:57.120Z</time>
      </trkpt>
      <trkpt lat="47.568400" lon="7.820924">
        <ele>293.262001</ele>
        <time>2021-11-20T20:21:16.980Z</time>
      </trkpt>
      <trkpt lat="47.568443" lon="7.820342">
        <ele>293.375912</ele>
        <time>2021-11-20T20:21:49.582Z</time>
      </trkpt>
      <trkpt lat="47.568417" lon="7.819772">
        <ele>293.586043</ele>
        <time>2021-11-20T20:22:21.377Z</time>
      </trkpt>
      <trkpt lat="47.568311" lon="7.819210">
        <ele>293.800679</ele>
        <time>2021-11-20T20:22:53.867Z</time>
      </trkpt>
      <trkpt lat="47.568272" lon="7.818798">
        <ele>293.953702</ele>
        <time>2021-11-20T20:23:17.005Z</time>
      </trkpt>
      <trkpt lat="47.568146" lon="7.818228">
        <ele>294.174321</ele>
        <time>2021-11-20T20:23:50.326Z</time>
      </trkpt>
      <trkpt lat="47.568049" lon="7.817619">
        <ele>293.949494</ele>
        <time>2021-11-20T20:23:56.795Z</time>
      </trkpt>
      <trkpt lat="47.567988" lon="7.816752">
        <ele>293.390499</ele>
        <time>2021-11-20T20:24:03.998Z</time>
      </trkpt>
      <trkpt lat="47.568209" lon="7.815459">
        <ele>292.535148</ele>
        <time>2021-11-20T20:24:14.794Z</time>
      </trkpt>
      <trkpt lat="47.568245" lon="7.815273">
        <ele>292.114880</ele>
        <time>2021-11-20T20:24:16.122Z</time>
      </trkpt>
      <trkpt lat="47.568480" lon="7.814364">
        <ele>289.924952</ele>
        <time>2021-11-20T20:24:23.050Z</time>
      </trkpt>
      <trkpt lat="47.568572" lon="7.814114">
        <ele>289.284319</ele>
        <time>2021-11-20T20:24:25.124Z</time>
      </trkpt>
      <trkpt lat="47.568248" lon="7.813814">
        <ele>288.010525</ele>
        <time>2021-11-20T20:24:28.831Z</time>
      </trkpt>
      <trkpt lat="47.568430" lon="7.813371">
        <ele>286.843702</ele>
        <time>2021-11-20T20:24:32.135Z</time>
      </trkpt>
      <trkpt lat="47.568525" lon="7.813167">
        <ele>286.166553</ele>
        <time>2021-11-20T20:24:33.686Z</time>
      </trkpt>
      <trkpt lat="47.568896" lon="7.812282">
        <ele>282.683362</ele>
        <time>2021-11-20T20:24:40.323Z</time>
      </trkpt>
      <trkpt lat="47.569095" lon="7.811810">
        <ele>280.822697</ele>
        <time>2021-11-20T20:24:43.770Z</time>
      </trkpt>
      <trkpt lat="47.569217" lon="7.811519">
        <ele>279.677357</ele>
        <time>2021-11-20T20:24:45.925Z</time>
      </trkpt>
      <trkpt lat="47.570230" lon="7.809116">
        <ele>272.440069</ele>
        <time>2021-11-20T20:25:04.606Z</time>
      </trkpt>
      <trkpt lat="47.570259" lon="7.809051">
        <ele>272.258088</ele>
        <time>2021-11-20T20:25:05.170Z</time>
      </trkpt>
      <trkpt lat="47.570299" lon="7.808969">
        <ele>272.021785</ele>
        <time>2021-11-20T20:25:05.965Z</time>
      </trkpt>
      <trkpt lat="47.570185" lon="7.808855">
        <ele>271.545785</ele>
        <time>2021-11-20T20:25:07.487Z</time>
      </trkpt>
      <trkpt lat="47.568962" lon="7.807589">
        <ele>269.825108</ele>
        <time>2021-11-20T20:25:25.575Z</time>
      </trkpt>
      <trkpt lat="47.568803" lon="7.807323">
        <ele>269.565268</ele>
        <time>2021-11-20T20:25:28.775Z</time>
      </trkpt>
      <trkpt lat="47.567792" lon="7.804628">
        <ele>268.919349</ele>
        <time>2021-11-20T20:25:57.735Z</time>
      </trkpt>
      <trkpt lat="47.567677" lon="7.804308">
        <ele>268.958732</ele>
        <time>2021-11-20T20:26:01.341Z</time>
      </trkpt>
      <trkpt lat="47.567503" lon="7.803912">
        <ele>269.010066</ele>
        <time>2021-11-20T20:26:06.061Z</time>
      </trkpt>
      <trkpt lat="47.567287" lon="7.803523">
        <ele>269.064791</ele>
        <time>2021-11-20T20:26:11.179Z</time>
      </trkpt>
      <trkpt lat="47.566532" lon="7.802465">
        <ele>270.060489</ele>
        <time>2021-11-20T20:26:27.471Z</time>
      </trkpt>
      <trkpt lat="47.566334" lon="7.802192">
        <ele>270.815752</ele>
        <time>2021-11-20T20:26:33.258Z</time>
      </trkpt>
      <trkpt lat="47.565517" lon="7.801041">
        <ele>273.963845</ele>
        <time>2021-11-20T20:27:06.075Z</time>
      </trkpt>
      <trkpt lat="47.565485" lon="7.800897">
        <ele>274.278659</ele>
        <time>2021-11-20T20:27:09.322Z</time>
      </trkpt>
      <trkpt lat="47.565490" lon="7.800752">
        <ele>274.729573</ele>
        <time>2021-11-20T20:27:13.853Z</time>
      </trkpt>
      <trkpt lat="47.565627" lon="7.800333">
        <ele>276.175593</ele>
        <time>2021-11-20T20:27:25.989Z</time>
      </trkpt>
      <trkpt lat="47.565704" lon="7.800090">
        <ele>277.009352</ele>
        <time>2021-11-20T20:27:33.374Z</time>
      </trkpt>
      <trkpt lat="47.566114" lon="7.798822">
        <ele>281.376167</ele>
        <time>2021-11-20T20:28:06.803Z</time>
      </trkpt>
      <trkpt lat="47.566454" lon="7.797771">
        <ele>283.536198</ele>
        <time>2021-11-20T20:28:30.370Z</time>
      </trkpt>
      <trkpt lat="47.566478" lon="7.797694">
        <ele>283.646577</ele>
        <time>2021-11-20T20:28:31.685Z</time>
      </trkpt>
      <trkpt lat="47.567008" lon="7.798425">
        <ele>285.042942</ele>
        <time>2021-11-20T20:28:45.969Z</time>
      </trkpt>
      <trkpt lat="47.567200" lon="7.798690">
        <ele>285.548957</ele>
        <time>2021-11-20T20:28:50.013Z</time>
      </trkpt>
      <trkpt lat="47.567213" lon="7.798707">
        <ele>285.582394</ele>
        <time>2021-11-20T20:28:50.322Z</time>
      </trkpt>
      <trkpt lat="47.567386" lon="7.798946">
        <ele>285.968939</ele>
        <time>2021-11-20T20:28:54.384Z</time>
      </trkpt>
      <trkpt lat="47.567788" lon="7.799488">
        <ele>286.170722</ele>
        <time>2021-11-20T20:29:03.795Z</time>
      </trkpt>
      <trkpt lat="47.567987" lon="7.799745">
        <ele>286.268727</ele>
        <time>2021-11-20T20:29:08.189Z</time>
      </trkpt>
      <trkpt lat="47.568185" lon="7.800003">
        <ele>286.366616</ele>
        <time>2021-11-20T20:29:12.385Z</time>
      </trkpt>
      <trkpt lat="47.568315" lon="7.800179">
        <ele>286.431992</ele>
        <time>2021-11-20T20:29:14.811Z</time>
      </trkpt>
      <trkpt lat="47.568384" lon="7.800059">
        <ele>286.471490</ele>
        <time>2021-11-20T20:29:16.567Z</time>
      </trkpt>
      <trkpt lat="47.569185" lon="7.799810">
        <ele>286.878056</ele>
        <time>2021-11-20T20:29:29.346Z</time>
      </trkpt>
      <trkpt lat="47.569327" lon="7.799762">
        <ele>286.967916</ele>
        <time>2021-11-20T20:29:31.651Z</time>
      </trkpt>
      <trkpt lat="47.569912" lon="7.799564">
        <ele>287.338138</ele>
        <time>2021-11-20T20:29:42.729Z</time>
      </trkpt>
      <trkpt lat="47.571202" lon="7.799089">
        <ele>288.370100</ele>
        <time>2021-11-20T20:30:06.617Z</time>
      </trkpt>
      <trkpt lat="47.571921" lon="7.798830">
        <ele>289.052433</ele>
        <time>2021-11-20T20:30:21.059Z</time>
      </trkpt>
      <trkpt lat="47.571985" lon="7.798809">
        <ele>289.112880</ele>
        <time>2021-11-20T20:30:22.355Z</time>
      </trkpt>
      <trkpt lat="47.572308" lon="7.798703">
        <ele>289.408484</ele>
        <time>2021-11-20T20:30:28.182Z</time>
      </trkpt>
      <trkpt lat="47.572527" lon="7.798632">
        <ele>289.548667</ele>
        <time>2021-11-20T20:30:31.981Z</time>
      </trkpt>
      <trkpt lat="47.572628" lon="7.798599">
        <ele>289.613341</ele>
        <time>2021-11-20T20:30:33.813Z</time>
      </trkpt>
      <trkpt lat="47.573055" lon="7.798459">
        <ele>289.886809</ele>
        <time>2021-11-20T20:30:41.433Z</time>
      </trkpt>
      <trkpt lat="47.573410" lon="7.798344">
        <ele>290.114038</ele>
        <time>2021-11-20T20:30:47.801Z</time>
      </trkpt>
      <trkpt lat="47.573813" lon="7.798212">
        <ele>290.372123</ele>
        <time>2021-11-20T20:30:54.881Z</time>
      </trkpt>
      <trkpt lat="47.574296" lon="7.798050">
        <ele>290.679020</ele>
        <time>2021-11-20T20:31:03.340Z</time>
      </trkpt>
      <trkpt lat="47.574910" lon="7.797787">
        <ele>291.072109</ele>
        <time>2021-11-20T20:31:13.544Z</time>
      </trkpt>
      <trkpt lat="47.575240" lon="7.797626">
        <ele>291.285785</ele>
        <time>2021-11-20T20:31:19.320Z</time>
      </trkpt>
      <trkpt lat="47.575391" lon="7.797551">
        <ele>291.383732</ele>
        <time>2021-11-20T20:31:22.158Z</time>
      </trkpt>
      <trkpt lat="47.575499" lon="7.797497">
        <ele>291.453834</ele>
        <time>2021-11-20T20:31:24.248Z</time>
      </trkpt>
      <trkpt lat="47.575580" lon="7.797470">
        <ele>291.504897</ele>
        <time>2021-11-20T20:31:25.791Z</time>
      </trkpt>
      <trkpt lat="47.575720" lon="7.797458">
        <ele>291.591147</ele>
        <time>2021-11-20T20:31:28.329Z</time>
      </trkpt>
      <trkpt lat="47.575780" lon="7.797475">
        <ele>291.653903</ele>
        <time>2021-11-20T20:31:29.507Z</time>
      </trkpt>
      <trkpt lat="47.575796" lon="7.797494">
        <ele>291.701041</ele>
        <time>2021-11-20T20:31:29.913Z</time>
      </trkpt>
      <trkpt lat="47.575820" lon="7.797521">
        <ele>291.770317</ele>
        <time>2021-11-20T20:31:30.447Z</time>
      </trkpt>
      <trkpt lat="47.575847" lon="7.797547">
        <ele>291.844348</ele>
        <time>2021-11-20T20:31:31.019Z</time>
      </trkpt>
      <trkpt lat="47.575879" lon="7.797550">
        <ele>291.918073</ele>
        <time>2021-11-20T20:31:31.596Z</time>
      </trkpt>
      <trkpt lat="47.575981" lon="7.797492">
        <ele>292.169266</ele>
        <time>2021-11-20T20:31:33.711Z</time>
      </trkpt>
      <trkpt lat="47.576004" lon="7.797461">
        <ele>292.240743</ele>
        <time>2021-11-20T20:31:34.327Z</time>
      </trkpt>
      <trkpt lat="47.576024" lon="7.797407">
        <ele>292.336297</ele>
        <time>2021-11-20T20:31:35.120Z</time>
      </trkpt>
      <trkpt lat="47.576036" lon="7.797357">
        <ele>292.418616</ele>
        <time>2021-11-20T20:31:35.848Z</time>
      </trkpt>
      <trkpt lat="47.576158" lon="7.797249">
        <ele>292.745347</ele>
        <time>2021-11-20T20:31:38.629Z</time>
      </trkpt>
      <trkpt lat="47.576257" lon="7.797179">
        <ele>292.997548</ele>
        <time>2021-11-20T20:31:40.929Z</time>
      </trkpt>
      <trkpt lat="47.576588" lon="7.797053">
        <ele>293.783313</ele>
        <time>2021-11-20T20:31:48.124Z</time>
      </trkpt>
      <trkpt lat="47.576849" lon="7.796996">
        <ele>294.389910</ele>
        <time>2021-11-20T20:31:54.163Z</time>
      </trkpt>
      <trkpt lat="47.576931" lon="7.797009">
        <ele>294.579528</ele>
        <time>2021-11-20T20:31:56.191Z</time>
      </trkpt>
      <trkpt lat="47.576994" lon="7.797117">
        <ele>294.800992</ele>
        <time>2021-11-20T20:31:58.534Z</time>
      </trkpt>
      <trkpt lat="47.577074" lon="7.797194">
        <ele>295.020310</ele>
        <time>2021-11-20T20:32:01.017Z</time>
      </trkpt>
      <trkpt lat="47.577166" lon="7.797236">
        <ele>295.241651</ele>
        <time>2021-11-20T20:32:04.346Z</time>
      </trkpt>
      <trkpt lat="47.577262" lon="7.797239">
        <ele>295.462433</ele>
        <time>2021-11-20T20:32:07.287Z</time>
      </trkpt>
      <trkpt lat="47.577343" lon="7.797210">
        <ele>295.654032</ele>
        <time>2021-11-20T20:32:09.634Z</time>
      </trkpt>
      <trkpt lat="47.577418" lon="7.797151">
        <ele>296.036226</ele>
        <time>2021-11-20T20:32:12.080Z</time>
      </trkpt>
      <trkpt lat="47.577539" lon="7.797107">
        <ele>296.891843</ele>
        <time>2021-11-20T20:32:16.935Z</time>
      </trkpt>
      <trkpt lat="47.577612" lon="7.797087">
        <ele>297.401668</ele>
        <time>2021-11-20T20:32:19.275Z</time>
      </trkpt>
      <trkpt lat="47.577787" lon="7.797122">
        <ele>298.614388</ele>
        <time>2021-11-20T20:32:25.063Z</time>
      </trkpt>
      <trkpt lat="47.577944" lon="7.797172">
        <ele>299.717204</ele>
        <time>2021-11-20T20:32:31.917Z</time>
      </trkpt>
      <trkpt lat="47.578480" lon="7.797490">
        <ele>303.682100</ele>
        <time>2021-11-20T20:32:55.704Z</time>
      </trkpt>
      <trkpt lat="47.578554" lon="7.797534">
        <ele>304.229660</ele>
        <time>2021-11-20T20:33:00.281Z</time>
      </trkpt>
      <trkpt lat="47.578679" lon="7.797723">
        <ele>305.455869</ele>
        <time>2021-11-20T20:33:08.247Z</time>
      </trkpt>
      <trkpt lat="47.578882" lon="7.798252">
        <ele>308.344071</ele>
        <time>2021-11-20T20:33:28.901Z</time>
      </trkpt>
      <trkpt lat="47.579085" lon="7.798411">
        <ele>310.566284</ele>
        <time>2021-11-20T20:33:41.645Z</time>
      </trkpt>
      <trkpt lat="47.579284" lon="7.798330">
        <ele>312.563674</ele>
        <time>2021-11-20T20:33:52.714Z</time>
      </trkpt>
      <trkpt lat="47.579900" lon="7.797779">
        <ele>319.527152</ele>
        <time>2021-11-20T20:34:33.022Z</time>
      </trkpt>
      <trkpt lat="47.580222" lon="7.797578">
        <ele>322.908788</ele>
        <time>2021-11-20T20:34:52.073Z</time>
      </trkpt>
      <trkpt lat="47.580444" lon="7.797575">
        <ele>325.057596</ele>
        <time>2021-11-20T20:35:04.354Z</time>
      </trkpt>
      <trkpt lat="47.580966" lon="7.797737">
        <ele>328.935947</ele>
        <time>2021-11-20T20:35:30.976Z</time>
      </trkpt>
      <trkpt lat="47.581379" lon="7.797757">
        <ele>331.843920</ele>
        <time>2021-11-20T20:35:49.443Z</time>
      </trkpt>
      <trkpt lat="47.581869" lon="7.797750">
        <ele>335.292379</ele>
        <time>2021-11-20T20:36:09.380Z</time>
      </trkpt>
      <trkpt lat="47.582160" lon="7.797772">
        <ele>337.342907</ele>
        <time>2021-11-20T20:36:19.748Z</time>
      </trkpt>
      <trkpt lat="47.582752" lon="7.797833">
        <ele>340.076216</ele>
        <time>2021-11-20T20:36:39.212Z</time>
      </trkpt>
      <trkpt lat="47.583508" lon="7.797910">
        <ele>343.108697</ele>
        <time>2021-11-20T20:37:02.316Z</time>
      </trkpt>
      <trkpt lat="47.584517" lon="7.797802">
        <ele>347.053039</ele>
        <time>2021-11-20T20:37:30.436Z</time>
      </trkpt>
      <trkpt lat="47.584729" lon="7.797820">
        <ele>347.853316</ele>
        <time>2021-11-20T20:37:37.371Z</time>
      </trkpt>
      <trkpt lat="47.585233" lon="7.798047">
        <ele>349.838462</ele>
        <time>2021-11-20T20:37:53.185Z</time>
      </trkpt>
      <trkpt lat="47.585534" lon="7.798199">
        <ele>351.036842</ele>
        <time>2021-11-20T20:38:02.968Z</time>
      </trkpt>
      <trkpt lat="47.585911" lon="7.798303">
        <ele>352.466847</ele>
        <time>2021-11-20T20:38:14.679Z</time>
      </trkpt>
      <trkpt lat="47.586281" lon="7.798381">
        <ele>353.810792</ele>
        <time>2021-11-20T20:38:26.485Z</time>
      </trkpt>
      <trkpt lat="47.586543" lon="7.798436">
        <ele>354.762371</ele>
        <time>2021-11-20T20:38:33.687Z</time>
      </trkpt>
      <trkpt lat="47.587282" lon="7.798453">
        <ele>357.420218</ele>
        <time>2021-11-20T20:38:55.399Z</time>
      </trkpt>
      <trkpt lat="47.587388" lon="7.798430">
        <ele>357.805467</ele>
        <time>2021-11-20T20:38:58.785Z</time>
      </trkpt>
      <trkpt lat="47.587698" lon="7.798426">
        <ele>358.834309</ele>
        <time>2021-11-20T20:39:07.588Z</time>
      </trkpt>
      <trkpt lat="47.588177" lon="7.798477">
        <ele>360.069069</ele>
        <time>2021-11-20T20:39:19.897Z</time>
      </trkpt>
      <trkpt lat="47.588390" lon="7.798556">
        <ele>360.633603</ele>
        <time>2021-11-20T20:39:25.321Z</time>
      </trkpt>
      <trkpt lat="47.588797" lon="7.798670">
        <ele>361.698576</ele>
        <time>2021-11-20T20:39:36.008Z</time>
      </trkpt>
      <trkpt lat="47.589010" lon="7.798691">
        <ele>362.247444</ele>
        <time>2021-11-20T20:39:40.874Z</time>
      </trkpt>
      <trkpt lat="47.589153" lon="7.798651">
        <ele>362.621607</ele>
        <time>2021-11-20T20:39:44.524Z</time>
      </trkpt>
      <trkpt lat="47.589272" lon="7.798569">
        <ele>362.959004</ele>
        <time>2021-11-20T20:39:47.309Z</time>
      </trkpt>
      <trkpt lat="47.589486" lon="7.798387">
        <ele>363.413197</ele>
        <time>2021-11-20T20:39:52.999Z</time>
      </trkpt>
      <trkpt lat="47.589692" lon="7.798248">
        <ele>363.695748</ele>
        <time>2021-11-20T20:39:58.071Z</time>
      </trkpt>
      <trkpt lat="47.589924" lon="7.798072">
        <ele>364.021087</ele>
        <time>2021-11-20T20:40:04.250Z</time>
      </trkpt>
      <trkpt lat="47.590924" lon="7.797504">
        <ele>365.357964</ele>
        <time>2021-11-20T20:40:25.260Z</time>
      </trkpt>
      <trkpt lat="47.591349" lon="7.797193">
        <ele>364.690128</ele>
        <time>2021-11-20T20:40:31.971Z</time>
      </trkpt>
      <trkpt lat="47.591728" lon="7.796915">
        <ele>363.775757</ele>
        <time>2021-11-20T20:40:36.896Z</time>
      </trkpt>
      <trkpt lat="47.592114" lon="7.796545">
        <ele>362.781820</ele>
        <time>2021-11-20T20:40:41.748Z</time>
      </trkpt>
      <trkpt lat="47.592429" lon="7.796406">
        <ele>362.071120</ele>
        <time>2021-11-20T20:40:45.075Z</time>
      </trkpt>
      <trkpt lat="47.592802" lon="7.796368">
        <ele>360.842975</ele>
        <time>2021-11-20T20:40:48.665Z</time>
      </trkpt>
      <trkpt lat="47.593608" lon="7.796793">
        <ele>356.686325</ele>
        <time>2021-11-20T20:40:56.550Z</time>
      </trkpt>
      <trkpt lat="47.594060" lon="7.796856">
        <ele>354.480351</ele>
        <time>2021-11-20T20:41:00.863Z</time>
      </trkpt>
      <trkpt lat="47.594601" lon="7.796746">
        <ele>352.415581</ele>
        <time>2021-11-20T20:41:06.116Z</time>
      </trkpt>
      <trkpt lat="47.594663" lon="7.797229">
        <ele>351.722941</ele>
        <time>2021-11-20T20:41:09.433Z</time>
      </trkpt>
      <trkpt lat="47.594957" lon="7.798605">
        <ele>349.689551</ele>
        <time>2021-11-20T20:41:20.017Z</time>
      </trkpt>
      <trkpt lat="47.595383" lon="7.799322">
        <ele>349.467576</ele>
        <time>2021-11-20T20:41:31.700Z</time>
      </trkpt>
      <trkpt lat="47.595466" lon="7.799497">
        <ele>349.612746</ele>
        <time>2021-11-20T20:41:34.466Z</time>
      </trkpt>
      <trkpt lat="47.595757" lon="7.800208">
        <ele>350.177081</ele>
        <time>2021-11-20T20:41:46.074Z</time>
      </trkpt>
      <trkpt lat="47.595950" lon="7.800596">
        <ele>350.504222</ele>
        <time>2021-11-20T20:41:52.455Z</time>
      </trkpt>
      <trkpt lat="47.596083" lon="7.800764">
        <ele>350.680013</ele>
        <time>2021-11-20T20:41:55.920Z</time>
      </trkpt>
      <trkpt lat="47.596154" lon="7.800842">
        <ele>350.768921</ele>
        <time>2021-11-20T20:41:57.753Z</time>
      </trkpt>
      <trkpt lat="47.596631" lon="7.801307">
        <ele>351.736883</ele>
        <time>2021-11-20T20:42:08.574Z</time>
      </trkpt>
      <trkpt lat="47.596866" lon="7.801508">
        <ele>352.258890</ele>
        <time>2021-11-20T20:42:13.818Z</time>
      </trkpt>
      <trkpt lat="47.597625" lon="7.801971">
        <ele>353.838084</ele>
        <time>2021-11-20T20:42:33.845Z</time>
      </trkpt>
      <trkpt lat="47.597927" lon="7.802250">
        <ele>354.634491</ele>
        <time>2021-11-20T20:42:42.461Z</time>
      </trkpt>
      <trkpt lat="47.598146" lon="7.802509">
        <ele>355.575308</ele>
        <time>2021-11-20T20:42:49.531Z</time>
      </trkpt>
      <trkpt lat="47.598398" lon="7.802889">
        <ele>356.782403</ele>
        <time>2021-11-20T20:42:59.411Z</time>
      </trkpt>
      <trkpt lat="47.599983" lon="7.804755">
        <ele>363.200633</ele>
        <time>2021-11-20T20:43:59.956Z</time>
      </trkpt>
      <trkpt lat="47.600367" lon="7.805144">
        <ele>364.575626</ele>
        <time>2021-11-20T20:44:11.616Z</time>
      </trkpt>
      <trkpt lat="47.600707" lon="7.805537">
        <ele>365.794622</ele>
        <time>2021-11-20T20:44:21.419Z</time>
      </trkpt>
      <trkpt lat="47.600919" lon="7.805847">
        <ele>366.260918</ele>
        <time>2021-11-20T20:44:27.621Z</time>
      </trkpt>
      <trkpt lat="47.601434" lon="7.806809">
        <ele>367.558130</ele>
        <time>2021-11-20T20:44:41.840Z</time>
      </trkpt>
      <trkpt lat="47.601856" lon="7.807444">
        <ele>368.499702</ele>
        <time>2021-11-20T20:44:55.991Z</time>
      </trkpt>
      <trkpt lat="47.602242" lon="7.807771">
        <ele>370.304324</ele>
        <time>2021-11-20T20:45:07.508Z</time>
      </trkpt>
      <trkpt lat="47.602352" lon="7.807799">
        <ele>370.778653</ele>
        <time>2021-11-20T20:45:10.833Z</time>
      </trkpt>
      <trkpt lat="47.602603" lon="7.807841">
        <ele>371.852157</ele>
        <time>2021-11-20T20:45:17.813Z</time>
      </trkpt>
      <trkpt lat="47.603050" lon="7.808058">
        <ele>373.851063</ele>
        <time>2021-11-20T20:45:34.259Z</time>
      </trkpt>
      <trkpt lat="47.603664" lon="7.808428">
        <ele>376.855031</ele>
        <time>2021-11-20T20:45:58.124Z</time>
      </trkpt>
      <trkpt lat="47.603933" lon="7.808453">
        <ele>378.452750</ele>
        <time>2021-11-20T20:46:08.262Z</time>
      </trkpt>
      <trkpt lat="47.604147" lon="7.808404">
        <ele>379.736338</ele>
        <time>2021-11-20T20:46:18.282Z</time>
      </trkpt>
      <trkpt lat="47.604338" lon="7.808356">
        <ele>380.884696</ele>
        <time>2021-11-20T20:46:25.727Z</time>
      </trkpt>
      <trkpt lat="47.605468" lon="7.808045">
        <ele>387.736476</ele>
        <time>2021-11-20T20:47:09.973Z</time>
      </trkpt>
      <trkpt lat="47.605899" lon="7.808010">
        <ele>390.413565</ele>
        <time>2021-11-20T20:47:25.383Z</time>
      </trkpt>
      <trkpt lat="47.606698" lon="7.808066">
        <ele>395.374535</ele>
        <time>2021-11-20T20:47:56.394Z</time>
      </trkpt>
      <trkpt lat="47.607385" lon="7.807967">
        <ele>399.948202</ele>
        <time>2021-11-20T20:48:26.822Z</time>
      </trkpt>
      <trkpt lat="47.607595" lon="7.808039">
        <ele>401.522935</ele>
        <time>2021-11-20T20:48:36.288Z</time>
      </trkpt>
      <trkpt lat="47.607803" lon="7.808223">
        <ele>403.292351</ele>
        <time>2021-11-20T20:48:47.758Z</time>
      </trkpt>
      <trkpt lat="47.608602" lon="7.809088">
        <ele>410.519458</ele>
        <time>2021-11-20T20:49:32.116Z</time>
      </trkpt>
      <trkpt lat="47.609427" lon="7.809753">
        <ele>415.435221</ele>
        <time>2021-11-20T20:50:09.929Z</time>
      </trkpt>
      <trkpt lat="47.609797" lon="7.810201">
        <ele>417.835370</ele>
        <time>2021-11-20T20:50:26.224Z</time>
      </trkpt>
      <trkpt lat="47.610233" lon="7.810909">
        <ele>420.462816</ele>
        <time>2021-11-20T20:50:43.742Z</time>
      </trkpt>
      <trkpt lat="47.610772" lon="7.811907">
        <ele>421.784324</ele>
        <time>2021-11-20T20:51:02.056Z</time>
      </trkpt>
      <trkpt lat="47.611013" lon="7.812221">
        <ele>422.276032</ele>
        <time>2021-11-20T20:51:07.484Z</time>
      </trkpt>
      <trkpt lat="47.612313" lon="7.813004">
        <ele>424.412127</ele>
        <time>2021-11-20T20:51:32.671Z</time>
      </trkpt>
      <trkpt lat="47.612555" lon="7.813076">
        <ele>424.786720</ele>
        <time>2021-11-20T20:51:37.928Z</time>
      </trkpt>
      <trkpt lat="47.612810" lon="7.813060">
        <ele>425.174075</ele>
        <time>2021-11-20T20:51:43.814Z</time>
      </trkpt>
      <trkpt lat="47.613501" lon="7.812899">
        <ele>427.029128</ele>
        <time>2021-11-20T20:52:01.973Z</time>
      </trkpt>
      <trkpt lat="47.613621" lon="7.812859">
        <ele>427.480946</ele>
        <time>2021-11-20T20:52:05.411Z</time>
      </trkpt>
      <trkpt lat="47.613868" lon="7.812544">
        <ele>428.677539</ele>
        <time>2021-11-20T20:52:15.006Z</time>
      </trkpt>
      <trkpt lat="47.614051" lon="7.812407">
        <ele>429.430558</ele>
        <time>2021-11-20T20:52:21.378Z</time>
      </trkpt>
      <trkpt lat="47.614764" lon="7.812475">
        <ele>432.055207</ele>
        <time>2021-11-20T20:52:44.060Z</time>
      </trkpt>
      <trkpt lat="47.614932" lon="7.812637">
        <ele>432.951647</ele>
        <time>2021-11-20T20:52:50.201Z</time>
      </trkpt>
      <trkpt lat="47.615387" lon="7.813324">
        <ele>436.091199</ele>
        <time>2021-11-20T20:53:11.339Z</time>
      </trkpt>
      <trkpt lat="47.615645" lon="7.813447">
        <ele>437.401688</ele>
        <time>2021-11-20T20:53:20.419Z</time>
      </trkpt>
      <trkpt lat="47.615803" lon="7.813616">
        <ele>438.343648</ele>
        <time>2021-11-20T20:53:28.003Z</time>
      </trkpt>
      <trkpt lat="47.616224" lon="7.814793">
        <ele>442.873949</ele>
        <time>2021-11-20T20:53:59.739Z</time>
      </trkpt>
      <trkpt lat="47.616291" lon="7.814920">
        <ele>443.457267</ele>
        <time>2021-11-20T20:54:05.057Z</time>
      </trkpt>
      <trkpt lat="47.616368" lon="7.815112">
        <ele>444.265347</ele>
        <time>2021-11-20T20:54:09.912Z</time>
      </trkpt>
      <trkpt lat="47.616439" lon="7.815458">
        <ele>445.573538</ele>
        <time>2021-11-20T20:54:20.127Z</time>
      </trkpt>
      <trkpt lat="47.616582" lon="7.816196">
        <ele>448.350988</ele>
        <time>2021-11-20T20:54:37.750Z</time>
      </trkpt>
      <trkpt lat="47.616632" lon="7.816335">
        <ele>448.920857</ele>
        <time>2021-11-20T20:54:42.163Z</time>
      </trkpt>
      <trkpt lat="47.616707" lon="7.816445">
        <ele>449.486767</ele>
        <time>2021-11-20T20:54:46.601Z</time>
      </trkpt>
      <trkpt lat="47.617000" lon="7.816677">
        <ele>451.176064</ele>
        <time>2021-11-20T20:54:58.210Z</time>
      </trkpt>
      <trkpt lat="47.617243" lon="7.816840">
        <ele>452.398026</ele>
        <time>2021-11-20T20:55:06.192Z</time>
      </trkpt>
      <trkpt lat="47.617373" lon="7.816786">
        <ele>453.016599</ele>
        <time>2021-11-20T20:55:11.065Z</time>
      </trkpt>
      <trkpt lat="47.617466" lon="7.816748">
        <ele>453.458594</ele>
        <time>2021-11-20T20:55:13.702Z</time>
      </trkpt>
      <trkpt lat="47.617591" lon="7.816685">
        <ele>454.063498</ele>
        <time>2021-11-20T20:55:17.836Z</time>
      </trkpt>
      <trkpt lat="47.617645" lon="7.816658">
        <ele>454.324602</ele>
        <time>2021-11-20T20:55:19.824Z</time>
      </trkpt>
      <trkpt lat="47.617819" lon="7.816612">
        <ele>455.134434</ele>
        <time>2021-11-20T20:55:25.395Z</time>
      </trkpt>
      <trkpt lat="47.618026" lon="7.816656">
        <ele>456.092599</ele>
        <time>2021-11-20T20:55:32.686Z</time>
      </trkpt>
      <trkpt lat="47.618674" lon="7.816980">
        <ele>459.253170</ele>
        <time>2021-11-20T20:55:54.516Z</time>
      </trkpt>
      <trkpt lat="47.618799" lon="7.817081">
        <ele>459.956142</ele>
        <time>2021-11-20T20:55:59.738Z</time>
      </trkpt>
      <trkpt lat="47.619023" lon="7.817353">
        <ele>461.385752</ele>
        <time>2021-11-20T20:56:09.202Z</time>
      </trkpt>
      <trkpt lat="47.619222" lon="7.817606">
        <ele>462.680083</ele>
        <time>2021-11-20T20:56:18.303Z</time>
      </trkpt>
      <trkpt lat="47.619286" lon="7.817698">
        <ele>463.120206</ele>
        <time>2021-11-20T20:56:21.848Z</time>
      </trkpt>
      <trkpt lat="47.619369" lon="7.817884">
        <ele>463.862791</ele>
        <time>2021-11-20T20:56:27.029Z</time>
      </trkpt>
      <trkpt lat="47.619414" lon="7.817980">
        <ele>464.252055</ele>
        <time>2021-11-20T20:56:30.054Z</time>
      </trkpt>
      <trkpt lat="47.619455" lon="7.818047">
        <ele>464.553302</ele>
        <time>2021-11-20T20:56:31.739Z</time>
      </trkpt>
      <trkpt lat="47.619481" lon="7.818077">
        <ele>464.715975</ele>
        <time>2021-11-20T20:56:33.599Z</time>
      </trkpt>
      <trkpt lat="47.619880" lon="7.818346">
        <ele>466.880474</ele>
        <time>2021-11-20T20:56:48.371Z</time>
      </trkpt>
      <trkpt lat="47.619948" lon="7.818387">
        <ele>467.242986</ele>
        <time>2021-11-20T20:56:51.113Z</time>
      </trkpt>
      <trkpt lat="47.619983" lon="7.818525">
        <ele>467.733826</ele>
        <time>2021-11-20T20:56:54.779Z</time>
      </trkpt>
      <trkpt lat="47.620052" lon="7.818861">
        <ele>469.043152</ele>
        <time>2021-11-20T20:57:02.374Z</time>
      </trkpt>
      <trkpt lat="47.620091" lon="7.818898">
        <ele>469.299739</ele>
        <time>2021-11-20T20:57:03.802Z</time>
      </trkpt>
      <trkpt lat="47.620135" lon="7.818917">
        <ele>469.553741</ele>
        <time>2021-11-20T20:57:06.023Z</time>
      </trkpt>
      <trkpt lat="47.620588" lon="7.818608">
        <ele>472.317286</ele>
        <time>2021-11-20T20:57:23.865Z</time>
      </trkpt>
      <trkpt lat="47.621041" lon="7.817725">
        <ele>476.463026</ele>
        <time>2021-11-20T20:57:50.954Z</time>
      </trkpt>
      <trkpt lat="47.621099" lon="7.817634">
        <ele>476.930928</ele>
        <time>2021-11-20T20:57:55.313Z</time>
      </trkpt>
      <trkpt lat="47.621173" lon="7.817554">
        <ele>477.438434</ele>
        <time>2021-11-20T20:57:59.378Z</time>
      </trkpt>
      <trkpt lat="47.621261" lon="7.817493">
        <ele>478.041150</ele>
        <time>2021-11-20T20:58:02.866Z</time>
      </trkpt>
      <trkpt lat="47.621327" lon="7.817470">
        <ele>478.513890</ele>
        <time>2021-11-20T20:58:04.973Z</time>
      </trkpt>
      <trkpt lat="47.621408" lon="7.817443">
        <ele>479.092779</ele>
        <time>2021-11-20T20:58:09.469Z</time>
      </trkpt>
      <trkpt lat="47.622034" lon="7.817274">
        <ele>483.529522</ele>
        <time>2021-11-20T20:58:34.984Z</time>
      </trkpt>
      <trkpt lat="47.622464" lon="7.817228">
        <ele>486.535674</ele>
        <time>2021-11-20T20:58:55.476Z</time>
      </trkpt>
      <trkpt lat="47.622635" lon="7.817204">
        <ele>487.733372</ele>
        <time>2021-11-20T20:59:03.899Z</time>
      </trkpt>
      <trkpt lat="47.623176" lon="7.817016">
        <ele>491.284233</ele>
        <time>2021-11-20T20:59:26.478Z</time>
      </trkpt>
      <trkpt lat="47.623368" lon="7.816962">
        <ele>492.317453</ele>
        <time>2021-11-20T20:59:35.513Z</time>
      </trkpt>
      <trkpt lat="47.623648" lon="7.816926">
        <ele>493.803416</ele>
        <time>2021-11-20T20:59:46.574Z</time>
      </trkpt>
      <trkpt lat="47.624281" lon="7.816985">
        <ele>497.156810</ele>
        <time>2021-11-20T21:00:08.773Z</time>
      </trkpt>
      <trkpt lat="47.625987" lon="7.818025">
        <ele>504.645678</ele>
        <time>2021-11-20T21:01:02.251Z</time>
      </trkpt>
      <trkpt lat="47.626443" lon="7.818467">
        <ele>506.472797</ele>
        <time>2021-11-20T21:01:18.699Z</time>
      </trkpt>
      <trkpt lat="47.626482" lon="7.818488">
        <ele>506.561614</ele>
        <time>2021-11-20T21:01:20.114Z</time>
      </trkpt>
      <trkpt lat="47.626700" lon="7.818602">
        <ele>507.056429</ele>
        <time>2021-11-20T21:01:26.540Z</time>
      </trkpt>
      <trkpt lat="47.626983" lon="7.818622">
        <ele>507.662944</ele>
        <time>2021-11-20T21:01:34.580Z</time>
      </trkpt>
      <trkpt lat="47.627555" lon="7.818559">
        <ele>508.890812</ele>
        <time>2021-11-20T21:01:50.157Z</time>
      </trkpt>
      <trkpt lat="47.628903" lon="7.818442">
        <ele>507.889518</ele>
        <time>2021-11-20T21:02:08.891Z</time>
      </trkpt>
      <trkpt lat="47.629046" lon="7.818276">
        <ele>507.367171</ele>
        <time>2021-11-20T21:02:10.849Z</time>
      </trkpt>
      <trkpt lat="47.629128" lon="7.818136">
        <ele>507.007539</ele>
        <time>2021-11-20T21:02:12.045Z</time>
      </trkpt>
      <trkpt lat="47.629850" lon="7.816905">
        <ele>502.088735</ele>
        <time>2021-11-20T21:02:22.311Z</time>
      </trkpt>
      <trkpt lat="47.630743" lon="7.815987">
        <ele>493.990447</ele>
        <time>2021-11-20T21:02:31.878Z</time>
      </trkpt>
      <trkpt lat="47.631021" lon="7.815514">
        <ele>490.786510</ele>
        <time>2021-11-20T21:02:35.609Z</time>
      </trkpt>
      <trkpt lat="47.631083" lon="7.815420">
        <ele>490.077646</ele>
        <time>2021-11-20T21:02:36.393Z</time>
      </trkpt>
      <trkpt lat="47.631227" lon="7.815205">
        <ele>488.444002</ele>
        <time>2021-11-20T21:02:38.177Z</time>
      </trkpt>
      <trkpt lat="47.631677" lon="7.814692">
        <ele>483.905864</ele>
        <time>2021-11-20T21:02:43.161Z</time>
      </trkpt>
      <trkpt lat="47.631707" lon="7.814641">
        <ele>483.541029</ele>
        <time>2021-11-20T21:02:43.548Z</time>
      </trkpt>
      <trkpt lat="47.632099" lon="7.813963">
        <ele>478.726588</ele>
        <time>2021-11-20T21:02:48.909Z</time>
      </trkpt>
      <trkpt lat="47.632179" lon="7.813790">
        <ele>477.595849</ele>
        <time>2021-11-20T21:02:50.130Z</time>
      </trkpt>
      <trkpt lat="47.632515" lon="7.813155">
        <ele>473.717855</ele>
        <time>2021-11-20T21:02:55.131Z</time>
      </trkpt>
      <trkpt lat="47.632573" lon="7.813067">
        <ele>473.134754</ele>
        <time>2021-11-20T21:02:55.846Z</time>
      </trkpt>
      <trkpt lat="47.632601" lon="7.813004">
        <ele>472.777255</ele>
        <time>2021-11-20T21:02:56.285Z</time>
      </trkpt>
      <trkpt lat="47.632790" lon="7.812277">
        <ele>469.086007</ele>
        <time>2021-11-20T21:03:01.101Z</time>
      </trkpt>
      <trkpt lat="47.632845" lon="7.812246">
        <ele>468.672433</ele>
        <time>2021-11-20T21:03:01.635Z</time>
      </trkpt>
      <trkpt lat="47.632938" lon="7.812283">
        <ele>467.995596</ele>
        <time>2021-11-20T21:03:02.454Z</time>
      </trkpt>
      <trkpt lat="47.633151" lon="7.812590">
        <ele>465.908299</ele>
        <time>2021-11-20T21:03:05.179Z</time>
      </trkpt>
      <trkpt lat="47.633391" lon="7.813533">
        <ele>460.691872</ele>
        <time>2021-11-20T21:03:11.252Z</time>
      </trkpt>
      <trkpt lat="47.633759" lon="7.814194">
        <ele>456.099451</ele>
        <time>2021-11-20T21:03:16.261Z</time>
      </trkpt>
      <trkpt lat="47.633899" lon="7.814255">
        <ele>454.939703</ele>
        <time>2021-11-20T21:03:17.598Z</time>
      </trkpt>
      <trkpt lat="47.634025" lon="7.814248">
        <ele>453.937505</ele>
        <time>2021-11-20T21:03:18.690Z</time>
      </trkpt>
      <trkpt lat="47.634267" lon="7.814103">
        <ele>451.863124</ele>
        <time>2021-11-20T21:03:21.054Z</time>
      </trkpt>
      <trkpt lat="47.634603" lon="7.813838">
        <ele>448.884968</ele>
        <time>2021-11-20T21:03:24.430Z</time>
      </trkpt>
      <trkpt lat="47.634638" lon="7.813802">
        <ele>448.557866</ele>
        <time>2021-11-20T21:03:24.788Z</time>
      </trkpt>
      <trkpt lat="47.634810" lon="7.813677">
        <ele>447.086791</ele>
        <time>2021-11-20T21:03:26.503Z</time>
      </trkpt>
      <trkpt lat="47.635241" lon="7.813237">
        <ele>443.068518</ele>
        <time>2021-11-20T21:03:31.103Z</time>
      </trkpt>
      <trkpt lat="47.635461" lon="7.813093">
        <ele>441.221596</ele>
        <time>2021-11-20T21:03:33.243Z</time>
      </trkpt>
      <trkpt lat="47.635537" lon="7.813043">
        <ele>440.583036</ele>
        <time>2021-11-20T21:03:33.983Z</time>
      </trkpt>
      <trkpt lat="47.635617" lon="7.812948">
        <ele>439.796030</ele>
        <time>2021-11-20T21:03:34.883Z</time>
      </trkpt>
      <trkpt lat="47.635678" lon="7.812872">
        <ele>439.184249</ele>
        <time>2021-11-20T21:03:35.604Z</time>
      </trkpt>
      <trkpt lat="47.635984" lon="7.812598">
        <ele>436.439111</ele>
        <time>2021-11-20T21:03:38.808Z</time>
      </trkpt>
      <trkpt lat="47.636234" lon="7.812469">
        <ele>434.422000</ele>
        <time>2021-11-20T21:03:41.201Z</time>
      </trkpt>
      <trkpt lat="47.636362" lon="7.812419">
        <ele>433.413458</ele>
        <time>2021-11-20T21:03:42.406Z</time>
      </trkpt>
      <trkpt lat="47.636514" lon="7.812384">
        <ele>432.241407</ele>
        <time>2021-11-20T21:03:43.764Z</time>
      </trkpt>
      <trkpt lat="47.637056" lon="7.812257">
        <ele>428.060373</ele>
        <time>2021-11-20T21:03:48.683Z</time>
      </trkpt>
      <trkpt lat="47.637370" lon="7.812117">
        <ele>425.562146</ele>
        <time>2021-11-20T21:03:51.587Z</time>
      </trkpt>
      <trkpt lat="47.637893" lon="7.811811">
        <ele>421.352287</ele>
        <time>2021-11-20T21:03:56.481Z</time>
      </trkpt>
      <trkpt lat="47.638511" lon="7.811552">
        <ele>416.714220</ele>
        <time>2021-11-20T21:04:02.178Z</time>
      </trkpt>
      <trkpt lat="47.638925" lon="7.811482">
        <ele>413.704758</ele>
        <time>2021-11-20T21:04:05.884Z</time>
      </trkpt>
      <trkpt lat="47.639195" lon="7.811442">
        <ele>411.744989</ele>
        <time>2021-11-20T21:04:08.341Z</time>
      </trkpt>
      <trkpt lat="47.639796" lon="7.811469">
        <ele>408.529304</ele>
        <time>2021-11-20T21:04:13.912Z</time>
      </trkpt>
      <trkpt lat="47.639913" lon="7.811500">
        <ele>408.091450</ele>
        <time>2021-11-20T21:04:15.027Z</time>
      </trkpt>
      <trkpt lat="47.639913" lon="7.811500">
        <ele>408.091450</ele>
        <time>2021-11-20T21:04:15.034Z</time>
      </trkpt>
      <trkpt lat="47.640114" lon="7.811584">
        <ele>407.322150</ele>
        <time>2021-11-20T21:04:17.095Z</time>
      </trkpt>
      <trkpt lat="47.640311" lon="7.811772">
        <ele>406.459296</ele>
        <time>2021-11-20T21:04:19.381Z</time>
      </trkpt>
      <trkpt lat="47.640406" lon="7.811979">
        <ele>405.837593</ele>
        <time>2021-11-20T21:04:21.181Z</time>
      </trkpt>
      <trkpt lat="47.640965" lon="7.814694">
        <ele>399.150256</ele>
        <time>2021-11-20T21:04:41.668Z</time>
      </trkpt>
      <trkpt lat="47.641246" lon="7.815390">
        <ele>397.305204</ele>
        <time>2021-11-20T21:04:46.960Z</time>
      </trkpt>
      <trkpt lat="47.641404" lon="7.815775">
        <ele>395.365649</ele>
        <time>2021-11-20T21:04:49.749Z</time>
      </trkpt>
      <trkpt lat="47.641514" lon="7.816229">
        <ele>392.886507</ele>
        <time>2021-11-20T21:04:52.653Z</time>
      </trkpt>
      <trkpt lat="47.641687" lon="7.816751">
        <ele>389.897273</ele>
        <time>2021-11-20T21:04:56.114Z</time>
      </trkpt>
      <trkpt lat="47.641819" lon="7.816919">
        <ele>388.571120</ele>
        <time>2021-11-20T21:04:57.626Z</time>
      </trkpt>
      <trkpt lat="47.641916" lon="7.816921">
        <ele>387.831275</ele>
        <time>2021-11-20T21:04:58.474Z</time>
      </trkpt>
      <trkpt lat="47.642138" lon="7.816906">
        <ele>386.136429</ele>
        <time>2021-11-20T21:05:00.414Z</time>
      </trkpt>
      <trkpt lat="47.642758" lon="7.816795">
        <ele>381.665395</ele>
        <time>2021-11-20T21:05:05.885Z</time>
      </trkpt>
      <trkpt lat="47.642952" lon="7.816765">
        <ele>380.404435</ele>
        <time>2021-11-20T21:05:07.595Z</time>
      </trkpt>
      <trkpt lat="47.643638" lon="7.816626">
        <ele>375.928445</ele>
        <time>2021-11-20T21:05:13.759Z</time>
      </trkpt>
      <trkpt lat="47.643676" lon="7.816507">
        <ele>375.354859</ele>
        <time>2021-11-20T21:05:14.578Z</time>
      </trkpt>
      <trkpt lat="47.643672" lon="7.816390">
        <ele>374.844599</ele>
        <time>2021-11-20T21:05:15.318Z</time>
      </trkpt>
      <trkpt lat="47.643670" lon="7.816306">
        <ele>374.478501</ele>
        <time>2021-11-20T21:05:15.846Z</time>
      </trkpt>
      <trkpt lat="47.643631" lon="7.816174">
        <ele>373.850709</ele>
        <time>2021-11-20T21:05:16.766Z</time>
      </trkpt>
      <trkpt lat="47.643595" lon="7.815574">
        <ele>371.549419</ele>
        <time>2021-11-20T21:05:20.750Z</time>
      </trkpt>
      <trkpt lat="47.643583" lon="7.815386">
        <ele>371.338303</ele>
        <time>2021-11-20T21:05:22.073Z</time>
      </trkpt>
      <trkpt lat="47.643563" lon="7.815022">
        <ele>370.930018</ele>
        <time>2021-11-20T21:05:24.738Z</time>
      </trkpt>
      <trkpt lat="47.643526" lon="7.814068">
        <ele>369.861727</ele>
        <time>2021-11-20T21:05:32.114Z</time>
      </trkpt>
      <trkpt lat="47.643420" lon="7.812903">
        <ele>368.659277</ele>
        <time>2021-11-20T21:05:42.333Z</time>
      </trkpt>
      <trkpt lat="47.643356" lon="7.812369">
        <ele>368.579453</ele>
        <time>2021-11-20T21:05:47.781Z</time>
      </trkpt>
      <trkpt lat="47.643296" lon="7.811717">
        <ele>368.482606</ele>
        <time>2021-11-20T21:05:54.210Z</time>
      </trkpt>
      <trkpt lat="47.643273" lon="7.811468">
        <ele>368.445617</ele>
        <time>2021-11-20T21:05:56.671Z</time>
      </trkpt>
      <trkpt lat="47.643160" lon="7.810537">
        <ele>368.306394</ele>
        <time>2021-11-20T21:06:05.811Z</time>
      </trkpt>
      <trkpt lat="47.643048" lon="7.809936">
        <ele>368.016115</ele>
        <time>2021-11-20T21:06:11.607Z</time>
      </trkpt>
      <trkpt lat="47.643036" lon="7.809874">
        <ele>367.979192</ele>
        <time>2021-11-20T21:06:12.158Z</time>
      </trkpt>
      <trkpt lat="47.642844" lon="7.808839">
        <ele>367.364730</ele>
        <time>2021-11-20T21:06:21.248Z</time>
      </trkpt>
      <trkpt lat="47.642638" lon="7.807938">
        <ele>366.820125</ele>
        <time>2021-11-20T21:06:28.918Z</time>
      </trkpt>
      <trkpt lat="47.642575" lon="7.807502">
        <ele>366.480246</ele>
        <time>2021-11-20T21:06:32.459Z</time>
      </trkpt>
      <trkpt lat="47.642536" lon="7.807284">
        <ele>366.293748</ele>
        <time>2021-11-20T21:06:34.172Z</time>
      </trkpt>
      <trkpt lat="47.642474" lon="7.806929">
        <ele>365.990518</ele>
        <time>2021-11-20T21:06:37.228Z</time>
      </trkpt>
      <trkpt lat="47.642464" lon="7.806840">
        <ele>365.915912</ele>
        <time>2021-11-20T21:06:37.897Z</time>
      </trkpt>
      <trkpt lat="47.642457" lon="7.806775">
        <ele>365.861485</ele>
        <time>2021-11-20T21:06:38.402Z</time>
      </trkpt>
      <trkpt lat="47.642451" lon="7.806725">
        <ele>365.819492</ele>
        <time>2021-11-20T21:06:38.811Z</time>
      </trkpt>
      <trkpt lat="47.642419" lon="7.805794">
        <ele>365.048698</ele>
        <time>2021-11-20T21:06:46.192Z</time>
      </trkpt>
      <trkpt lat="47.642421" lon="7.805765">
        <ele>365.024594</ele>
        <time>2021-11-20T21:06:46.411Z</time>
      </trkpt>
      <trkpt lat="47.642430" lon="7.805613">
        <ele>364.898429</ele>
        <time>2021-11-20T21:06:47.595Z</time>
      </trkpt>
      <trkpt lat="47.642676" lon="7.804538">
        <ele>364.141628</ele>
        <time>2021-11-20T21:06:56.937Z</time>
      </trkpt>
      <trkpt lat="47.642770" lon="7.804334">
        <ele>364.000475</ele>
        <time>2021-11-20T21:06:59.083Z</time>
      </trkpt>
      <trkpt lat="47.642873" lon="7.804157">
        <ele>363.866899</ele>
        <time>2021-11-20T21:07:01.017Z</time>
      </trkpt>
      <trkpt lat="47.643129" lon="7.803855">
        <ele>363.589694</ele>
        <time>2021-11-20T21:07:05.122Z</time>
      </trkpt>
      <trkpt lat="47.643465" lon="7.803575">
        <ele>363.263048</ele>
        <time>2021-11-20T21:07:09.949Z</time>
      </trkpt>
      <trkpt lat="47.643772" lon="7.803319">
        <ele>362.999621</ele>
        <time>2021-11-20T21:07:14.374Z</time>
      </trkpt>
      <trkpt lat="47.644609" lon="7.803001">
        <ele>362.704650</ele>
        <time>2021-11-20T21:07:25.899Z</time>
      </trkpt>
      <trkpt lat="47.644860" lon="7.802911">
        <ele>362.616492</ele>
        <time>2021-11-20T21:07:29.577Z</time>
      </trkpt>
      <trkpt lat="47.645207" lon="7.802812">
        <ele>362.495854</ele>
        <time>2021-11-20T21:07:34.723Z</time>
      </trkpt>
      <trkpt lat="47.645311" lon="7.802799">
        <ele>362.460222</ele>
        <time>2021-11-20T21:07:36.268Z</time>
      </trkpt>
      <trkpt lat="47.645524" lon="7.802783">
        <ele>362.400882</ele>
        <time>2021-11-20T21:07:39.456Z</time>
      </trkpt>
      <trkpt lat="47.645603" lon="7.802779">
        <ele>362.390579</ele>
        <time>2021-11-20T21:07:40.625Z</time>
      </trkpt>
      <trkpt lat="47.645661" lon="7.802777">
        <ele>362.383017</ele>
        <time>2021-11-20T21:07:41.494Z</time>
      </trkpt>
      <trkpt lat="47.645690" lon="7.802775">
        <ele>362.379233</ele>
        <time>2021-11-20T21:07:41.938Z</time>
      </trkpt>
      <trkpt lat="47.645928" lon="7.802756">
        <ele>362.348167</ele>
        <time>2021-11-20T21:07:45.516Z</time>
      </trkpt>
      <trkpt lat="47.646891" lon="7.802749">
        <ele>362.222647</ele>
        <time>2021-11-20T21:07:59.795Z</time>
      </trkpt>
      <trkpt lat="47.646975" lon="7.802793">
        <ele>362.211037</ele>
        <time>2021-11-20T21:08:01.095Z</time>
      </trkpt>
      <trkpt lat="47.647353" lon="7.802987">
        <ele>362.016524</ele>
        <time>2021-11-20T21:08:06.568Z</time>
      </trkpt>
      <trkpt lat="47.647454" lon="7.803115">
        <ele>361.843800</ele>
        <time>2021-11-20T21:08:08.233Z</time>
      </trkpt>
      <trkpt lat="47.647677" lon="7.803299">
        <ele>361.511972</ele>
        <time>2021-11-20T21:08:11.377Z</time>
      </trkpt>
      <trkpt lat="47.647780" lon="7.802900">
        <ele>361.137586</ele>
        <time>2021-11-20T21:08:14.795Z</time>
      </trkpt>
      <trkpt lat="47.647896" lon="7.802634">
        <ele>360.859952</ele>
        <time>2021-11-20T21:08:17.266Z</time>
      </trkpt>
      <trkpt lat="47.648032" lon="7.802295">
        <ele>360.514247</ele>
        <time>2021-11-20T21:08:20.303Z</time>
      </trkpt>
      <trkpt lat="47.648175" lon="7.801942">
        <ele>360.153343</ele>
        <time>2021-11-20T21:08:23.399Z</time>
      </trkpt>
      <trkpt lat="47.648191" lon="7.801903">
        <ele>360.113334</ele>
        <time>2021-11-20T21:08:23.735Z</time>
      </trkpt>
      <trkpt lat="47.648544" lon="7.801029">
        <ele>359.102689</ele>
        <time>2021-11-20T21:08:31.266Z</time>
      </trkpt>
      <trkpt lat="47.648712" lon="7.800751">
        <ele>358.712802</ele>
        <time>2021-11-20T21:08:34.062Z</time>
      </trkpt>
      <trkpt lat="47.648726" lon="7.800730">
        <ele>358.681958</ele>
        <time>2021-11-20T21:08:34.276Z</time>
      </trkpt>
      <trkpt lat="47.648813" lon="7.800640">
        <ele>358.517626</ele>
        <time>2021-11-20T21:08:35.446Z</time>
      </trkpt>
      <trkpt lat="47.648842" lon="7.800639">
        <ele>358.472673</ele>
        <time>2021-11-20T21:08:35.774Z</time>
      </trkpt>
      <trkpt lat="47.648880" lon="7.800611">
        <ele>358.406930</ele>
        <time>2021-11-20T21:08:36.262Z</time>
      </trkpt>
      <trkpt lat="47.648906" lon="7.800592">
        <ele>358.362020</ele>
        <time>2021-11-20T21:08:36.586Z</time>
      </trkpt>
      <trkpt lat="47.648922" lon="7.800561">
        <ele>358.321250</ele>
        <time>2021-11-20T21:08:36.880Z</time>
      </trkpt>
      <trkpt lat="47.649025" lon="7.800505">
        <ele>358.151264</ele>
        <time>2021-11-20T21:08:38.102Z</time>
      </trkpt>
      <trkpt lat="47.649108" lon="7.800464">
        <ele>358.015705</ele>
        <time>2021-11-20T21:08:39.063Z</time>
      </trkpt>
      <trkpt lat="47.649238" lon="7.800402">
        <ele>357.804104</ele>
        <time>2021-11-20T21:08:40.652Z</time>
      </trkpt>
      <trkpt lat="47.649415" lon="7.800336">
        <ele>357.521290</ele>
        <time>2021-11-20T21:08:42.724Z</time>
      </trkpt>
      <trkpt lat="47.649440" lon="7.800327">
        <ele>357.481425</ele>
        <time>2021-11-20T21:08:43.006Z</time>
      </trkpt>
      <trkpt lat="47.649707" lon="7.800227">
        <ele>357.054693</ele>
        <time>2021-11-20T21:08:46.350Z</time>
      </trkpt>
      <trkpt lat="47.649802" lon="7.800183">
        <ele>357.078950</ele>
        <time>2021-11-20T21:08:47.593Z</time>
      </trkpt>
      <trkpt lat="47.650046" lon="7.800072">
        <ele>357.161433</ele>
        <time>2021-11-20T21:08:51.238Z</time>
      </trkpt>
      <trkpt lat="47.650174" lon="7.800012">
        <ele>357.204817</ele>
        <time>2021-11-20T21:08:53.516Z</time>
      </trkpt>
      <trkpt lat="47.650489" lon="7.799868">
        <ele>357.311346</ele>
        <time>2021-11-20T21:08:58.934Z</time>
      </trkpt>
      <trkpt lat="47.650602" lon="7.799816">
        <ele>357.349583</ele>
        <time>2021-11-20T21:09:00.869Z</time>
      </trkpt>
      <trkpt lat="47.650980" lon="7.799643">
        <ele>357.477430</ele>
        <time>2021-11-20T21:09:08.100Z</time>
      </trkpt>
      <trkpt lat="47.651021" lon="7.799621">
        <ele>357.491521</ele>
        <time>2021-11-20T21:09:08.848Z</time>
      </trkpt>
      <trkpt lat="47.651401" lon="7.799445">
        <ele>357.620179</ele>
        <time>2021-11-20T21:09:16.174Z</time>
      </trkpt>
      <trkpt lat="47.651510" lon="7.799390">
        <ele>357.650984</ele>
        <time>2021-11-20T21:09:19.294Z</time>
      </trkpt>
      <trkpt lat="47.651610" lon="7.799288">
        <ele>357.681199</ele>
        <time>2021-11-20T21:09:21.649Z</time>
      </trkpt>
      <trkpt lat="47.651827" lon="7.799068">
        <ele>357.746639</ele>
        <time>2021-11-20T21:09:28.076Z</time>
      </trkpt>
      <trkpt lat="47.652373" lon="7.798474">
        <ele>357.915214</ele>
        <time>2021-11-20T21:09:42.639Z</time>
      </trkpt>
      <trkpt lat="47.652486" lon="7.798377">
        <ele>357.947720</ele>
        <time>2021-11-20T21:09:45.000Z</time>
      </trkpt>
      <trkpt lat="47.652764" lon="7.798185">
        <ele>358.024076</ele>
        <time>2021-11-20T21:09:51.621Z</time>
      </trkpt>
      <trkpt lat="47.652811" lon="7.798152">
        <ele>358.037024</ele>
        <time>2021-11-20T21:09:52.466Z</time>
      </trkpt>
      <trkpt lat="47.653088" lon="7.798043">
        <ele>358.047827</ele>
        <time>2021-11-20T21:09:58.017Z</time>
      </trkpt>
      <trkpt lat="47.653274" lon="7.797996">
        <ele>358.002979</ele>
        <time>2021-11-20T21:10:01.323Z</time>
      </trkpt>
      <trkpt lat="47.653601" lon="7.798001">
        <ele>357.925246</ele>
        <time>2021-11-20T21:10:07.334Z</time>
      </trkpt>
      <trkpt lat="47.653659" lon="7.798008">
        <ele>357.911414</ele>
        <time>2021-11-20T21:10:08.485Z</time>
      </trkpt>
      <trkpt lat="47.653906" lon="7.798052">
        <ele>357.852281</ele>
        <time>2021-11-20T21:10:12.935Z</time>
      </trkpt>
      <trkpt lat="47.654119" lon="7.798106">
        <ele>357.800918</ele>
        <time>2021-11-20T21:10:17.241Z</time>
      </trkpt>
      <trkpt lat="47.654972" lon="7.798325">
        <ele>357.731030</ele>
        <time>2021-11-20T21:10:34.678Z</time>
      </trkpt>
      <trkpt lat="47.655261" lon="7.798389">
        <ele>357.834066</ele>
        <time>2021-11-20T21:10:41.101Z</time>
      </trkpt>
      <trkpt lat="47.655645" lon="7.798485">
        <ele>357.971379</ele>
        <time>2021-11-20T21:10:49.628Z</time>
      </trkpt>
      <trkpt lat="47.656074" lon="7.798592">
        <ele>358.124773</ele>
        <time>2021-11-20T21:10:59.166Z</time>
      </trkpt>
      <trkpt lat="47.656097" lon="7.798598">
        <ele>358.133008</ele>
        <time>2021-11-20T21:10:59.696Z</time>
      </trkpt>
      <trkpt lat="47.656579" lon="7.798702">
        <ele>358.313800</ele>
        <time>2021-11-20T21:11:10.514Z</time>
      </trkpt>
      <trkpt lat="47.656780" lon="7.798744">
        <ele>358.416713</ele>
        <time>2021-11-20T21:11:15.057Z</time>
      </trkpt>
      <trkpt lat="47.656989" lon="7.798756">
        <ele>358.522757</ele>
        <time>2021-11-20T21:11:19.705Z</time>
      </trkpt>
      <trkpt lat="47.657806" lon="7.798860">
        <ele>358.938502</ele>
        <time>2021-11-20T21:11:38.139Z</time>
      </trkpt>
      <trkpt lat="47.658094" lon="7.798895">
        <ele>359.085009</ele>
        <time>2021-11-20T21:11:44.458Z</time>
      </trkpt>
      <trkpt lat="47.658412" lon="7.798888">
        <ele>359.243973</ele>
        <time>2021-11-20T21:11:51.391Z</time>
      </trkpt>
      <trkpt lat="47.658617" lon="7.798885">
        <ele>359.343191</ele>
        <time>2021-11-20T21:11:56.031Z</time>
      </trkpt>
      <trkpt lat="47.658702" lon="7.798884">
        <ele>359.384330</ele>
        <time>2021-11-20T21:11:57.912Z</time>
      </trkpt>
      <trkpt lat="47.658990" lon="7.798898">
        <ele>359.523787</ele>
        <time>2021-11-20T21:12:04.373Z</time>
      </trkpt>
      <trkpt lat="47.659142" lon="7.798947">
        <ele>359.599064</ele>
        <time>2021-11-20T21:12:07.773Z</time>
      </trkpt>
      <trkpt lat="47.659353" lon="7.799038">
        <ele>359.705402</ele>
        <time>2021-11-20T21:12:12.707Z</time>
      </trkpt>
      <trkpt lat="47.659617" lon="7.799151">
        <ele>359.838373</ele>
        <time>2021-11-20T21:12:18.776Z</time>
      </trkpt>
      <trkpt lat="47.659695" lon="7.799185">
        <ele>359.877716</ele>
        <time>2021-11-20T21:12:20.598Z</time>
      </trkpt>
      <trkpt lat="47.659866" lon="7.799258">
        <ele>359.963827</ele>
        <time>2021-11-20T21:12:24.594Z</time>
      </trkpt>
      <trkpt lat="47.660413" lon="7.799490">
        <ele>360.269941</ele>
        <time>2021-11-20T21:12:37.013Z</time>
      </trkpt>
      <trkpt lat="47.660755" lon="7.799654">
        <ele>360.474904</ele>
        <time>2021-11-20T21:12:44.858Z</time>
      </trkpt>
      <trkpt lat="47.660793" lon="7.799673">
        <ele>360.497771</ele>
        <time>2021-11-20T21:12:45.774Z</time>
      </trkpt>
      <trkpt lat="47.661187" lon="7.799870">
        <ele>360.734867</ele>
        <time>2021-11-20T21:12:55.081Z</time>
      </trkpt>
      <trkpt lat="47.661224" lon="7.799885">
        <ele>360.756741</ele>
        <time>2021-11-20T21:12:56.041Z</time>
      </trkpt>
      <trkpt lat="47.661603" lon="7.800090">
        <ele>360.986780</ele>
        <time>2021-11-20T21:13:05.295Z</time>
      </trkpt>
      <trkpt lat="47.662007" lon="7.800299">
        <ele>361.262631</ele>
        <time>2021-11-20T21:13:15.081Z</time>
      </trkpt>
      <trkpt lat="47.662416" lon="7.800534">
        <ele>361.570288</ele>
        <time>2021-11-20T21:13:25.697Z</time>
      </trkpt>
      <trkpt lat="47.663470" lon="7.800659">
        <ele>362.312050</ele>
        <time>2021-11-20T21:13:49.853Z</time>
      </trkpt>
      <trkpt lat="47.663623" lon="7.800669">
        <ele>362.376819</ele>
        <time>2021-11-20T21:13:53.369Z</time>
      </trkpt>
      <trkpt lat="47.663648" lon="7.800671">
        <ele>362.382926</ele>
        <time>2021-11-20T21:13:53.923Z</time>
      </trkpt>
      <trkpt lat="47.663842" lon="7.800716">
        <ele>362.430828</ele>
        <time>2021-11-20T21:13:58.124Z</time>
      </trkpt>
      <trkpt lat="47.664106" lon="7.800746">
        <ele>362.495421</ele>
        <time>2021-11-20T21:14:03.880Z</time>
      </trkpt>
      <trkpt lat="47.664689" lon="7.800933">
        <ele>362.640927</ele>
        <time>2021-11-20T21:14:16.622Z</time>
      </trkpt>
      <trkpt lat="47.664798" lon="7.800967">
        <ele>362.668099</ele>
        <time>2021-11-20T21:14:18.933Z</time>
      </trkpt>
      <trkpt lat="47.664827" lon="7.800841">
        <ele>362.689976</ele>
        <time>2021-11-20T21:14:20.264Z</time>
      </trkpt>
      <trkpt lat="47.664908" lon="7.800883">
        <ele>362.710907</ele>
        <time>2021-11-20T21:14:21.652Z</time>
      </trkpt>
      <trkpt lat="47.665300" lon="7.801038">
        <ele>362.796748</ele>
        <time>2021-11-20T21:14:27.633Z</time>
      </trkpt>
      <trkpt lat="47.666597" lon="7.801308">
        <ele>362.869777</ele>
        <time>2021-11-20T21:14:46.768Z</time>
      </trkpt>
      <trkpt lat="47.668652" lon="7.801735">
        <ele>363.280578</ele>
        <time>2021-11-20T21:15:19.307Z</time>
      </trkpt>
      <trkpt lat="47.669483" lon="7.801983">
        <ele>363.722465</ele>
        <time>2021-11-20T21:15:33.524Z</time>
      </trkpt>
      <trkpt lat="47.670462" lon="7.802451">
        <ele>364.318543</ele>
        <time>2021-11-20T21:15:51.427Z</time>
      </trkpt>
      <trkpt lat="47.670527" lon="7.802447">
        <ele>364.356248</ele>
        <time>2021-11-20T21:15:52.734Z</time>
      </trkpt>
      <trkpt lat="47.671143" lon="7.802769">
        <ele>364.738253</ele>
        <time>2021-11-20T21:16:03.947Z</time>
      </trkpt>
      <trkpt lat="47.672785" lon="7.803622">
        <ele>366.114763</ele>
        <time>2021-11-20T21:16:33.684Z</time>
      </trkpt>
      <trkpt lat="47.672874" lon="7.803578">
        <ele>366.226351</ele>
        <time>2021-11-20T21:16:35.444Z</time>
      </trkpt>
      <trkpt lat="47.673221" lon="7.803029">
        <ele>366.829508</ele>
        <time>2021-11-20T21:16:45.416Z</time>
      </trkpt>
      <trkpt lat="47.673257" lon="7.802852">
        <ele>366.977618</ele>
        <time>2021-11-20T21:16:48.114Z</time>
      </trkpt>
      <trkpt lat="47.673277" lon="7.802799">
        <ele>367.026285</ele>
        <time>2021-11-20T21:16:49.004Z</time>
      </trkpt>
      <trkpt lat="47.673308" lon="7.802785">
        <ele>367.064830</ele>
        <time>2021-11-20T21:16:49.875Z</time>
      </trkpt>
      <trkpt lat="47.673363" lon="7.802809">
        <ele>367.133025</ele>
        <time>2021-11-20T21:16:51.408Z</time>
      </trkpt>
      <trkpt lat="47.673416" lon="7.802881">
        <ele>367.218474</ele>
        <time>2021-11-20T21:16:53.329Z</time>
      </trkpt>
      <trkpt lat="47.673666" lon="7.802454">
        <ele>367.750023</ele>
        <time>2021-11-20T21:17:01.792Z</time>
      </trkpt>
      <trkpt lat="47.673827" lon="7.802204">
        <ele>368.202863</ele>
        <time>2021-11-20T21:17:07.032Z</time>
      </trkpt>
      <trkpt lat="47.673974" lon="7.801975">
        <ele>368.617025</ele>
        <time>2021-11-20T21:17:11.815Z</time>
      </trkpt>
      <trkpt lat="47.674327" lon="7.801371">
        <ele>369.663961</ele>
        <time>2021-11-20T21:17:24.045Z</time>
      </trkpt>
      <trkpt lat="47.674474" lon="7.801183">
        <ele>370.041098</ele>
        <time>2021-11-20T21:17:28.625Z</time>
      </trkpt>
      <trkpt lat="47.674792" lon="7.800871">
        <ele>370.782034</ele>
        <time>2021-11-20T21:17:37.382Z</time>
      </trkpt>
      <trkpt lat="47.675532" lon="7.800539">
        <ele>372.070252</ele>
        <time>2021-11-20T21:17:54.807Z</time>
      </trkpt>
      <trkpt lat="47.675630" lon="7.800465">
        <ele>372.246989</ele>
        <time>2021-11-20T21:17:57.472Z</time>
      </trkpt>
      <trkpt lat="47.675794" lon="7.800362">
        <ele>372.533238</ele>
        <time>2021-11-20T21:18:18.041Z</time>
      </trkpt>
      <trkpt lat="47.675945" lon="7.800238">
        <ele>372.810621</ele>
        <time>2021-11-20T21:18:38.396Z</time>
      </trkpt>
      <trkpt lat="47.675978" lon="7.800212">
        <ele>372.870674</ele>
        <time>2021-11-20T21:18:42.693Z</time>
      </trkpt>
      <trkpt lat="47.676167" lon="7.800066">
        <ele>373.213150</ele>
        <time>2021-11-20T21:19:07.003Z</time>
      </trkpt>
      <trkpt lat="47.676231" lon="7.800074">
        <ele>373.316400</ele>
        <time>2021-11-20T21:19:14.961Z</time>
      </trkpt>
      <trkpt lat="47.678027" lon="7.799442">
        <ele>375.526730</ele>
        <time>2021-11-20T21:22:49.122Z</time>
      </trkpt>
      <trkpt lat="47.679151" lon="7.799219">
        <ele>376.267987</ele>
        <time>2021-11-20T21:24:58.406Z</time>
      </trkpt>
      <trkpt lat="47.679352" lon="7.799059">
        <ele>376.374770</ele>
        <time>2021-11-20T21:25:24.250Z</time>
      </trkpt>
      <trkpt lat="47.679706" lon="7.798620">
        <ele>376.590713</ele>
        <time>2021-11-20T21:26:16.287Z</time>
      </trkpt>
      <trkpt lat="47.680009" lon="7.798422">
        <ele>376.735152</ele>
        <time>2021-11-20T21:26:53.324Z</time>
      </trkpt>
      <trkpt lat="47.681013" lon="7.798798">
        <ele>376.575490</ele>
        <time>2021-11-20T21:28:47.890Z</time>
      </trkpt>
      <trkpt lat="47.681280" lon="7.798801">
        <ele>376.534318</ele>
        <time>2021-11-20T21:29:17.170Z</time>
      </trkpt>
      <trkpt lat="47.682090" lon="7.798811">
        <ele>376.473723</ele>
        <time>2021-11-20T21:30:46.369Z</time>
      </trkpt>
      <trkpt lat="47.682143" lon="7.798819">
        <ele>376.475866</ele>
        <time>2021-11-20T21:30:52.071Z</time>
      </trkpt>
      <trkpt lat="47.682432" lon="7.798569">
        <ele>376.489317</ele>
        <time>2021-11-20T21:31:28.958Z</time>
      </trkpt>
      <trkpt lat="47.683513" lon="7.798053">
        <ele>376.586080</ele>
        <time>2021-11-20T21:33:35.672Z</time>
      </trkpt>
      <trkpt lat="47.683994" lon="7.798044">
        <ele>377.049859</ele>
        <time>2021-11-20T21:34:30.986Z</time>
      </trkpt>
      <trkpt lat="47.684400" lon="7.797862">
        <ele>377.458729</ele>
        <time>2021-11-20T21:35:20.032Z</time>
      </trkpt>
      <trkpt lat="47.684465" lon="7.797824">
        <ele>377.526076</ele>
        <time>2021-11-20T21:35:28.180Z</time>
      </trkpt>
      <trkpt lat="47.684548" lon="7.797775">
        <ele>377.612186</ele>
        <time>2021-11-20T21:35:38.629Z</time>
      </trkpt>
      <trkpt lat="47.684907" lon="7.797433">
        <ele>378.023371</ele>
        <time>2021-11-20T21:36:27.788Z</time>
      </trkpt>
      <trkpt lat="47.684934" lon="7.797356">
        <ele>378.079721</ele>
        <time>2021-11-20T21:36:34.723Z</time>
      </trkpt>
      <trkpt lat="47.685144" lon="7.797223">
        <ele>378.316747</ele>
        <time>2021-11-20T21:36:40.438Z</time>
      </trkpt>
      <trkpt lat="47.685475" lon="7.797037">
        <ele>378.833199</ele>
        <time>2021-11-20T21:36:49.218Z</time>
      </trkpt>
      <trkpt lat="47.685759" lon="7.796930">
        <ele>379.260777</ele>
        <time>2021-11-20T21:36:56.588Z</time>
      </trkpt>
      <trkpt lat="47.686089" lon="7.796835">
        <ele>379.751323</ele>
        <time>2021-11-20T21:37:05.375Z</time>
      </trkpt>
      <trkpt lat="47.686357" lon="7.796753">
        <ele>380.150638</ele>
        <time>2021-11-20T21:37:12.994Z</time>
      </trkpt>
      <trkpt lat="47.686604" lon="7.796684">
        <ele>380.517416</ele>
        <time>2021-11-20T21:37:19.409Z</time>
      </trkpt>
      <trkpt lat="47.686833" lon="7.796632">
        <ele>380.855489</ele>
        <time>2021-11-20T21:37:25.615Z</time>
      </trkpt>
      <trkpt lat="47.687014" lon="7.796595">
        <ele>381.257198</ele>
        <time>2021-11-20T21:37:30.873Z</time>
      </trkpt>
      <trkpt lat="47.687125" lon="7.796572">
        <ele>381.516642</ele>
        <time>2021-11-20T21:37:33.853Z</time>
      </trkpt>
      <trkpt lat="47.687299" lon="7.796542">
        <ele>381.922142</ele>
        <time>2021-11-20T21:37:38.309Z</time>
      </trkpt>
      <trkpt lat="47.687343" lon="7.796539">
        <ele>382.024106</ele>
        <time>2021-11-20T21:37:39.629Z</time>
      </trkpt>
      <trkpt lat="47.687384" lon="7.796535">
        <ele>382.119222</ele>
        <time>2021-11-20T21:37:40.983Z</time>
      </trkpt>
      <trkpt lat="47.687595" lon="7.796515">
        <ele>382.608664</ele>
        <time>2021-11-20T21:37:46.212Z</time>
      </trkpt>
      <trkpt lat="47.687607" lon="7.796514">
        <ele>382.636486</ele>
        <time>2021-11-20T21:37:46.547Z</time>
      </trkpt>
      <trkpt lat="47.687671" lon="7.796516">
        <ele>382.784674</ele>
        <time>2021-11-20T21:37:48.329Z</time>
      </trkpt>
      <trkpt lat="47.687769" lon="7.796519">
        <ele>383.011584</ele>
        <time>2021-11-20T21:37:51.443Z</time>
      </trkpt>
      <trkpt lat="47.688322" lon="7.796634">
        <ele>384.304218</ele>
        <time>2021-11-20T21:38:06.466Z</time>
      </trkpt>
      <trkpt lat="47.688430" lon="7.796592">
        <ele>384.562654</ele>
        <time>2021-11-20T21:38:12.164Z</time>
      </trkpt>
      <trkpt lat="47.688376" lon="7.796471">
        <ele>384.788884</ele>
        <time>2021-11-20T21:38:14.573Z</time>
      </trkpt>
      <trkpt lat="47.688243" lon="7.796236">
        <ele>385.571597</ele>
        <time>2021-11-20T21:38:19.311Z</time>
      </trkpt>
      <trkpt lat="47.688225" lon="7.796220">
        <ele>385.689888</ele>
        <time>2021-11-20T21:38:19.898Z</time>
      </trkpt>
      <trkpt lat="47.688100" lon="7.796113">
        <ele>386.503451</ele>
        <time>2021-11-20T21:38:25.999Z</time>
      </trkpt>
      <trkpt lat="47.687750" lon="7.795967">
        <ele>388.553535</ele>
        <time>2021-11-20T21:38:37.433Z</time>
      </trkpt>
      <trkpt lat="47.687733" lon="7.795960">
        <ele>388.653018</ele>
        <time>2021-11-20T21:38:37.971Z</time>
      </trkpt>
      <trkpt lat="47.687589" lon="7.795875">
        <ele>389.526832</ele>
        <time>2021-11-20T21:38:41.593Z</time>
      </trkpt>
      <trkpt lat="47.687244" lon="7.795566">
        <ele>391.798649</ele>
        <time>2021-11-20T21:38:57.849Z</time>
      </trkpt>
      <trkpt lat="47.687249" lon="7.795522">
        <ele>391.968046</ele>
        <time>2021-11-20T21:39:01.055Z</time>
      </trkpt>
      <trkpt lat="47.687118" lon="7.794989">
        <ele>394.122078</ele>
        <time>2021-11-20T21:39:17.105Z</time>
      </trkpt>
      <trkpt lat="47.687098" lon="7.794479">
        <ele>396.445610</ele>
        <time>2021-11-20T21:39:31.895Z</time>
      </trkpt>
      <trkpt lat="47.687138" lon="7.794064">
        <ele>398.745599</ele>
        <time>2021-11-20T21:39:42.012Z</time>
      </trkpt>
      <trkpt lat="47.687191" lon="7.793851">
        <ele>399.991429</ele>
        <time>2021-11-20T21:39:51.321Z</time>
      </trkpt>
      <trkpt lat="47.687361" lon="7.793342">
        <ele>403.108689</ele>
        <time>2021-11-20T21:40:10.791Z</time>
      </trkpt>
      <trkpt lat="47.687464" lon="7.792610">
        <ele>407.211350</ele>
        <time>2021-11-20T21:40:34.978Z</time>
      </trkpt>
      <trkpt lat="47.687407" lon="7.792415">
        <ele>408.377653</ele>
        <time>2021-11-20T21:40:41.769Z</time>
      </trkpt>
      <trkpt lat="47.687158" lon="7.792068">
        <ele>411.179533</ele>
        <time>2021-11-20T21:40:58.634Z</time>
      </trkpt>
      <trkpt lat="47.687038" lon="7.791877">
        <ele>412.634230</ele>
        <time>2021-11-20T21:41:06.721Z</time>
      </trkpt>
      <trkpt lat="47.687040" lon="7.791794">
        <ele>413.096670</ele>
        <time>2021-11-20T21:41:10.642Z</time>
      </trkpt>
      <trkpt lat="47.687103" lon="7.791534">
        <ele>414.635273</ele>
        <time>2021-11-20T21:41:18.261Z</time>
      </trkpt>
      <trkpt lat="47.687215" lon="7.791427">
        <ele>415.736688</ele>
        <time>2021-11-20T21:41:23.796Z</time>
      </trkpt>
      <trkpt lat="47.687813" lon="7.791654">
        <ele>420.841793</ele>
        <time>2021-11-20T21:41:54.682Z</time>
      </trkpt>
      <trkpt lat="47.687969" lon="7.791654">
        <ele>422.132098</ele>
        <time>2021-11-20T21:42:02.180Z</time>
      </trkpt>
      <trkpt lat="47.688121" lon="7.791525">
        <ele>423.580027</ele>
        <time>2021-11-20T21:42:11.020Z</time>
      </trkpt>
      <trkpt lat="47.688316" lon="7.791155">
        <ele>426.135263</ele>
        <time>2021-11-20T21:42:26.423Z</time>
      </trkpt>
      <trkpt lat="47.688559" lon="7.790888">
        <ele>428.530699</ele>
        <time>2021-11-20T21:42:37.523Z</time>
      </trkpt>
      <trkpt lat="47.688615" lon="7.790837">
        <ele>429.051287</ele>
        <time>2021-11-20T21:42:42.092Z</time>
      </trkpt>
      <trkpt lat="47.688719" lon="7.790743">
        <ele>430.016106</ele>
        <time>2021-11-20T21:42:49.009Z</time>
      </trkpt>
      <trkpt lat="47.688799" lon="7.790640">
        <ele>430.855130</ele>
        <time>2021-11-20T21:42:52.575Z</time>
      </trkpt>
      <trkpt lat="47.688847" lon="7.790430">
        <ele>432.038316</ele>
        <time>2021-11-20T21:42:59.904Z</time>
      </trkpt>
      <trkpt lat="47.688671" lon="7.790034">
        <ele>434.569936</ele>
        <time>2021-11-20T21:43:14.666Z</time>
      </trkpt>
      <trkpt lat="47.688652" lon="7.789780">
        <ele>435.933385</ele>
        <time>2021-11-20T21:43:23.919Z</time>
      </trkpt>
      <trkpt lat="47.688823" lon="7.789278">
        <ele>438.934959</ele>
        <time>2021-11-20T21:43:41.230Z</time>
      </trkpt>
      <trkpt lat="47.688888" lon="7.789165">
        <ele>439.857674</ele>
        <time>2021-11-20T21:43:44.395Z</time>
      </trkpt>
      <trkpt lat="47.688994" lon="7.789125">
        <ele>440.876570</ele>
        <time>2021-11-20T21:43:50.197Z</time>
      </trkpt>
      <trkpt lat="47.689053" lon="7.789168">
        <ele>441.488822</ele>
        <time>2021-11-20T21:43:53.830Z</time>
      </trkpt>
      <trkpt lat="47.689075" lon="7.789206">
        <ele>441.803147</ele>
        <time>2021-11-20T21:43:56.073Z</time>
      </trkpt>
      <trkpt lat="47.689060" lon="7.789389">
        <ele>442.959279</ele>
        <time>2021-11-20T21:44:00.008Z</time>
      </trkpt>
      <trkpt lat="47.688948" lon="7.789669">
        <ele>445.001876</ele>
        <time>2021-11-20T21:44:08.951Z</time>
      </trkpt>
      <trkpt lat="47.688941" lon="7.789940">
        <ele>446.702663</ele>
        <time>2021-11-20T21:44:15.997Z</time>
      </trkpt>
      <trkpt lat="47.689112" lon="7.790189">
        <ele>448.933456</ele>
        <time>2021-11-20T21:44:31.430Z</time>
      </trkpt>
      <trkpt lat="47.689457" lon="7.790508">
        <ele>452.719337</ele>
        <time>2021-11-20T21:44:54.236Z</time>
      </trkpt>
      <trkpt lat="47.689560" lon="7.790697">
        <ele>454.244353</ele>
        <time>2021-11-20T21:45:03.493Z</time>
      </trkpt>
      <trkpt lat="47.689594" lon="7.790998">
        <ele>456.276086</ele>
        <time>2021-11-20T21:45:17.103Z</time>
      </trkpt>
      <trkpt lat="47.689483" lon="7.791571">
        <ele>461.081260</ele>
        <time>2021-11-20T21:45:40.208Z</time>
      </trkpt>
      <trkpt lat="47.689478" lon="7.791714">
        <ele>462.235242</ele>
        <time>2021-11-20T21:45:46.795Z</time>
      </trkpt>
      <trkpt lat="47.689493" lon="7.791819">
        <ele>463.100275</ele>
        <time>2021-11-20T21:45:53.343Z</time>
      </trkpt>
      <trkpt lat="47.689562" lon="7.791973">
        <ele>464.591133</ele>
        <time>2021-11-20T21:45:59.436Z</time>
      </trkpt>
      <trkpt lat="47.689723" lon="7.792013">
        <ele>466.545395</ele>
        <time>2021-11-20T21:46:09.451Z</time>
      </trkpt>
      <trkpt lat="47.690160" lon="7.791653">
        <ele>472.527726</ele>
        <time>2021-11-20T21:46:42.920Z</time>
      </trkpt>
      <trkpt lat="47.690673" lon="7.791691">
        <ele>478.433723</ele>
        <time>2021-11-20T21:47:14.907Z</time>
      </trkpt>
      <trkpt lat="47.690878" lon="7.791600">
        <ele>480.549501</ele>
        <time>2021-11-20T21:47:30.578Z</time>
      </trkpt>
      <trkpt lat="47.690962" lon="7.791506">
        <ele>481.589458</ele>
        <time>2021-11-20T21:47:36.037Z</time>
      </trkpt>
      <trkpt lat="47.691191" lon="7.790978">
        <ele>485.770443</ele>
        <time>2021-11-20T21:47:58.022Z</time>
      </trkpt>
      <trkpt lat="47.691292" lon="7.790910">
        <ele>486.866996</ele>
        <time>2021-11-20T21:48:03.781Z</time>
      </trkpt>
      <trkpt lat="47.691492" lon="7.790912">
        <ele>488.844809</ele>
        <time>2021-11-20T21:48:13.731Z</time>
      </trkpt>
      <trkpt lat="47.691895" lon="7.791101">
        <ele>493.023871</ele>
        <time>2021-11-20T21:48:34.787Z</time>
      </trkpt>
      <trkpt lat="47.692274" lon="7.791152">
        <ele>496.915083</ele>
        <time>2021-11-20T21:48:53.807Z</time>
      </trkpt>
      <trkpt lat="47.692357" lon="7.791249">
        <ele>498.037013</ele>
        <time>2021-11-20T21:48:59.171Z</time>
      </trkpt>
      <trkpt lat="47.692453" lon="7.791760">
        <ele>501.830909</ele>
        <time>2021-11-20T21:49:17.236Z</time>
      </trkpt>
      <trkpt lat="47.692577" lon="7.791966">
        <ele>503.807170</ele>
        <time>2021-11-20T21:49:26.893Z</time>
      </trkpt>
      <trkpt lat="47.692958" lon="7.792103">
        <ele>507.971798</ele>
        <time>2021-11-20T21:49:49.349Z</time>
      </trkpt>
      <trkpt lat="47.693130" lon="7.792245">
        <ele>510.062321</ele>
        <time>2021-11-20T21:50:01.565Z</time>
      </trkpt>
      <trkpt lat="47.693282" lon="7.792508">
        <ele>512.541204</ele>
        <time>2021-11-20T21:50:16.408Z</time>
      </trkpt>
      <trkpt lat="47.693458" lon="7.792642">
        <ele>514.825250</ele>
        <time>2021-11-20T21:50:29.733Z</time>
      </trkpt>
      <trkpt lat="47.693702" lon="7.792693">
        <ele>518.466493</ele>
        <time>2021-11-20T21:50:46.948Z</time>
      </trkpt>
      <trkpt lat="47.693919" lon="7.792585">
        <ele>521.848382</ele>
        <time>2021-11-20T21:51:03.441Z</time>
      </trkpt>
      <trkpt lat="47.694013" lon="7.792371">
        <ele>524.390124</ele>
        <time>2021-11-20T21:51:16.396Z</time>
      </trkpt>
      <trkpt lat="47.694064" lon="7.791324">
        <ele>534.831497</ele>
        <time>2021-11-20T21:52:10.284Z</time>
      </trkpt>
      <trkpt lat="47.693979" lon="7.790379">
        <ele>543.817650</ele>
        <time>2021-11-20T21:53:02.684Z</time>
      </trkpt>
      <trkpt lat="47.693998" lon="7.789148">
        <ele>554.355780</ele>
        <time>2021-11-20T21:53:58.464Z</time>
      </trkpt>
      <trkpt lat="47.693993" lon="7.788872">
        <ele>556.718746</ele>
        <time>2021-11-20T21:54:12.042Z</time>
      </trkpt>
      <trkpt lat="47.693980" lon="7.788494">
        <ele>559.958032</ele>
        <time>2021-11-20T21:54:26.089Z</time>
      </trkpt>
      <trkpt lat="47.694047" lon="7.788220">
        <ele>562.452976</ele>
        <time>2021-11-20T21:54:37.426Z</time>
      </trkpt>
      <trkpt lat="47.694456" lon="7.787953">
        <ele>566.203656</ele>
        <time>2021-11-20T21:54:59.260Z</time>
      </trkpt>
      <trkpt lat="47.694478" lon="7.787914">
        <ele>566.452802</ele>
        <time>2021-11-20T21:55:00.820Z</time>
      </trkpt>
      <trkpt lat="47.694417" lon="7.787167">
        <ele>570.137084</ele>
        <time>2021-11-20T21:55:25.590Z</time>
      </trkpt>
      <trkpt lat="47.694107" lon="7.785943">
        <ele>576.540278</ele>
        <time>2021-11-20T21:55:56.997Z</time>
      </trkpt>
      <trkpt lat="47.694144" lon="7.785593">
        <ele>578.173168</ele>
        <time>2021-11-20T21:56:06.859Z</time>
      </trkpt>
      <trkpt lat="47.694397" lon="7.785583">
        <ele>579.894644</ele>
        <time>2021-11-20T21:56:17.240Z</time>
      </trkpt>
      <trkpt lat="47.694834" lon="7.785803">
        <ele>583.033061</ele>
        <time>2021-11-20T21:56:35.129Z</time>
      </trkpt>
      <trkpt lat="47.695081" lon="7.786017">
        <ele>584.977914</ele>
        <time>2021-11-20T21:56:47.023Z</time>
      </trkpt>
      <trkpt lat="47.695162" lon="7.786020">
        <ele>585.529034</ele>
        <time>2021-11-20T21:56:50.485Z</time>
      </trkpt>
      <trkpt lat="47.695230" lon="7.785993">
        <ele>586.007792</ele>
        <time>2021-11-20T21:56:53.569Z</time>
      </trkpt>
      <trkpt lat="47.695490" lon="7.785615">
        <ele>588.482115</ele>
        <time>2021-11-20T21:57:10.345Z</time>
      </trkpt>
      <trkpt lat="47.695771" lon="7.785532">
        <ele>590.702798</ele>
        <time>2021-11-20T21:57:24.095Z</time>
      </trkpt>
      <trkpt lat="47.695906" lon="7.785323">
        <ele>592.271136</ele>
        <time>2021-11-20T21:57:34.875Z</time>
      </trkpt>
      <trkpt lat="47.696013" lon="7.785035">
        <ele>594.052187</ele>
        <time>2021-11-20T21:57:45.672Z</time>
      </trkpt>
      <trkpt lat="47.696342" lon="7.784550">
        <ele>597.780308</ele>
        <time>2021-11-20T21:58:08.986Z</time>
      </trkpt>
      <trkpt lat="47.696383" lon="7.784288">
        <ele>599.236635</ele>
        <time>2021-11-20T21:58:17.579Z</time>
      </trkpt>
      <trkpt lat="47.696366" lon="7.783565">
        <ele>603.153409</ele>
        <time>2021-11-20T21:58:39.243Z</time>
      </trkpt>
      <trkpt lat="47.696408" lon="7.783395">
        <ele>603.724278</ele>
        <time>2021-11-20T21:58:45.691Z</time>
      </trkpt>
      <trkpt lat="47.696486" lon="7.783198">
        <ele>604.261622</ele>
        <time>2021-11-20T21:58:50.870Z</time>
      </trkpt>
      <trkpt lat="47.696640" lon="7.782774">
        <ele>605.394327</ele>
        <time>2021-11-20T21:59:03.186Z</time>
      </trkpt>
      <trkpt lat="47.696767" lon="7.782153">
        <ele>606.920203</ele>
        <time>2021-11-20T21:59:16.386Z</time>
      </trkpt>
      <trkpt lat="47.696801" lon="7.781858">
        <ele>607.623840</ele>
        <time>2021-11-20T21:59:22.617Z</time>
      </trkpt>
      <trkpt lat="47.696836" lon="7.781652">
        <ele>608.123336</ele>
        <time>2021-11-20T21:59:25.320Z</time>
      </trkpt>
      <trkpt lat="47.696845" lon="7.781614">
        <ele>608.218043</ele>
        <time>2021-11-20T21:59:25.953Z</time>
      </trkpt>
      <trkpt lat="47.696884" lon="7.781453">
        <ele>608.620320</ele>
        <time>2021-11-20T21:59:29.571Z</time>
      </trkpt>
      <trkpt lat="47.696944" lon="7.781257">
        <ele>609.126536</ele>
        <time>2021-11-20T21:59:32.820Z</time>
      </trkpt>
      <trkpt lat="47.696990" lon="7.781173">
        <ele>609.381128</ele>
        <time>2021-11-20T21:59:34.015Z</time>
      </trkpt>
      <trkpt lat="47.697264" lon="7.780663">
        <ele>609.491794</ele>
        <time>2021-11-20T21:59:42.020Z</time>
      </trkpt>
      <trkpt lat="47.697658" lon="7.780323">
        <ele>609.230391</ele>
        <time>2021-11-20T21:59:51.051Z</time>
      </trkpt>
      <trkpt lat="47.697945" lon="7.780189">
        <ele>609.057797</ele>
        <time>2021-11-20T21:59:56.217Z</time>
      </trkpt>
      <trkpt lat="47.698154" lon="7.780123">
        <ele>608.935212</ele>
        <time>2021-11-20T21:59:59.745Z</time>
      </trkpt>
      <trkpt lat="47.698475" lon="7.779880">
        <ele>608.728525</ele>
        <time>2021-11-20T22:00:05.925Z</time>
      </trkpt>
      <trkpt lat="47.698524" lon="7.779813">
        <ele>608.690321</ele>
        <time>2021-11-20T22:00:07.055Z</time>
      </trkpt>
      <trkpt lat="47.698587" lon="7.779726">
        <ele>608.710789</ele>
        <time>2021-11-20T22:00:08.668Z</time>
      </trkpt>
      <trkpt lat="47.698642" lon="7.779650">
        <ele>608.820179</ele>
        <time>2021-11-20T22:00:10.080Z</time>
      </trkpt>
      <trkpt lat="47.698710" lon="7.779556">
        <ele>608.955450</ele>
        <time>2021-11-20T22:00:11.592Z</time>
      </trkpt>
      <trkpt lat="47.698808" lon="7.779539">
        <ele>609.099149</ele>
        <time>2021-11-20T22:00:13.248Z</time>
      </trkpt>
      <trkpt lat="47.698885" lon="7.779548">
        <ele>609.211640</ele>
        <time>2021-11-20T22:00:14.750Z</time>
      </trkpt>
      <trkpt lat="47.699125" lon="7.779997">
        <ele>609.773671</ele>
        <time>2021-11-20T22:00:22.240Z</time>
      </trkpt>
      <trkpt lat="47.699178" lon="7.780072">
        <ele>609.880268</ele>
        <time>2021-11-20T22:00:25.468Z</time>
      </trkpt>
      <trkpt lat="47.699303" lon="7.780284">
        <ele>610.156539</ele>
        <time>2021-11-20T22:00:29.635Z</time>
      </trkpt>
      <trkpt lat="47.699485" lon="7.780907">
        <ele>610.822252</ele>
        <time>2021-11-20T22:00:44.440Z</time>
      </trkpt>
      <trkpt lat="47.699567" lon="7.781770">
        <ele>612.601146</ele>
        <time>2021-11-20T22:01:04.058Z</time>
      </trkpt>
      <trkpt lat="47.699571" lon="7.781795">
        <ele>612.685104</ele>
        <time>2021-11-20T22:01:04.502Z</time>
      </trkpt>
      <trkpt lat="47.699595" lon="7.781921">
        <ele>613.112950</ele>
        <time>2021-11-20T22:01:07.199Z</time>
      </trkpt>
      <trkpt lat="47.699627" lon="7.782061">
        <ele>613.596029</ele>
        <time>2021-11-20T22:01:12.813Z</time>
      </trkpt>
      <trkpt lat="47.700372" lon="7.783081">
        <ele>618.514041</ele>
        <time>2021-11-20T22:01:52.547Z</time>
      </trkpt>
      <trkpt lat="47.700330" lon="7.783587">
        <ele>620.221466</ele>
        <time>2021-11-20T22:02:06.656Z</time>
      </trkpt>
      <trkpt lat="47.700262" lon="7.783863">
        <ele>621.420442</ele>
        <time>2021-11-20T22:02:18.752Z</time>
      </trkpt>
      <trkpt lat="47.700199" lon="7.784178">
        <ele>622.760982</ele>
        <time>2021-11-20T22:02:27.241Z</time>
      </trkpt>
      <trkpt lat="47.700180" lon="7.784393">
        <ele>623.645575</ele>
        <time>2021-11-20T22:02:34.901Z</time>
      </trkpt>
      <trkpt lat="47.700183" lon="7.784447">
        <ele>623.866610</ele>
        <time>2021-11-20T22:02:35.851Z</time>
      </trkpt>
      <trkpt lat="47.700199" lon="7.784739">
        <ele>625.061727</ele>
        <time>2021-11-20T22:02:44.444Z</time>
      </trkpt>
      <trkpt lat="47.700227" lon="7.784927">
        <ele>625.847203</ele>
        <time>2021-11-20T22:02:50.622Z</time>
      </trkpt>
      <trkpt lat="47.700237" lon="7.784995">
        <ele>626.131144</ele>
        <time>2021-11-20T22:02:51.741Z</time>
      </trkpt>
      <trkpt lat="47.700352" lon="7.784986">
        <ele>626.829169</ele>
        <time>2021-11-20T22:02:56.420Z</time>
      </trkpt>
      <trkpt lat="47.700744" lon="7.784880">
        <ele>629.244255</ele>
        <time>2021-11-20T22:03:14.218Z</time>
      </trkpt>
      <trkpt lat="47.700779" lon="7.784852">
        <ele>629.485197</ele>
        <time>2021-11-20T22:03:17.162Z</time>
      </trkpt>
      <trkpt lat="47.700812" lon="7.784743">
        <ele>629.972763</ele>
        <time>2021-11-20T22:03:22.339Z</time>
      </trkpt>
      <trkpt lat="47.700881" lon="7.784381">
        <ele>631.585768</ele>
        <time>2021-11-20T22:03:30.860Z</time>
      </trkpt>
      <trkpt lat="47.701216" lon="7.783890">
        <ele>634.813975</ele>
        <time>2021-11-20T22:03:52.954Z</time>
      </trkpt>
      <trkpt lat="47.701335" lon="7.783549">
        <ele>636.587482</ele>
        <time>2021-11-20T22:04:03.672Z</time>
      </trkpt>
      <trkpt lat="47.701368" lon="7.783411">
        <ele>637.263666</ele>
        <time>2021-11-20T22:04:10.605Z</time>
      </trkpt>
      <trkpt lat="47.701380" lon="7.783310">
        <ele>637.737203</ele>
        <time>2021-11-20T22:04:13.207Z</time>
      </trkpt>
      <trkpt lat="47.701377" lon="7.783226">
        <ele>638.125583</ele>
        <time>2021-11-20T22:04:15.323Z</time>
      </trkpt>
      <trkpt lat="47.701369" lon="7.782972">
        <ele>639.299605</ele>
        <time>2021-11-20T22:04:23.742Z</time>
      </trkpt>
      <trkpt lat="47.701237" lon="7.782362">
        <ele>642.258037</ele>
        <time>2021-11-20T22:04:43.745Z</time>
      </trkpt>
      <trkpt lat="47.701196" lon="7.780571">
        <ele>652.354260</ele>
        <time>2021-11-20T22:05:49.601Z</time>
      </trkpt>
      <trkpt lat="47.701247" lon="7.780305">
        <ele>653.951002</ele>
        <time>2021-11-20T22:05:58.237Z</time>
      </trkpt>
      <trkpt lat="47.701342" lon="7.780162">
        <ele>655.111017</ele>
        <time>2021-11-20T22:06:07.664Z</time>
      </trkpt>
      <trkpt lat="47.701637" lon="7.779988">
        <ele>657.833658</ele>
        <time>2021-11-20T22:06:24.902Z</time>
      </trkpt>
      <trkpt lat="47.701726" lon="7.779970">
        <ele>658.604155</ele>
        <time>2021-11-20T22:06:31.987Z</time>
      </trkpt>
      <trkpt lat="47.702101" lon="7.780072">
        <ele>662.017560</ele>
        <time>2021-11-20T22:06:53.014Z</time>
      </trkpt>
      <trkpt lat="47.702259" lon="7.780163">
        <ele>663.536359</ele>
        <time>2021-11-20T22:06:59.978Z</time>
      </trkpt>
      <trkpt lat="47.702323" lon="7.780178">
        <ele>664.117078</ele>
        <time>2021-11-20T22:07:04.354Z</time>
      </trkpt>
      <trkpt lat="47.702403" lon="7.780229">
        <ele>664.897315</ele>
        <time>2021-11-20T22:07:10.850Z</time>
      </trkpt>
      <trkpt lat="47.703200" lon="7.780360">
        <ele>672.084329</ele>
        <time>2021-11-20T22:07:56.216Z</time>
      </trkpt>
      <trkpt lat="47.703463" lon="7.780169">
        <ele>674.708043</ele>
        <time>2021-11-20T22:08:12.176Z</time>
      </trkpt>
      <trkpt lat="47.703606" lon="7.779919">
        <ele>676.801962</ele>
        <time>2021-11-20T22:08:23.007Z</time>
      </trkpt>
      <trkpt lat="47.703620" lon="7.779806">
        <ele>677.537282</ele>
        <time>2021-11-20T22:08:27.854Z</time>
      </trkpt>
      <trkpt lat="47.703537" lon="7.778998">
        <ele>682.768144</ele>
        <time>2021-11-20T22:08:56.558Z</time>
      </trkpt>
      <trkpt lat="47.703561" lon="7.778786">
        <ele>684.143946</ele>
        <time>2021-11-20T22:09:04.796Z</time>
      </trkpt>
      <trkpt lat="47.703633" lon="7.778652">
        <ele>685.241318</ele>
        <time>2021-11-20T22:09:11.653Z</time>
      </trkpt>
      <trkpt lat="47.703803" lon="7.778607">
        <ele>686.883418</ele>
        <time>2021-11-20T22:09:22.350Z</time>
      </trkpt>
      <trkpt lat="47.704882" lon="7.779266">
        <ele>697.305741</ele>
        <time>2021-11-20T22:10:38.689Z</time>
      </trkpt>
      <trkpt lat="47.705185" lon="7.779390">
        <ele>699.963735</ele>
        <time>2021-11-20T22:10:58.404Z</time>
      </trkpt>
      <trkpt lat="47.705483" lon="7.779457">
        <ele>702.512722</ele>
        <time>2021-11-20T22:11:16.055Z</time>
      </trkpt>
      <trkpt lat="47.705864" lon="7.779393">
        <ele>705.755512</ele>
        <time>2021-11-20T22:11:33.161Z</time>
      </trkpt>
      <trkpt lat="47.706167" lon="7.779414">
        <ele>706.707873</ele>
        <time>2021-11-20T22:11:44.583Z</time>
      </trkpt>
      <trkpt lat="47.706622" lon="7.779645">
        <ele>705.310046</ele>
        <time>2021-11-20T22:11:53.068Z</time>
      </trkpt>
      <trkpt lat="47.706835" lon="7.779679">
        <ele>704.687258</ele>
        <time>2021-11-20T22:11:58.188Z</time>
      </trkpt>
      <trkpt lat="47.707164" lon="7.779461">
        <ele>703.640028</ele>
        <time>2021-11-20T22:12:03.100Z</time>
      </trkpt>
      <trkpt lat="47.707188" lon="7.779421">
        <ele>703.535188</ele>
        <time>2021-11-20T22:12:03.551Z</time>
      </trkpt>
      <trkpt lat="47.707216" lon="7.779325">
        <ele>703.330502</ele>
        <time>2021-11-20T22:12:04.363Z</time>
      </trkpt>
      <trkpt lat="47.707375" lon="7.778429">
        <ele>700.984258</ele>
        <time>2021-11-20T22:12:12.455Z</time>
      </trkpt>
      <trkpt lat="47.707656" lon="7.777856">
        <ele>697.617627</ele>
        <time>2021-11-20T22:12:18.264Z</time>
      </trkpt>
      <trkpt lat="47.707959" lon="7.777497">
        <ele>694.883204</ele>
        <time>2021-11-20T22:12:23.043Z</time>
      </trkpt>
      <trkpt lat="47.708005" lon="7.777449">
        <ele>694.486588</ele>
        <time>2021-11-20T22:12:23.818Z</time>
      </trkpt>
      <trkpt lat="47.708316" lon="7.777132">
        <ele>691.825482</ele>
        <time>2021-11-20T22:12:28.806Z</time>
      </trkpt>
      <trkpt lat="47.708539" lon="7.776943">
        <ele>690.014010</ele>
        <time>2021-11-20T22:12:32.257Z</time>
      </trkpt>
      <trkpt lat="47.708637" lon="7.776787">
        <ele>689.144637</ele>
        <time>2021-11-20T22:12:34.250Z</time>
      </trkpt>
      <trkpt lat="47.708793" lon="7.776065">
        <ele>688.147723</ele>
        <time>2021-11-20T22:12:41.432Z</time>
      </trkpt>
      <trkpt lat="47.708969" lon="7.775711">
        <ele>687.569087</ele>
        <time>2021-11-20T22:12:46.204Z</time>
      </trkpt>
      <trkpt lat="47.709008" lon="7.775122">
        <ele>686.791018</ele>
        <time>2021-11-20T22:12:53.199Z</time>
      </trkpt>
      <trkpt lat="47.709105" lon="7.774951">
        <ele>686.496992</ele>
        <time>2021-11-20T22:12:56.013Z</time>
      </trkpt>
      <trkpt lat="47.709263" lon="7.774850">
        <ele>686.160959</ele>
        <time>2021-11-20T22:12:59.539Z</time>
      </trkpt>
      <trkpt lat="47.709477" lon="7.774812">
        <ele>685.739889</ele>
        <time>2021-11-20T22:13:04.089Z</time>
      </trkpt>
      <trkpt lat="47.709762" lon="7.774915">
        <ele>684.957220</ele>
        <time>2021-11-20T22:13:10.462Z</time>
      </trkpt>
      <trkpt lat="47.710099" lon="7.775135">
        <ele>683.947556</ele>
        <time>2021-11-20T22:13:16.233Z</time>
      </trkpt>
      <trkpt lat="47.710322" lon="7.775177">
        <ele>683.330963</ele>
        <time>2021-11-20T22:13:19.538Z</time>
      </trkpt>
      <trkpt lat="47.711031" lon="7.775005">
        <ele>681.360399</ele>
        <time>2021-11-20T22:13:29.926Z</time>
      </trkpt>
      <trkpt lat="47.711239" lon="7.774801">
        <ele>680.587760</ele>
        <time>2021-11-20T22:13:33.478Z</time>
      </trkpt>
      <trkpt lat="47.711283" lon="7.774725">
        <ele>680.183441</ele>
        <time>2021-11-20T22:13:34.306Z</time>
      </trkpt>
      <trkpt lat="47.711327" lon="7.774552">
        <ele>679.437610</ele>
        <time>2021-11-20T22:13:36.101Z</time>
      </trkpt>
      <trkpt lat="47.711333" lon="7.774466">
        <ele>679.088939</ele>
        <time>2021-11-20T22:13:36.845Z</time>
      </trkpt>
      <trkpt lat="47.711464" lon="7.774407">
        <ele>678.268557</ele>
        <time>2021-11-20T22:13:38.653Z</time>
      </trkpt>
      <trkpt lat="47.711930" lon="7.774081">
        <ele>675.181733</ele>
        <time>2021-11-20T22:13:45.422Z</time>
      </trkpt>
      <trkpt lat="47.712046" lon="7.774031">
        <ele>674.457861</ele>
        <time>2021-11-20T22:13:46.980Z</time>
      </trkpt>
      <trkpt lat="47.712168" lon="7.774078">
        <ele>673.702513</ele>
        <time>2021-11-20T22:13:48.551Z</time>
      </trkpt>
      <trkpt lat="47.712286" lon="7.774181">
        <ele>672.882348</ele>
        <time>2021-11-20T22:13:50.388Z</time>
      </trkpt>
      <trkpt lat="47.712376" lon="7.774269">
        <ele>672.236684</ele>
        <time>2021-11-20T22:13:51.737Z</time>
      </trkpt>
      <trkpt lat="47.712647" lon="7.774491">
        <ele>670.382114</ele>
        <time>2021-11-20T22:13:55.610Z</time>
      </trkpt>
      <trkpt lat="47.713430" lon="7.775192">
        <ele>667.864789</ele>
        <time>2021-11-20T22:14:07.946Z</time>
      </trkpt>
      <trkpt lat="47.713608" lon="7.775269">
        <ele>667.402826</ele>
        <time>2021-11-20T22:14:10.644Z</time>
      </trkpt>
      <trkpt lat="47.713668" lon="7.775286">
        <ele>667.250620</ele>
        <time>2021-11-20T22:14:11.429Z</time>
      </trkpt>
      <trkpt lat="47.713843" lon="7.775322">
        <ele>666.810381</ele>
        <time>2021-11-20T22:14:15.953Z</time>
      </trkpt>
      <trkpt lat="47.713932" lon="7.775337">
        <ele>666.587181</ele>
        <time>2021-11-20T22:14:17.395Z</time>
      </trkpt>
      <trkpt lat="47.713977" lon="7.775345">
        <ele>666.474247</ele>
        <time>2021-11-20T22:14:18.114Z</time>
      </trkpt>
      <trkpt lat="47.714158" lon="7.775376">
        <ele>666.020230</ele>
        <time>2021-11-20T22:14:23.445Z</time>
      </trkpt>
      <trkpt lat="47.714374" lon="7.775352">
        <ele>665.515923</ele>
        <time>2021-11-20T22:14:27.919Z</time>
      </trkpt>
      <trkpt lat="47.714479" lon="7.775293">
        <ele>666.265674</ele>
        <time>2021-11-20T22:14:33.057Z</time>
      </trkpt>
      <trkpt lat="47.714599" lon="7.775218">
        <ele>667.135148</ele>
        <time>2021-11-20T22:14:37.261Z</time>
      </trkpt>
      <trkpt lat="47.714709" lon="7.775124">
        <ele>667.982629</ele>
        <time>2021-11-20T22:14:40.258Z</time>
      </trkpt>
      <trkpt lat="47.714661" lon="7.774975">
        <ele>668.725006</ele>
        <time>2021-11-20T22:14:46.463Z</time>
      </trkpt>
      <trkpt lat="47.714572" lon="7.774613">
        <ele>670.456986</ele>
        <time>2021-11-20T22:14:55.566Z</time>
      </trkpt>
      <trkpt lat="47.714325" lon="7.773966">
        <ele>673.799944</ele>
        <time>2021-11-20T22:15:22.528Z</time>
      </trkpt>
      <trkpt lat="47.713713" lon="7.772531">
        <ele>681.835920</ele>
        <time>2021-11-20T22:16:32.143Z</time>
      </trkpt>
      <trkpt lat="47.713013" lon="7.771093">
        <ele>690.625418</ele>
        <time>2021-11-20T22:17:30.054Z</time>
      </trkpt>
      <trkpt lat="47.712784" lon="7.770624">
        <ele>690.499633</ele>
        <time>2021-11-20T22:17:40.909Z</time>
      </trkpt>
      <trkpt lat="47.712674" lon="7.770495">
        <ele>690.409015</ele>
        <time>2021-11-20T22:17:43.677Z</time>
      </trkpt>
      <trkpt lat="47.712515" lon="7.770367">
        <ele>690.292071</ele>
        <time>2021-11-20T22:17:48.192Z</time>
      </trkpt>
      <trkpt lat="47.712441" lon="7.770288">
        <ele>690.233147</ele>
        <time>2021-11-20T22:17:49.488Z</time>
      </trkpt>
      <trkpt lat="47.712373" lon="7.770214">
        <ele>690.178642</ele>
        <time>2021-11-20T22:17:51.187Z</time>
      </trkpt>
      <trkpt lat="47.712369" lon="7.770124">
        <ele>690.139393</ele>
        <time>2021-11-20T22:17:52.285Z</time>
      </trkpt>
      <trkpt lat="47.712377" lon="7.770047">
        <ele>690.105490</ele>
        <time>2021-11-20T22:17:53.563Z</time>
      </trkpt>
      <trkpt lat="47.712406" lon="7.769971">
        <ele>690.067471</ele>
        <time>2021-11-20T22:17:54.636Z</time>
      </trkpt>
      <trkpt lat="47.712317" lon="7.769895">
        <ele>690.001089</ele>
        <time>2021-11-20T22:17:55.610Z</time>
      </trkpt>
      <trkpt lat="47.711976" lon="7.769448">
        <ele>689.707035</ele>
        <time>2021-11-20T22:18:00.158Z</time>
      </trkpt>
      <trkpt lat="47.711641" lon="7.768676">
        <ele>688.778318</ele>
        <time>2021-11-20T22:18:06.140Z</time>
      </trkpt>
      <trkpt lat="47.711558" lon="7.768253">
        <ele>688.212422</ele>
        <time>2021-11-20T22:18:09.144Z</time>
      </trkpt>
      <trkpt lat="47.711522" lon="7.767707">
        <ele>687.507822</ele>
        <time>2021-11-20T22:18:13.096Z</time>
      </trkpt>
      <trkpt lat="47.711535" lon="7.767521">
        <ele>687.267653</ele>
        <time>2021-11-20T22:18:14.449Z</time>
      </trkpt>
      <trkpt lat="47.711594" lon="7.766979">
        <ele>686.562499</ele>
        <time>2021-11-20T22:18:19.650Z</time>
      </trkpt>
      <trkpt lat="47.711544" lon="7.766597">
        <ele>686.272513</ele>
        <time>2021-11-20T22:18:24.426Z</time>
      </trkpt>
      <trkpt lat="47.711280" lon="7.766040">
        <ele>687.622117</ele>
        <time>2021-11-20T22:18:32.807Z</time>
      </trkpt>
      <trkpt lat="47.710793" lon="7.765513">
        <ele>689.395619</ele>
        <time>2021-11-20T22:18:49.068Z</time>
      </trkpt>
      <trkpt lat="47.709779" lon="7.764609">
        <ele>693.091972</ele>
        <time>2021-11-20T22:19:29.415Z</time>
      </trkpt>
      <trkpt lat="47.709606" lon="7.764460">
        <ele>693.768839</ele>
        <time>2021-11-20T22:19:36.028Z</time>
      </trkpt>
      <trkpt lat="47.709431" lon="7.764294">
        <ele>694.471626</ele>
        <time>2021-11-20T22:19:41.747Z</time>
      </trkpt>
      <trkpt lat="47.709325" lon="7.764019">
        <ele>695.193523</ele>
        <time>2021-11-20T22:19:48.087Z</time>
      </trkpt>
      <trkpt lat="47.709385" lon="7.763694">
        <ele>695.961174</ele>
        <time>2021-11-20T22:19:53.052Z</time>
      </trkpt>
      <trkpt lat="47.709432" lon="7.763572">
        <ele>696.281391</ele>
        <time>2021-11-20T22:19:56.783Z</time>
      </trkpt>
      <trkpt lat="47.709462" lon="7.763486">
        <ele>696.502043</ele>
        <time>2021-11-20T22:19:57.854Z</time>
      </trkpt>
      <trkpt lat="47.709753" lon="7.762866">
        <ele>697.697319</ele>
        <time>2021-11-20T22:20:08.147Z</time>
      </trkpt>
      <trkpt lat="47.710158" lon="7.762372">
        <ele>698.126935</ele>
        <time>2021-11-20T22:20:20.358Z</time>
      </trkpt>
      <trkpt lat="47.710244" lon="7.762179">
        <ele>698.254653</ele>
        <time>2021-11-20T22:20:21.963Z</time>
      </trkpt>
      <trkpt lat="47.710263" lon="7.762018">
        <ele>698.344839</ele>
        <time>2021-11-20T22:20:24.246Z</time>
      </trkpt>
      <trkpt lat="47.710195" lon="7.761616">
        <ele>698.573539</ele>
        <time>2021-11-20T22:20:28.146Z</time>
      </trkpt>
      <trkpt lat="47.710335" lon="7.761409">
        <ele>698.735471</ele>
        <time>2021-11-20T22:20:31.502Z</time>
      </trkpt>
      <trkpt lat="47.710427" lon="7.761335">
        <ele>698.821248</ele>
        <time>2021-11-20T22:20:32.701Z</time>
      </trkpt>
      <trkpt lat="47.710553" lon="7.761250">
        <ele>698.934709</ele>
        <time>2021-11-20T22:20:35.373Z</time>
      </trkpt>
      <trkpt lat="47.710690" lon="7.761172">
        <ele>699.111947</ele>
        <time>2021-11-20T22:20:38.119Z</time>
      </trkpt>
      <trkpt lat="47.711202" lon="7.760857">
        <ele>700.071774</ele>
        <time>2021-11-20T22:20:48.972Z</time>
      </trkpt>
      <trkpt lat="47.711645" lon="7.760532">
        <ele>700.927496</ele>
        <time>2021-11-20T22:20:59.719Z</time>
      </trkpt>
      <trkpt lat="47.711708" lon="7.760492">
        <ele>701.046160</ele>
        <time>2021-11-20T22:21:01.312Z</time>
      </trkpt>
      <trkpt lat="47.712488" lon="7.760312">
        <ele>701.809827</ele>
        <time>2021-11-20T22:21:22.510Z</time>
      </trkpt>
      <trkpt lat="47.712549" lon="7.760281">
        <ele>701.692350</ele>
        <time>2021-11-20T22:21:24.501Z</time>
      </trkpt>
      <trkpt lat="47.712622" lon="7.760244">
        <ele>701.551803</ele>
        <time>2021-11-20T22:21:25.508Z</time>
      </trkpt>
      <trkpt lat="47.712905" lon="7.760024">
        <ele>700.969818</ele>
        <time>2021-11-20T22:21:31.998Z</time>
      </trkpt>
      <trkpt lat="47.712940" lon="7.760005">
        <ele>700.901918</ele>
        <time>2021-11-20T22:21:32.349Z</time>
      </trkpt>
      <trkpt lat="47.713023" lon="7.759961">
        <ele>700.741337</ele>
        <time>2021-11-20T22:21:33.306Z</time>
      </trkpt>
      <trkpt lat="47.713181" lon="7.759935">
        <ele>700.451661</ele>
        <time>2021-11-20T22:21:36.140Z</time>
      </trkpt>
      <trkpt lat="47.713444" lon="7.759983">
        <ele>699.968807</ele>
        <time>2021-11-20T22:21:38.847Z</time>
      </trkpt>
      <trkpt lat="47.713621" lon="7.759971">
        <ele>699.645932</ele>
        <time>2021-11-20T22:21:40.850Z</time>
      </trkpt>
      <trkpt lat="47.713814" lon="7.759841">
        <ele>699.259804</ele>
        <time>2021-11-20T22:21:42.731Z</time>
      </trkpt>
      <trkpt lat="47.714188" lon="7.759554">
        <ele>697.403634</ele>
        <time>2021-11-20T22:21:46.561Z</time>
      </trkpt>
      <trkpt lat="47.714441" lon="7.759374">
        <ele>695.296789</ele>
        <time>2021-11-20T22:21:49.050Z</time>
      </trkpt>
      <trkpt lat="47.714548" lon="7.759271">
        <ele>694.339245</ele>
        <time>2021-11-20T22:21:50.220Z</time>
      </trkpt>
      <trkpt lat="47.714639" lon="7.759072">
        <ele>693.123260</ele>
        <time>2021-11-20T22:21:51.687Z</time>
      </trkpt>
      <trkpt lat="47.714734" lon="7.758591">
        <ele>690.589852</ele>
        <time>2021-11-20T22:21:54.697Z</time>
      </trkpt>
      <trkpt lat="47.714751" lon="7.758508">
        <ele>690.151389</ele>
        <time>2021-11-20T22:21:55.179Z</time>
      </trkpt>
      <trkpt lat="47.714788" lon="7.758325">
        <ele>689.185705</ele>
        <time>2021-11-20T22:21:56.303Z</time>
      </trkpt>
      <trkpt lat="47.714875" lon="7.757966">
        <ele>687.257326</ele>
        <time>2021-11-20T22:21:58.552Z</time>
      </trkpt>
      <trkpt lat="47.715134" lon="7.757431">
        <ele>684.345269</ele>
        <time>2021-11-20T22:22:02.436Z</time>
      </trkpt>
      <trkpt lat="47.715558" lon="7.756715">
        <ele>680.961606</ele>
        <time>2021-11-20T22:22:08.325Z</time>
      </trkpt>
      <trkpt lat="47.715558" lon="7.756714">
        <ele>680.958059</ele>
        <time>2021-11-20T22:22:08.334Z</time>
      </trkpt>
      <trkpt lat="47.715814" lon="7.756441">
        <ele>679.296803</ele>
        <time>2021-11-20T22:22:11.514Z</time>
      </trkpt>
      <trkpt lat="47.716056" lon="7.756240">
        <ele>677.835136</ele>
        <time>2021-11-20T22:22:14.443Z</time>
      </trkpt>
      <trkpt lat="47.716156" lon="7.756169">
        <ele>677.250813</ele>
        <time>2021-11-20T22:22:15.647Z</time>
      </trkpt>
      <trkpt lat="47.716605" lon="7.755979">
        <ele>674.826875</ele>
        <time>2021-11-20T22:22:20.037Z</time>
      </trkpt>
      <trkpt lat="47.717361" lon="7.755430">
        <ele>670.547679</ele>
        <time>2021-11-20T22:22:28.164Z</time>
      </trkpt>
      <trkpt lat="47.717436" lon="7.755274">
        <ele>669.891625</ele>
        <time>2021-11-20T22:22:29.478Z</time>
      </trkpt>
      <trkpt lat="47.717428" lon="7.755242">
        <ele>669.774818</ele>
        <time>2021-11-20T22:22:29.668Z</time>
      </trkpt>
      <trkpt lat="47.717424" lon="7.755224">
        <ele>669.709956</ele>
        <time>2021-11-20T22:22:29.773Z</time>
      </trkpt>
      <trkpt lat="47.717292" lon="7.755166">
        <ele>669.009916</ele>
        <time>2021-11-20T22:22:31.134Z</time>
      </trkpt>
      <trkpt lat="47.716511" lon="7.755625">
        <ele>664.262491</ele>
        <time>2021-11-20T22:22:38.754Z</time>
      </trkpt>
      <trkpt lat="47.715960" lon="7.755756">
        <ele>660.735832</ele>
        <time>2021-11-20T22:22:43.658Z</time>
      </trkpt>
      <trkpt lat="47.715445" lon="7.755865">
        <ele>657.448131</ele>
        <time>2021-11-20T22:22:48.482Z</time>
      </trkpt>
      <trkpt lat="47.715339" lon="7.755887">
        <ele>656.771698</ele>
        <time>2021-11-20T22:22:49.434Z</time>
      </trkpt>
      <trkpt lat="47.715009" lon="7.755979">
        <ele>654.856461</ele>
        <time>2021-11-20T22:22:52.798Z</time>
      </trkpt>
      <trkpt lat="47.714232" lon="7.755990">
        <ele>651.431344</ele>
        <time>2021-11-20T22:23:00.180Z</time>
      </trkpt>
      <trkpt lat="47.714158" lon="7.756030">
        <ele>651.084255</ele>
        <time>2021-11-20T22:23:00.912Z</time>
      </trkpt>
      <trkpt lat="47.714103" lon="7.756097">
        <ele>650.770790</ele>
        <time>2021-11-20T22:23:03.704Z</time>
      </trkpt>
      <trkpt lat="47.713944" lon="7.756392">
        <ele>649.649776</ele>
        <time>2021-11-20T22:23:05.951Z</time>
      </trkpt>
      <trkpt lat="47.713857" lon="7.756496">
        <ele>649.157636</ele>
        <time>2021-11-20T22:23:07.808Z</time>
      </trkpt>
      <trkpt lat="47.713811" lon="7.756520">
        <ele>648.942741</ele>
        <time>2021-11-20T22:23:08.308Z</time>
      </trkpt>
      <trkpt lat="47.713737" lon="7.756527">
        <ele>648.615894</ele>
        <time>2021-11-20T22:23:09.047Z</time>
      </trkpt>
      <trkpt lat="47.713689" lon="7.756505">
        <ele>648.394481</ele>
        <time>2021-11-20T22:23:09.460Z</time>
      </trkpt>
      <trkpt lat="47.713510" lon="7.756211">
        <ele>647.290696</ele>
        <time>2021-11-20T22:23:11.997Z</time>
      </trkpt>
      <trkpt lat="47.713197" lon="7.755119">
        <ele>645.133992</ele>
        <time>2021-11-20T22:23:20.355Z</time>
      </trkpt>
      <trkpt lat="47.713144" lon="7.754922">
        <ele>644.748488</ele>
        <time>2021-11-20T22:23:21.688Z</time>
      </trkpt>
      <trkpt lat="47.713125" lon="7.754853">
        <ele>644.613021</ele>
        <time>2021-11-20T22:23:22.380Z</time>
      </trkpt>
      <trkpt lat="47.713049" lon="7.754578">
        <ele>644.072836</ele>
        <time>2021-11-20T22:23:24.508Z</time>
      </trkpt>
      <trkpt lat="47.713010" lon="7.754423">
        <ele>643.772151</ele>
        <time>2021-11-20T22:23:25.547Z</time>
      </trkpt>
      <trkpt lat="47.712975" lon="7.754237">
        <ele>643.421218</ele>
        <time>2021-11-20T22:23:26.802Z</time>
      </trkpt>
      <trkpt lat="47.712900" lon="7.754244">
        <ele>643.218282</ele>
        <time>2021-11-20T22:23:29.803Z</time>
      </trkpt>
      <trkpt lat="47.712476" lon="7.753983">
        <ele>642.874547</ele>
        <time>2021-11-20T22:23:35.160Z</time>
      </trkpt>
      <trkpt lat="47.712263" lon="7.753775">
        <ele>643.270265</ele>
        <time>2021-11-20T22:23:39.407Z</time>
      </trkpt>
      <trkpt lat="47.712019" lon="7.753447">
        <ele>643.781093</ele>
        <time>2021-11-20T22:23:43.913Z</time>
      </trkpt>
      <trkpt lat="47.711847" lon="7.753168">
        <ele>644.176413</ele>
        <time>2021-11-20T22:23:51.198Z</time>
      </trkpt>
      <trkpt lat="47.711741" lon="7.752984">
        <ele>644.429473</ele>
        <time>2021-11-20T22:23:57.117Z</time>
      </trkpt>
      <trkpt lat="47.711669" lon="7.752890">
        <ele>644.578272</ele>
        <time>2021-11-20T22:24:00.583Z</time>
      </trkpt>
      <trkpt lat="47.711155" lon="7.752528">
        <ele>645.354979</ele>
        <time>2021-11-20T22:24:15.995Z</time>
      </trkpt>
      <trkpt lat="47.710511" lon="7.751627">
        <ele>645.521680</ele>
        <time>2021-11-20T22:24:33.442Z</time>
      </trkpt>
      <trkpt lat="47.709044" lon="7.750156">
        <ele>643.086531</ele>
        <time>2021-11-20T22:24:53.414Z</time>
      </trkpt>
      <trkpt lat="47.708929" lon="7.750070">
        <ele>642.728981</ele>
        <time>2021-11-20T22:24:54.720Z</time>
      </trkpt>
      <trkpt lat="47.708576" lon="7.749984">
        <ele>641.735501</ele>
        <time>2021-11-20T22:24:58.244Z</time>
      </trkpt>
      <trkpt lat="47.708305" lon="7.749635">
        <ele>640.739560</ele>
        <time>2021-11-20T22:25:01.741Z</time>
      </trkpt>
      <trkpt lat="47.707779" lon="7.749483">
        <ele>638.275692</ele>
        <time>2021-11-20T22:25:06.867Z</time>
      </trkpt>
      <trkpt lat="47.707471" lon="7.749320">
        <ele>636.749232</ele>
        <time>2021-11-20T22:25:09.988Z</time>
      </trkpt>
      <trkpt lat="47.707351" lon="7.748939">
        <ele>635.427607</ele>
        <time>2021-11-20T22:25:12.652Z</time>
      </trkpt>
      <trkpt lat="47.707482" lon="7.748411">
        <ele>633.659615</ele>
        <time>2021-11-20T22:25:16.172Z</time>
      </trkpt>
      <trkpt lat="47.707466" lon="7.748182">
        <ele>632.936293</ele>
        <time>2021-11-20T22:25:17.619Z</time>
      </trkpt>
      <trkpt lat="47.707380" lon="7.748055">
        <ele>632.370239</ele>
        <time>2021-11-20T22:25:18.792Z</time>
      </trkpt>
      <trkpt lat="47.706712" lon="7.747653">
        <ele>627.524404</ele>
        <time>2021-11-20T22:25:25.910Z</time>
      </trkpt>
      <trkpt lat="47.706422" lon="7.747032">
        <ele>624.077557</ele>
        <time>2021-11-20T22:25:30.440Z</time>
      </trkpt>
      <trkpt lat="47.705919" lon="7.746612">
        <ele>620.167812</ele>
        <time>2021-11-20T22:25:35.479Z</time>
      </trkpt>
      <trkpt lat="47.705677" lon="7.746246">
        <ele>616.598324</ele>
        <time>2021-11-20T22:25:38.461Z</time>
      </trkpt>
      <trkpt lat="47.705587" lon="7.745924">
        <ele>614.147074</ele>
        <time>2021-11-20T22:25:40.488Z</time>
      </trkpt>
      <trkpt lat="47.705553" lon="7.745607">
        <ele>611.890342</ele>
        <time>2021-11-20T22:25:42.302Z</time>
      </trkpt>
      <trkpt lat="47.705460" lon="7.745079">
        <ele>608.053296</ele>
        <time>2021-11-20T22:25:45.448Z</time>
      </trkpt>
      <trkpt lat="47.705268" lon="7.744654">
        <ele>604.454561</ele>
        <time>2021-11-20T22:25:48.382Z</time>
      </trkpt>
      <trkpt lat="47.705108" lon="7.744521">
        <ele>602.539271</ele>
        <time>2021-11-20T22:25:49.974Z</time>
      </trkpt>
      <trkpt lat="47.704856" lon="7.744524">
        <ele>600.266152</ele>
        <time>2021-11-20T22:25:52.102Z</time>
      </trkpt>
      <trkpt lat="47.704616" lon="7.744630">
        <ele>598.321963</ele>
        <time>2021-11-20T22:25:54.228Z</time>
      </trkpt>
      <trkpt lat="47.704406" lon="7.744599">
        <ele>596.683274</ele>
        <time>2021-11-20T22:25:56.082Z</time>
      </trkpt>
      <trkpt lat="47.704137" lon="7.744355">
        <ele>594.236070</ele>
        <time>2021-11-20T22:25:58.925Z</time>
      </trkpt>
      <trkpt lat="47.703795" lon="7.743814">
        <ele>590.357327</ele>
        <time>2021-11-20T22:26:03.452Z</time>
      </trkpt>
      <trkpt lat="47.703527" lon="7.743684">
        <ele>588.168217</ele>
        <time>2021-11-20T22:26:06.041Z</time>
      </trkpt>
      <trkpt lat="47.702991" lon="7.743557">
        <ele>584.302095</ele>
        <time>2021-11-20T22:26:11.083Z</time>
      </trkpt>
      <trkpt lat="47.702671" lon="7.743108">
        <ele>581.236196</ele>
        <time>2021-11-20T22:26:15.119Z</time>
      </trkpt>
      <trkpt lat="47.702318" lon="7.742478">
        <ele>577.393057</ele>
        <time>2021-11-20T22:26:20.077Z</time>
      </trkpt>
      <trkpt lat="47.701796" lon="7.741974">
        <ele>571.840085</ele>
        <time>2021-11-20T22:26:25.534Z</time>
      </trkpt>
      <trkpt lat="47.701499" lon="7.741494">
        <ele>566.664173</ele>
        <time>2021-11-20T22:26:29.305Z</time>
      </trkpt>
      <trkpt lat="47.701330" lon="7.740846">
        <ele>561.147579</ele>
        <time>2021-11-20T22:26:33.266Z</time>
      </trkpt>
      <trkpt lat="47.701140" lon="7.740394">
        <ele>556.917184</ele>
        <time>2021-11-20T22:26:36.270Z</time>
      </trkpt>
      <trkpt lat="47.700908" lon="7.740000">
        <ele>552.611796</ele>
        <time>2021-11-20T22:26:39.199Z</time>
      </trkpt>
      <trkpt lat="47.700601" lon="7.739641">
        <ele>547.177654</ele>
        <time>2021-11-20T22:26:42.437Z</time>
      </trkpt>
      <trkpt lat="47.700325" lon="7.739422">
        <ele>542.825439</ele>
        <time>2021-11-20T22:26:45.026Z</time>
      </trkpt>
      <trkpt lat="47.699587" lon="7.739406">
        <ele>532.558926</ele>
        <time>2021-11-20T22:26:51.173Z</time>
      </trkpt>
      <trkpt lat="47.699312" lon="7.739506">
        <ele>528.620846</ele>
        <time>2021-11-20T22:26:53.557Z</time>
      </trkpt>
      <trkpt lat="47.699065" lon="7.739769">
        <ele>526.836100</ele>
        <time>2021-11-20T22:26:56.165Z</time>
      </trkpt>
      <trkpt lat="47.698544" lon="7.740753">
        <ele>521.957462</ele>
        <time>2021-11-20T22:27:03.854Z</time>
      </trkpt>
      <trkpt lat="47.698424" lon="7.741090">
        <ele>520.471809</ele>
        <time>2021-11-20T22:27:06.523Z</time>
      </trkpt>
      <trkpt lat="47.698438" lon="7.741464">
        <ele>519.012191</ele>
        <time>2021-11-20T22:27:09.539Z</time>
      </trkpt>
      <trkpt lat="47.698492" lon="7.741684">
        <ele>518.117310</ele>
        <time>2021-11-20T22:27:11.397Z</time>
      </trkpt>
      <trkpt lat="47.698877" lon="7.742443">
        <ele>515.434291</ele>
        <time>2021-11-20T22:27:19.521Z</time>
      </trkpt>
      <trkpt lat="47.698930" lon="7.742636">
        <ele>514.845854</ele>
        <time>2021-11-20T22:27:21.071Z</time>
      </trkpt>
      <trkpt lat="47.698913" lon="7.742735">
        <ele>514.557429</ele>
        <time>2021-11-20T22:27:21.937Z</time>
      </trkpt>
      <trkpt lat="47.698831" lon="7.742825">
        <ele>514.129825</ele>
        <time>2021-11-20T22:27:23.186Z</time>
      </trkpt>
      <trkpt lat="47.698673" lon="7.742874">
        <ele>513.452827</ele>
        <time>2021-11-20T22:27:24.900Z</time>
      </trkpt>
      <trkpt lat="47.698468" lon="7.742827">
        <ele>512.582796</ele>
        <time>2021-11-20T22:27:26.981Z</time>
      </trkpt>
      <trkpt lat="47.697304" lon="7.742294">
        <ele>500.868045</ele>
        <time>2021-11-20T22:27:37.418Z</time>
      </trkpt>
      <trkpt lat="47.697102" lon="7.742280">
        <ele>498.238564</ele>
        <time>2021-11-20T22:27:39.115Z</time>
      </trkpt>
      <trkpt lat="47.696846" lon="7.742487">
        <ele>494.448737</ele>
        <time>2021-11-20T22:27:41.523Z</time>
      </trkpt>
      <trkpt lat="47.696358" lon="7.742892">
        <ele>487.187400</ele>
        <time>2021-11-20T22:27:46.159Z</time>
      </trkpt>
      <trkpt lat="47.696058" lon="7.743055">
        <ele>483.603586</ele>
        <time>2021-11-20T22:27:48.814Z</time>
      </trkpt>
      <trkpt lat="47.695845" lon="7.743170">
        <ele>481.060964</ele>
        <time>2021-11-20T22:27:50.700Z</time>
      </trkpt>
      <trkpt lat="47.695620" lon="7.743311">
        <ele>478.321243</ele>
        <time>2021-11-20T22:27:52.737Z</time>
      </trkpt>
      <trkpt lat="47.695539" lon="7.743420">
        <ele>477.095126</ele>
        <time>2021-11-20T22:27:53.659Z</time>
      </trkpt>
      <trkpt lat="47.695367" lon="7.743800">
        <ele>473.637068</ele>
        <time>2021-11-20T22:27:56.328Z</time>
      </trkpt>
      <trkpt lat="47.695292" lon="7.744029">
        <ele>471.713929</ele>
        <time>2021-11-20T22:27:57.809Z</time>
      </trkpt>
      <trkpt lat="47.695229" lon="7.744257">
        <ele>469.852757</ele>
        <time>2021-11-20T22:27:59.265Z</time>
      </trkpt>
      <trkpt lat="47.695051" lon="7.744847">
        <ele>466.130066</ele>
        <time>2021-11-20T22:28:03.182Z</time>
      </trkpt>
      <trkpt lat="47.694739" lon="7.745454">
        <ele>463.576068</ele>
        <time>2021-11-20T22:28:08.080Z</time>
      </trkpt>
      <trkpt lat="47.694590" lon="7.745707">
        <ele>462.451892</ele>
        <time>2021-11-20T22:28:10.262Z</time>
      </trkpt>
      <trkpt lat="47.694429" lon="7.745924">
        <ele>461.371897</ele>
        <time>2021-11-20T22:28:12.400Z</time>
      </trkpt>
      <trkpt lat="47.694308" lon="7.746107">
        <ele>460.514061</ele>
        <time>2021-11-20T22:28:14.123Z</time>
      </trkpt>
      <trkpt lat="47.694164" lon="7.746370">
        <ele>459.380339</ele>
        <time>2021-11-20T22:28:16.269Z</time>
      </trkpt>
      <trkpt lat="47.693962" lon="7.746719">
        <ele>457.819944</ele>
        <time>2021-11-20T22:28:19.245Z</time>
      </trkpt>
      <trkpt lat="47.693822" lon="7.746891">
        <ele>456.847845</ele>
        <time>2021-11-20T22:28:21.002Z</time>
      </trkpt>
      <trkpt lat="47.693736" lon="7.746950">
        <ele>456.340966</ele>
        <time>2021-11-20T22:28:22.007Z</time>
      </trkpt>
      <trkpt lat="47.693612" lon="7.747011">
        <ele>455.642017</ele>
        <time>2021-11-20T22:28:23.221Z</time>
      </trkpt>
      <trkpt lat="47.693527" lon="7.747053">
        <ele>455.162688</ele>
        <time>2021-11-20T22:28:24.099Z</time>
      </trkpt>
      <trkpt lat="47.693031" lon="7.747176">
        <ele>452.471883</ele>
        <time>2021-11-20T22:28:28.900Z</time>
      </trkpt>
      <trkpt lat="47.692894" lon="7.747251">
        <ele>451.690612</ele>
        <time>2021-11-20T22:28:30.269Z</time>
      </trkpt>
      <trkpt lat="47.692710" lon="7.747392">
        <ele>450.582772</ele>
        <time>2021-11-20T22:28:32.177Z</time>
      </trkpt>
      <trkpt lat="47.692631" lon="7.747558">
        <ele>449.850530</ele>
        <time>2021-11-20T22:28:33.403Z</time>
      </trkpt>
      <trkpt lat="47.692512" lon="7.747832">
        <ele>448.676042</ele>
        <time>2021-11-20T22:28:35.364Z</time>
      </trkpt>
      <trkpt lat="47.692452" lon="7.747963">
        <ele>447.992217</ele>
        <time>2021-11-20T22:28:36.311Z</time>
      </trkpt>
      <trkpt lat="47.692404" lon="7.748017">
        <ele>447.575606</ele>
        <time>2021-11-20T22:28:36.844Z</time>
      </trkpt>
      <trkpt lat="47.692323" lon="7.748079">
        <ele>446.945121</ele>
        <time>2021-11-20T22:28:37.678Z</time>
      </trkpt>
      <trkpt lat="47.692230" lon="7.748087">
        <ele>446.300541</ele>
        <time>2021-11-20T22:28:38.482Z</time>
      </trkpt>
      <trkpt lat="47.691658" lon="7.748006">
        <ele>442.324718</ele>
        <time>2021-11-20T22:28:43.661Z</time>
      </trkpt>
      <trkpt lat="47.691424" lon="7.748027">
        <ele>440.702633</ele>
        <time>2021-11-20T22:28:45.770Z</time>
      </trkpt>
      <trkpt lat="47.691223" lon="7.748065">
        <ele>439.300622</ele>
        <time>2021-11-20T22:28:47.631Z</time>
      </trkpt>
      <trkpt lat="47.690972" lon="7.748136">
        <ele>437.532656</ele>
        <time>2021-11-20T22:28:49.952Z</time>
      </trkpt>
      <trkpt lat="47.690731" lon="7.748337">
        <ele>435.698277</ele>
        <time>2021-11-20T22:28:52.391Z</time>
      </trkpt>
      <trkpt lat="47.690496" lon="7.748600">
        <ele>434.035694</ele>
        <time>2021-11-20T22:28:55.043Z</time>
      </trkpt>
      <trkpt lat="47.690236" lon="7.748892">
        <ele>432.193898</ele>
        <time>2021-11-20T22:28:57.985Z</time>
      </trkpt>
      <trkpt lat="47.690126" lon="7.748987">
        <ele>431.474905</ele>
        <time>2021-11-20T22:28:59.132Z</time>
      </trkpt>
      <trkpt lat="47.690008" lon="7.749031">
        <ele>430.787428</ele>
        <time>2021-11-20T22:29:00.237Z</time>
      </trkpt>
      <trkpt lat="47.689731" lon="7.749096">
        <ele>429.202751</ele>
        <time>2021-11-20T22:29:02.906Z</time>
      </trkpt>
      <trkpt lat="47.689504" lon="7.749160">
        <ele>427.897125</ele>
        <time>2021-11-20T22:29:05.156Z</time>
      </trkpt>
      <trkpt lat="47.689504" lon="7.749160">
        <ele>427.897125</ele>
        <time>2021-11-20T22:29:05.163Z</time>
      </trkpt>
      <trkpt lat="47.689310" lon="7.749200">
        <ele>426.790362</ele>
        <time>2021-11-20T22:29:07.038Z</time>
      </trkpt>
      <trkpt lat="47.689421" lon="7.748621">
        <ele>424.945360</ele>
        <time>2021-11-20T22:29:11.002Z</time>
      </trkpt>
      <trkpt lat="47.689456" lon="7.748313">
        <ele>424.139879</ele>
        <time>2021-11-20T22:29:13.062Z</time>
      </trkpt>
      <trkpt lat="47.689387" lon="7.746843">
        <ele>420.339968</ele>
        <time>2021-11-20T22:29:22.846Z</time>
      </trkpt>
      <trkpt lat="47.689598" lon="7.745786">
        <ele>417.098625</ele>
        <time>2021-11-20T22:29:30.295Z</time>
      </trkpt>
      <trkpt lat="47.689494" lon="7.744812">
        <ele>413.877902</ele>
        <time>2021-11-20T22:29:36.720Z</time>
      </trkpt>
      <trkpt lat="47.689696" lon="7.743353">
        <ele>408.387960</ele>
        <time>2021-11-20T22:29:45.932Z</time>
      </trkpt>
      <trkpt lat="47.689694" lon="7.743050">
        <ele>406.904146</ele>
        <time>2021-11-20T22:29:47.756Z</time>
      </trkpt>
      <trkpt lat="47.689689" lon="7.742165">
        <ele>402.570291</ele>
        <time>2021-11-20T22:29:53.043Z</time>
      </trkpt>
      <trkpt lat="47.689662" lon="7.741645">
        <ele>400.016370</ele>
        <time>2021-11-20T22:29:56.165Z</time>
      </trkpt>
      <trkpt lat="47.689593" lon="7.741255">
        <ele>398.041739</ele>
        <time>2021-11-20T22:29:58.556Z</time>
      </trkpt>
      <trkpt lat="47.689527" lon="7.740912">
        <ele>396.485646</ele>
        <time>2021-11-20T22:30:00.698Z</time>
      </trkpt>
      <trkpt lat="47.689525" lon="7.740902">
        <ele>396.445560</ele>
        <time>2021-11-20T22:30:00.759Z</time>
      </trkpt>
      <trkpt lat="47.689508" lon="7.740589">
        <ele>395.238937</ele>
        <time>2021-11-20T22:30:02.665Z</time>
      </trkpt>
      <trkpt lat="47.689552" lon="7.740318">
        <ele>394.167747</ele>
        <time>2021-11-20T22:30:04.314Z</time>
      </trkpt>
      <trkpt lat="47.689653" lon="7.740135">
        <ele>393.258426</ele>
        <time>2021-11-20T22:30:05.802Z</time>
      </trkpt>
      <trkpt lat="47.689975" lon="7.739810">
        <ele>391.036249</ele>
        <time>2021-11-20T22:30:09.379Z</time>
      </trkpt>
      <trkpt lat="47.690181" lon="7.739276">
        <ele>388.671289</ele>
        <time>2021-11-20T22:30:13.269Z</time>
      </trkpt>
      <trkpt lat="47.690269" lon="7.739099">
        <ele>387.825771</ele>
        <time>2021-11-20T22:30:14.653Z</time>
      </trkpt>
      <trkpt lat="47.690374" lon="7.739013">
        <ele>387.141339</ele>
        <time>2021-11-20T22:30:15.942Z</time>
      </trkpt>
      <trkpt lat="47.690436" lon="7.738893">
        <ele>386.767492</ele>
        <time>2021-11-20T22:30:17.036Z</time>
      </trkpt>
      <trkpt lat="47.690534" lon="7.738217">
        <ele>385.668399</ele>
        <time>2021-11-20T22:30:21.953Z</time>
      </trkpt>
      <trkpt lat="47.690466" lon="7.738254">
        <ele>385.497403</ele>
        <time>2021-11-20T22:30:22.742Z</time>
      </trkpt>
      <trkpt lat="47.690414" lon="7.738257">
        <ele>385.374526</ele>
        <time>2021-11-20T22:30:23.331Z</time>
      </trkpt>
      <trkpt lat="47.690373" lon="7.738251">
        <ele>385.277247</ele>
        <time>2021-11-20T22:30:23.798Z</time>
      </trkpt>
      <trkpt lat="47.690188" lon="7.738141">
        <ele>384.806728</ele>
        <time>2021-11-20T22:30:25.943Z</time>
      </trkpt>
      <trkpt lat="47.689715" lon="7.737879">
        <ele>383.614751</ele>
        <time>2021-11-20T22:30:31.440Z</time>
      </trkpt>
      <trkpt lat="47.689192" lon="7.737735">
        <ele>382.405060</ele>
        <time>2021-11-20T22:30:37.389Z</time>
      </trkpt>
      <trkpt lat="47.688900" lon="7.737742">
        <ele>381.819080</ele>
        <time>2021-11-20T22:30:40.652Z</time>
      </trkpt>
      <trkpt lat="47.688795" lon="7.737743">
        <ele>381.608391</ele>
        <time>2021-11-20T22:30:41.804Z</time>
      </trkpt>
      <trkpt lat="47.688176" lon="7.737850">
        <ele>380.357976</ele>
        <time>2021-11-20T22:30:48.751Z</time>
      </trkpt>
      <trkpt lat="47.688003" lon="7.737904">
        <ele>380.003268</ele>
        <time>2021-11-20T22:30:50.648Z</time>
      </trkpt>
      <trkpt lat="47.686856" lon="7.738288">
        <ele>377.663150</ele>
        <time>2021-11-20T22:31:03.306Z</time>
      </trkpt>
      <trkpt lat="47.685871" lon="7.738439">
        <ele>375.703052</ele>
        <time>2021-11-20T22:31:14.298Z</time>
      </trkpt>
      <trkpt lat="47.685295" lon="7.738591">
        <ele>374.745471</ele>
        <time>2021-11-20T22:31:20.939Z</time>
      </trkpt>
      <trkpt lat="47.684782" lon="7.738700">
        <ele>373.935547</ele>
        <time>2021-11-20T22:31:26.796Z</time>
      </trkpt>
      <trkpt lat="47.684345" lon="7.738781">
        <ele>373.247266</ele>
        <time>2021-11-20T22:31:31.818Z</time>
      </trkpt>
      <trkpt lat="47.683955" lon="7.738770">
        <ele>372.654015</ele>
        <time>2021-11-20T22:31:36.356Z</time>
      </trkpt>
      <trkpt lat="47.683619" lon="7.738743">
        <ele>372.304838</ele>
        <time>2021-11-20T22:31:40.368Z</time>
      </trkpt>
      <trkpt lat="47.683198" lon="7.738684">
        <ele>371.866025</ele>
        <time>2021-11-20T22:31:45.494Z</time>
      </trkpt>
      <trkpt lat="47.681369" lon="7.738489">
        <ele>369.926469</ele>
        <time>2021-11-20T22:32:08.232Z</time>
      </trkpt>
      <trkpt lat="47.680533" lon="7.738227">
        <ele>369.001854</ele>
        <time>2021-11-20T22:32:18.460Z</time>
      </trkpt>
      <trkpt lat="47.680227" lon="7.738094">
        <ele>368.630743</ele>
        <time>2021-11-20T22:32:22.200Z</time>
      </trkpt>
      <trkpt lat="47.679681" lon="7.737780">
        <ele>367.920872</ele>
        <time>2021-11-20T22:32:29.033Z</time>
      </trkpt>
      <trkpt lat="47.679312" lon="7.737558">
        <ele>367.438180</ele>
        <time>2021-11-20T22:32:33.576Z</time>
      </trkpt>
      <trkpt lat="47.679182" lon="7.737480">
        <ele>367.268190</ele>
        <time>2021-11-20T22:32:35.117Z</time>
      </trkpt>
      <trkpt lat="47.678261" lon="7.737149">
        <ele>366.805936</ele>
        <time>2021-11-20T22:32:47.220Z</time>
      </trkpt>
      <trkpt lat="47.677732" lon="7.737060">
        <ele>366.933297</ele>
        <time>2021-11-20T22:32:55.363Z</time>
      </trkpt>
      <trkpt lat="47.676927" lon="7.737026">
        <ele>367.131022</ele>
        <time>2021-11-20T22:33:10.687Z</time>
      </trkpt>
      <trkpt lat="47.674982" lon="7.736550">
        <ele>368.011756</ele>
        <time>2021-11-20T22:33:46.570Z</time>
      </trkpt>
      <trkpt lat="47.674295" lon="7.736409">
        <ele>366.893075</ele>
        <time>2021-11-20T22:33:54.434Z</time>
      </trkpt>
      <trkpt lat="47.673855" lon="7.736387">
        <ele>366.182942</ele>
        <time>2021-11-20T22:33:59.171Z</time>
      </trkpt>
      <trkpt lat="47.673492" lon="7.736461">
        <ele>365.591923</ele>
        <time>2021-11-20T22:34:03.011Z</time>
      </trkpt>
      <trkpt lat="47.673344" lon="7.736511">
        <ele>365.326359</ele>
        <time>2021-11-20T22:34:04.584Z</time>
      </trkpt>
      <trkpt lat="47.673154" lon="7.736575">
        <ele>364.905664</ele>
        <time>2021-11-20T22:34:06.610Z</time>
      </trkpt>
      <trkpt lat="47.672890" lon="7.736693">
        <ele>364.310340</ele>
        <time>2021-11-20T22:34:09.466Z</time>
      </trkpt>
      <trkpt lat="47.671561" lon="7.737762">
        <ele>361.402709</ele>
        <time>2021-11-20T22:34:26.204Z</time>
      </trkpt>
      <trkpt lat="47.671278" lon="7.738030">
        <ele>361.218037</ele>
        <time>2021-11-20T22:34:29.813Z</time>
      </trkpt>
      <trkpt lat="47.671021" lon="7.738380">
        <ele>361.026178</ele>
        <time>2021-11-20T22:34:33.947Z</time>
      </trkpt>
      <trkpt lat="47.670753" lon="7.738859">
        <ele>360.795445</ele>
        <time>2021-11-20T22:34:39.540Z</time>
      </trkpt>
      <trkpt lat="47.670331" lon="7.739901">
        <ele>361.312209</ele>
        <time>2021-11-20T22:34:56.013Z</time>
      </trkpt>
      <trkpt lat="47.670203" lon="7.740193">
        <ele>361.840676</ele>
        <time>2021-11-20T22:35:02.188Z</time>
      </trkpt>
      <trkpt lat="47.669750" lon="7.740792">
        <ele>363.206895</ele>
        <time>2021-11-20T22:35:15.651Z</time>
      </trkpt>
      <trkpt lat="47.669494" lon="7.740943">
        <ele>363.827333</ele>
        <time>2021-11-20T22:35:22.613Z</time>
      </trkpt>
      <trkpt lat="47.669351" lon="7.740999">
        <ele>364.160439</ele>
        <time>2021-11-20T22:35:26.822Z</time>
      </trkpt>
      <trkpt lat="47.669055" lon="7.741049">
        <ele>364.900536</ele>
        <time>2021-11-20T22:35:35.459Z</time>
      </trkpt>
      <trkpt lat="47.668124" lon="7.740949">
        <ele>367.595044</ele>
        <time>2021-11-20T22:36:02.317Z</time>
      </trkpt>
      <trkpt lat="47.667361" lon="7.741151">
        <ele>369.830565</ele>
        <time>2021-11-20T22:36:19.523Z</time>
      </trkpt>
      <trkpt lat="47.666724" lon="7.741022">
        <ele>371.626827</ele>
        <time>2021-11-20T22:36:36.800Z</time>
      </trkpt>
      <trkpt lat="47.665679" lon="7.741103">
        <ele>374.550546</ele>
        <time>2021-11-20T22:37:05.346Z</time>
      </trkpt>
      <trkpt lat="47.665373" lon="7.741092">
        <ele>374.920565</ele>
        <time>2021-11-20T22:37:13.227Z</time>
      </trkpt>
      <trkpt lat="47.664884" lon="7.741112">
        <ele>375.186003</ele>
        <time>2021-11-20T22:37:23.744Z</time>
      </trkpt>
      <trkpt lat="47.664445" lon="7.741223">
        <ele>375.427638</ele>
        <time>2021-11-20T22:37:31.918Z</time>
      </trkpt>
      <trkpt lat="47.663991" lon="7.741248">
        <ele>375.674153</ele>
        <time>2021-11-20T22:37:38.399Z</time>
      </trkpt>
      <trkpt lat="47.663281" lon="7.741134">
        <ele>373.400885</ele>
        <time>2021-11-20T22:37:46.017Z</time>
      </trkpt>
      <trkpt lat="47.662726" lon="7.741265">
        <ele>370.829315</ele>
        <time>2021-11-20T22:37:51.168Z</time>
      </trkpt>
      <trkpt lat="47.661687" lon="7.741310">
        <ele>365.794745</ele>
        <time>2021-11-20T22:38:00.795Z</time>
      </trkpt>
      <trkpt lat="47.661674" lon="7.741304">
        <ele>365.720714</ele>
        <time>2021-11-20T22:38:00.910Z</time>
      </trkpt>
      <trkpt lat="47.661611" lon="7.741276">
        <ele>365.363098</ele>
        <time>2021-11-20T22:38:01.492Z</time>
      </trkpt>
      <trkpt lat="47.661483" lon="7.741188">
        <ele>364.596031</ele>
        <time>2021-11-20T22:38:02.864Z</time>
      </trkpt>
      <trkpt lat="47.661424" lon="7.741131">
        <ele>364.213246</ele>
        <time>2021-11-20T22:38:03.574Z</time>
      </trkpt>
      <trkpt lat="47.661298" lon="7.741035">
        <ele>363.443105</ele>
        <time>2021-11-20T22:38:04.864Z</time>
      </trkpt>
      <trkpt lat="47.660437" lon="7.740780">
        <ele>358.668715</ele>
        <time>2021-11-20T22:38:13.050Z</time>
      </trkpt>
      <trkpt lat="47.660092" lon="7.740956">
        <ele>357.085898</ele>
        <time>2021-11-20T22:38:16.406Z</time>
      </trkpt>
      <trkpt lat="47.659914" lon="7.741102">
        <ele>356.389471</ele>
        <time>2021-11-20T22:38:18.500Z</time>
      </trkpt>
      <trkpt lat="47.659389" lon="7.741651">
        <ele>354.190330</ele>
        <time>2021-11-20T22:38:25.106Z</time>
      </trkpt>
      <trkpt lat="47.658430" lon="7.742636">
        <ele>352.514834</ele>
        <time>2021-11-20T22:38:36.821Z</time>
      </trkpt>
      <trkpt lat="47.657946" lon="7.742967">
        <ele>353.687139</ele>
        <time>2021-11-20T22:38:48.672Z</time>
      </trkpt>
      <trkpt lat="47.657396" lon="7.743356">
        <ele>355.027392</ele>
        <time>2021-11-20T22:39:09.805Z</time>
      </trkpt>
      <trkpt lat="47.656895" lon="7.743736">
        <ele>357.090813</ele>
        <time>2021-11-20T22:39:32.442Z</time>
      </trkpt>
      <trkpt lat="47.656798" lon="7.743812">
        <ele>357.616738</ele>
        <time>2021-11-20T22:39:36.209Z</time>
      </trkpt>
      <trkpt lat="47.656699" lon="7.743927">
        <ele>358.219497</ele>
        <time>2021-11-20T22:39:41.433Z</time>
      </trkpt>
      <trkpt lat="47.656638" lon="7.744059">
        <ele>358.736531</ele>
        <time>2021-11-20T22:39:46.572Z</time>
      </trkpt>
      <trkpt lat="47.656592" lon="7.744040">
        <ele>358.965484</ele>
        <time>2021-11-20T22:39:48.140Z</time>
      </trkpt>
      <trkpt lat="47.656129" lon="7.743833">
        <ele>361.284110</ele>
        <time>2021-11-20T22:40:07.815Z</time>
      </trkpt>
      <trkpt lat="47.654324" lon="7.743075">
        <ele>365.515980</ele>
        <time>2021-11-20T22:40:51.304Z</time>
      </trkpt>
      <trkpt lat="47.653639" lon="7.742914">
        <ele>365.870112</ele>
        <time>2021-11-20T22:40:59.287Z</time>
      </trkpt>
      <trkpt lat="47.653011" lon="7.743041">
        <ele>365.107961</ele>
        <time>2021-11-20T22:41:06.710Z</time>
      </trkpt>
      <trkpt lat="47.652352" lon="7.743329">
        <ele>364.281880</ele>
        <time>2021-11-20T22:41:14.979Z</time>
      </trkpt>
      <trkpt lat="47.651664" lon="7.743365">
        <ele>362.783241</ele>
        <time>2021-11-20T22:41:23.369Z</time>
      </trkpt>
      <trkpt lat="47.650941" lon="7.743251">
        <ele>360.609382</ele>
        <time>2021-11-20T22:41:31.275Z</time>
      </trkpt>
      <trkpt lat="47.650238" lon="7.743181">
        <ele>358.468844</ele>
        <time>2021-11-20T22:41:38.109Z</time>
      </trkpt>
      <trkpt lat="47.649349" lon="7.742957">
        <ele>352.087565</ele>
        <time>2021-11-20T22:41:46.236Z</time>
      </trkpt>
      <trkpt lat="47.648726" lon="7.742773">
        <ele>347.592287</ele>
        <time>2021-11-20T22:41:51.836Z</time>
      </trkpt>
      <trkpt lat="47.648686" lon="7.742761">
        <ele>347.303492</ele>
        <time>2021-11-20T22:41:52.194Z</time>
      </trkpt>
      <trkpt lat="47.648430" lon="7.742708">
        <ele>345.534208</ele>
        <time>2021-11-20T22:41:54.464Z</time>
      </trkpt>
      <trkpt lat="47.647923" lon="7.742761">
        <ele>342.601297</ele>
        <time>2021-11-20T22:41:58.976Z</time>
      </trkpt>
      <trkpt lat="47.647668" lon="7.742782">
        <ele>341.127545</ele>
        <time>2021-11-20T22:42:01.269Z</time>
      </trkpt>
      <trkpt lat="47.647263" lon="7.742628">
        <ele>338.715011</ele>
        <time>2021-11-20T22:42:05.135Z</time>
      </trkpt>
      <trkpt lat="47.647031" lon="7.742584">
        <ele>337.365362</ele>
        <time>2021-11-20T22:42:07.424Z</time>
      </trkpt>
      <trkpt lat="47.646932" lon="7.742608">
        <ele>336.786509</ele>
        <time>2021-11-20T22:42:08.368Z</time>
      </trkpt>
      <trkpt lat="47.646840" lon="7.742630">
        <ele>336.248774</ele>
        <time>2021-11-20T22:42:09.336Z</time>
      </trkpt>
      <trkpt lat="47.646642" lon="7.742762">
        <ele>335.281516</ele>
        <time>2021-11-20T22:42:11.560Z</time>
      </trkpt>
      <trkpt lat="47.646406" lon="7.742933">
        <ele>334.786856</ele>
        <time>2021-11-20T22:42:14.343Z</time>
      </trkpt>
      <trkpt lat="47.646017" lon="7.743245">
        <ele>333.954018</ele>
        <time>2021-11-20T22:42:19.169Z</time>
      </trkpt>
      <trkpt lat="47.645911" lon="7.743330">
        <ele>333.727085</ele>
        <time>2021-11-20T22:42:20.487Z</time>
      </trkpt>
      <trkpt lat="47.645734" lon="7.743440">
        <ele>333.365649</ele>
        <time>2021-11-20T22:42:22.827Z</time>
      </trkpt>
      <trkpt lat="47.645188" lon="7.743513">
        <ele>332.333052</ele>
        <time>2021-11-20T22:42:29.340Z</time>
      </trkpt>
      <trkpt lat="47.645131" lon="7.743484">
        <ele>332.219556</ele>
        <time>2021-11-20T22:42:30.072Z</time>
      </trkpt>
      <trkpt lat="47.645054" lon="7.743433">
        <ele>332.060736</ele>
        <time>2021-11-20T22:42:31.094Z</time>
      </trkpt>
      <trkpt lat="47.644925" lon="7.743203">
        <ele>331.877961</ele>
        <time>2021-11-20T22:42:33.559Z</time>
      </trkpt>
      <trkpt lat="47.644734" lon="7.742487">
        <ele>331.449348</ele>
        <time>2021-11-20T22:42:39.963Z</time>
      </trkpt>
      <trkpt lat="47.644669" lon="7.742280">
        <ele>331.322236</ele>
        <time>2021-11-20T22:42:41.868Z</time>
      </trkpt>
      <trkpt lat="47.644599" lon="7.742155">
        <ele>331.231768</ele>
        <time>2021-11-20T22:42:43.221Z</time>
      </trkpt>
      <trkpt lat="47.644397" lon="7.741849">
        <ele>330.993325</ele>
        <time>2021-11-20T22:42:46.852Z</time>
      </trkpt>
      <trkpt lat="47.644276" lon="7.741683">
        <ele>330.857204</ele>
        <time>2021-11-20T22:42:48.947Z</time>
      </trkpt>
      <trkpt lat="47.644182" lon="7.741417">
        <ele>330.690022</ele>
        <time>2021-11-20T22:42:51.516Z</time>
      </trkpt>
      <trkpt lat="47.644157" lon="7.741340">
        <ele>330.642448</ele>
        <time>2021-11-20T22:42:52.258Z</time>
      </trkpt>
      <trkpt lat="47.644056" lon="7.741009">
        <ele>330.501463</ele>
        <time>2021-11-20T22:42:55.565Z</time>
      </trkpt>
      <trkpt lat="47.644034" lon="7.740945">
        <ele>330.484636</ele>
        <time>2021-11-20T22:42:56.209Z</time>
      </trkpt>
      <trkpt lat="47.643938" lon="7.740664">
        <ele>330.410852</ele>
        <time>2021-11-20T22:42:59.101Z</time>
      </trkpt>
      <trkpt lat="47.643881" lon="7.740570">
        <ele>330.381235</ele>
        <time>2021-11-20T22:43:00.246Z</time>
      </trkpt>
      <trkpt lat="47.643783" lon="7.740468">
        <ele>330.339629</ele>
        <time>2021-11-20T22:43:01.816Z</time>
      </trkpt>
      <trkpt lat="47.643656" lon="7.740319">
        <ele>330.283358</ele>
        <time>2021-11-20T22:43:04.106Z</time>
      </trkpt>
      <trkpt lat="47.643591" lon="7.740215">
        <ele>330.250136</ele>
        <time>2021-11-20T22:43:05.443Z</time>
      </trkpt>
      <trkpt lat="47.643475" lon="7.739785">
        <ele>330.141661</ele>
        <time>2021-11-20T22:43:09.801Z</time>
      </trkpt>
      <trkpt lat="47.643539" lon="7.739705">
        <ele>330.112576</ele>
        <time>2021-11-20T22:43:10.964Z</time>
      </trkpt>
      <trkpt lat="47.643618" lon="7.739581">
        <ele>330.072609</ele>
        <time>2021-11-20T22:43:12.541Z</time>
      </trkpt>
      <trkpt lat="47.643638" lon="7.739481">
        <ele>330.048180</ele>
        <time>2021-11-20T22:43:13.611Z</time>
      </trkpt>
      <trkpt lat="47.643623" lon="7.739386">
        <ele>330.025329</ele>
        <time>2021-11-20T22:43:14.614Z</time>
      </trkpt>
      <trkpt lat="47.643599" lon="7.739305">
        <ele>330.004606</ele>
        <time>2021-11-20T22:43:15.428Z</time>
      </trkpt>
      <trkpt lat="47.643579" lon="7.739273">
        <ele>329.994384</ele>
        <time>2021-11-20T22:43:15.826Z</time>
      </trkpt>
      <trkpt lat="47.643448" lon="7.739145">
        <ele>329.939867</ele>
        <time>2021-11-20T22:43:17.923Z</time>
      </trkpt>
      <trkpt lat="47.643361" lon="7.739082">
        <ele>329.896276</ele>
        <time>2021-11-20T22:43:19.362Z</time>
      </trkpt>
      <trkpt lat="47.643127" lon="7.738912">
        <ele>329.743771</ele>
        <time>2021-11-20T22:43:22.721Z</time>
      </trkpt>
      <trkpt lat="47.642672" lon="7.738698">
        <ele>329.464374</ele>
        <time>2021-11-20T22:43:29.128Z</time>
      </trkpt>
      <trkpt lat="47.642315" lon="7.738532">
        <ele>329.245382</ele>
        <time>2021-11-20T22:43:34.001Z</time>
      </trkpt>
      <trkpt lat="47.642140" lon="7.738440">
        <ele>329.136706</ele>
        <time>2021-11-20T22:43:36.358Z</time>
      </trkpt>
      <trkpt lat="47.641927" lon="7.738094">
        <ele>328.951859</ele>
        <time>2021-11-20T22:43:40.362Z</time>
      </trkpt>
      <trkpt lat="47.641898" lon="7.737895">
        <ele>328.871559</ele>
        <time>2021-11-20T22:43:42.030Z</time>
      </trkpt>
      <trkpt lat="47.641923" lon="7.737088">
        <ele>328.496516</ele>
        <time>2021-11-20T22:43:49.001Z</time>
      </trkpt>
      <trkpt lat="47.641903" lon="7.736757">
        <ele>328.341963</ele>
        <time>2021-11-20T22:43:51.804Z</time>
      </trkpt>
      <trkpt lat="47.641790" lon="7.736333">
        <ele>328.129911</ele>
        <time>2021-11-20T22:43:55.693Z</time>
      </trkpt>
      <trkpt lat="47.641704" lon="7.736074">
        <ele>327.995627</ele>
        <time>2021-11-20T22:43:58.275Z</time>
      </trkpt>
      <trkpt lat="47.641622" lon="7.735797">
        <ele>327.854918</ele>
        <time>2021-11-20T22:44:00.857Z</time>
      </trkpt>
      <trkpt lat="47.641567" lon="7.735539">
        <ele>327.729069</ele>
        <time>2021-11-20T22:44:03.280Z</time>
      </trkpt>
      <trkpt lat="47.641599" lon="7.734994">
        <ele>327.498974</ele>
        <time>2021-11-20T22:44:08.135Z</time>
      </trkpt>
      <trkpt lat="47.641789" lon="7.734288">
        <ele>327.202102</ele>
        <time>2021-11-20T22:44:14.844Z</time>
      </trkpt>
      <trkpt lat="47.641896" lon="7.733974">
        <ele>327.064696</ele>
        <time>2021-11-20T22:44:17.927Z</time>
      </trkpt>
      <trkpt lat="47.642073" lon="7.733685">
        <ele>326.912184</ele>
        <time>2021-11-20T22:44:21.428Z</time>
      </trkpt>
      <trkpt lat="47.642195" lon="7.733475">
        <ele>326.803905</ele>
        <time>2021-11-20T22:44:23.909Z</time>
      </trkpt>
      <trkpt lat="47.642261" lon="7.733306">
        <ele>326.727626</ele>
        <time>2021-11-20T22:44:25.629Z</time>
      </trkpt>
      <trkpt lat="47.642344" lon="7.733092">
        <ele>326.631204</ele>
        <time>2021-11-20T22:44:27.760Z</time>
      </trkpt>
      <trkpt lat="47.642408" lon="7.732927">
        <ele>326.544606</ele>
        <time>2021-11-20T22:44:29.420Z</time>
      </trkpt>
      <trkpt lat="47.642435" lon="7.732816">
        <ele>326.477658</ele>
        <time>2021-11-20T22:44:30.430Z</time>
      </trkpt>
      <trkpt lat="47.642652" lon="7.731911">
        <ele>325.932716</ele>
        <time>2021-11-20T22:44:38.571Z</time>
      </trkpt>
      <trkpt lat="47.642752" lon="7.731418">
        <ele>325.640643</ele>
        <time>2021-11-20T22:44:42.891Z</time>
      </trkpt>
      <trkpt lat="47.642777" lon="7.731298">
        <ele>325.569388</ele>
        <time>2021-11-20T22:44:43.947Z</time>
      </trkpt>
      <trkpt lat="47.642812" lon="7.731060">
        <ele>325.431195</ele>
        <time>2021-11-20T22:44:45.990Z</time>
      </trkpt>
      <trkpt lat="47.642863" lon="7.730665">
        <ele>325.203038</ele>
        <time>2021-11-20T22:44:49.251Z</time>
      </trkpt>
      <trkpt lat="47.642944" lon="7.730005">
        <ele>324.849838</ele>
        <time>2021-11-20T22:44:54.904Z</time>
      </trkpt>
      <trkpt lat="47.643034" lon="7.729585">
        <ele>324.627521</ele>
        <time>2021-11-20T22:44:58.561Z</time>
      </trkpt>
      <trkpt lat="47.643209" lon="7.728752">
        <ele>324.187380</ele>
        <time>2021-11-20T22:45:06.115Z</time>
      </trkpt>
      <trkpt lat="47.643226" lon="7.728673">
        <ele>324.145547</ele>
        <time>2021-11-20T22:45:06.743Z</time>
      </trkpt>
      <trkpt lat="47.643271" lon="7.728166">
        <ele>323.887593</ele>
        <time>2021-11-20T22:45:11.315Z</time>
      </trkpt>
      <trkpt lat="47.643223" lon="7.727611">
        <ele>323.643466</ele>
        <time>2021-11-20T22:45:16.202Z</time>
      </trkpt>
      <trkpt lat="47.643078" lon="7.727124">
        <ele>323.462026</ele>
        <time>2021-11-20T22:45:20.969Z</time>
      </trkpt>
      <trkpt lat="47.642780" lon="7.726673">
        <ele>323.246761</ele>
        <time>2021-11-20T22:45:26.558Z</time>
      </trkpt>
      <trkpt lat="47.642747" lon="7.726635">
        <ele>323.225636</ele>
        <time>2021-11-20T22:45:27.247Z</time>
      </trkpt>
      <trkpt lat="47.642298" lon="7.726232">
        <ele>322.960240</ele>
        <time>2021-11-20T22:45:34.183Z</time>
      </trkpt>
      <trkpt lat="47.642075" lon="7.725935">
        <ele>322.805349</ele>
        <time>2021-11-20T22:45:38.191Z</time>
      </trkpt>
      <trkpt lat="47.641806" lon="7.725383">
        <ele>322.397674</ele>
        <time>2021-11-20T22:45:44.163Z</time>
      </trkpt>
      <trkpt lat="47.641621" lon="7.724812">
        <ele>322.018520</ele>
        <time>2021-11-20T22:45:49.724Z</time>
      </trkpt>
      <trkpt lat="47.641338" lon="7.723656">
        <ele>321.282491</ele>
        <time>2021-11-20T22:45:59.679Z</time>
      </trkpt>
      <trkpt lat="47.641072" lon="7.722626">
        <ele>320.305257</ele>
        <time>2021-11-20T22:46:08.302Z</time>
      </trkpt>
      <trkpt lat="47.640984" lon="7.722331">
        <ele>320.008983</ele>
        <time>2021-11-20T22:46:10.789Z</time>
      </trkpt>
      <trkpt lat="47.640966" lon="7.722267">
        <ele>319.945294</ele>
        <time>2021-11-20T22:46:11.321Z</time>
      </trkpt>
      <trkpt lat="47.640786" lon="7.721766">
        <ele>319.423880</ele>
        <time>2021-11-20T22:46:15.763Z</time>
      </trkpt>
      <trkpt lat="47.640553" lon="7.721064">
        <ele>318.731611</ele>
        <time>2021-11-20T22:46:22.021Z</time>
      </trkpt>
      <trkpt lat="47.640301" lon="7.720147">
        <ele>318.229829</ele>
        <time>2021-11-20T22:46:29.982Z</time>
      </trkpt>
      <trkpt lat="47.640077" lon="7.719090">
        <ele>317.668402</ele>
        <time>2021-11-20T22:46:39.727Z</time>
      </trkpt>
      <trkpt lat="47.640089" lon="7.717983">
        <ele>317.204846</ele>
        <time>2021-11-20T22:46:50.082Z</time>
      </trkpt>
      <trkpt lat="47.640337" lon="7.716172">
        <ele>316.568441</ele>
        <time>2021-11-20T22:47:06.578Z</time>
      </trkpt>
      <trkpt lat="47.640377" lon="7.714779">
        <ele>315.912641</ele>
        <time>2021-11-20T22:47:18.562Z</time>
      </trkpt>
      <trkpt lat="47.640426" lon="7.714418">
        <ele>315.730679</ele>
        <time>2021-11-20T22:47:35.819Z</time>
      </trkpt>
      <trkpt lat="47.640852" lon="7.712341">
        <ele>314.563032</ele>
        <time>2021-11-20T22:49:17.485Z</time>
      </trkpt>
      <trkpt lat="47.640881" lon="7.712240">
        <ele>314.498797</ele>
        <time>2021-11-20T22:49:22.624Z</time>
      </trkpt>
      <trkpt lat="47.641144" lon="7.712131">
        <ele>314.261681</ele>
        <time>2021-11-20T22:49:41.603Z</time>
      </trkpt>
      <trkpt lat="47.641635" lon="7.711815">
        <ele>313.796955</ele>
        <time>2021-11-20T22:50:18.841Z</time>
      </trkpt>
      <trkpt lat="47.641900" lon="7.711551">
        <ele>313.533372</ele>
        <time>2021-11-20T22:50:41.014Z</time>
      </trkpt>
      <trkpt lat="47.642146" lon="7.711201">
        <ele>313.281324</ele>
        <time>2021-11-20T22:51:04.662Z</time>
      </trkpt>
      <trkpt lat="47.642355" lon="7.710752">
        <ele>313.009364</ele>
        <time>2021-11-20T22:51:30.249Z</time>
      </trkpt>
      <trkpt lat="47.642530" lon="7.710206">
        <ele>312.708054</ele>
        <time>2021-11-20T22:51:58.544Z</time>
      </trkpt>
      <trkpt lat="47.642588" lon="7.709925">
        <ele>312.561598</ele>
        <time>2021-11-20T22:52:12.288Z</time>
      </trkpt>
      <trkpt lat="47.642648" lon="7.709631">
        <ele>312.408514</ele>
        <time>2021-11-20T22:52:26.670Z</time>
      </trkpt>
      <trkpt lat="47.642720" lon="7.708963">
        <ele>312.157059</ele>
        <time>2021-11-20T22:52:58.353Z</time>
      </trkpt>
      <trkpt lat="47.642704" lon="7.708162">
        <ele>311.920951</ele>
        <time>2021-11-20T22:53:35.881Z</time>
      </trkpt>
      <trkpt lat="47.642495" lon="7.706705">
        <ele>311.481455</ele>
        <time>2021-11-20T22:54:45.617Z</time>
      </trkpt>
      <trkpt lat="47.642217" lon="7.705535">
        <ele>311.098564</ele>
        <time>2021-11-20T22:55:43.707Z</time>
      </trkpt>
      <trkpt lat="47.642174" lon="7.705181">
        <ele>310.987548</ele>
        <time>2021-11-20T22:56:00.562Z</time>
      </trkpt>
      <trkpt lat="47.642140" lon="7.704896">
        <ele>310.898221</ele>
        <time>2021-11-20T22:56:14.114Z</time>
      </trkpt>
      <trkpt lat="47.642140" lon="7.704896">
        <ele>310.898221</ele>
        <time>2021-11-20T22:56:14.121Z</time>
      </trkpt>
      <trkpt lat="47.642168" lon="7.704257">
        <ele>310.700590</ele>
        <time>2021-11-20T22:56:19.840Z</time>
      </trkpt>
      <trkpt lat="47.642231" lon="7.703875">
        <ele>310.609544</ele>
        <time>2021-11-20T22:56:23.364Z</time>
      </trkpt>
      <trkpt lat="47.642493" lon="7.702850">
        <ele>310.383612</ele>
        <time>2021-11-20T22:56:33.304Z</time>
      </trkpt>
      <trkpt lat="47.642695" lon="7.702295">
        <ele>310.253612</ele>
        <time>2021-11-20T22:56:39.094Z</time>
      </trkpt>
      <trkpt lat="47.642742" lon="7.702215">
        <ele>310.231737</ele>
        <time>2021-11-20T22:56:40.144Z</time>
      </trkpt>
      <trkpt lat="47.642870" lon="7.701997">
        <ele>310.172144</ele>
        <time>2021-11-20T22:56:42.923Z</time>
      </trkpt>
      <trkpt lat="47.642878" lon="7.701983">
        <ele>310.168361</ele>
        <time>2021-11-20T22:56:43.099Z</time>
      </trkpt>
      <trkpt lat="47.642924" lon="7.701899">
        <ele>310.146052</ele>
        <time>2021-11-20T22:56:44.176Z</time>
      </trkpt>
      <trkpt lat="47.643468" lon="7.701190">
        <ele>310.274405</ele>
        <time>2021-11-20T22:56:55.233Z</time>
      </trkpt>
      <trkpt lat="47.643665" lon="7.700847">
        <ele>310.347521</ele>
        <time>2021-11-20T22:57:00.126Z</time>
      </trkpt>
      <trkpt lat="47.643895" lon="7.700099">
        <ele>310.480903</ele>
        <time>2021-11-20T22:57:09.213Z</time>
      </trkpt>
      <trkpt lat="47.643937" lon="7.699377">
        <ele>310.621609</ele>
        <time>2021-11-20T22:57:17.111Z</time>
      </trkpt>
      <trkpt lat="47.643926" lon="7.698996">
        <ele>310.715254</ele>
        <time>2021-11-20T22:57:21.181Z</time>
      </trkpt>
      <trkpt lat="47.643899" lon="7.698592">
        <ele>310.814948</ele>
        <time>2021-11-20T22:57:25.564Z</time>
      </trkpt>
      <trkpt lat="47.643975" lon="7.697534">
        <ele>311.076225</ele>
        <time>2021-11-20T22:57:37.554Z</time>
      </trkpt>
      <trkpt lat="47.643987" lon="7.697129">
        <ele>311.175773</ele>
        <time>2021-11-20T22:57:42.006Z</time>
      </trkpt>
      <trkpt lat="47.643978" lon="7.696873">
        <ele>311.180608</ele>
        <time>2021-11-20T22:57:45.112Z</time>
      </trkpt>
      <trkpt lat="47.643930" lon="7.696619">
        <ele>311.118829</ele>
        <time>2021-11-20T22:57:47.840Z</time>
      </trkpt>
      <trkpt lat="47.643898" lon="7.696505">
        <ele>311.089908</ele>
        <time>2021-11-20T22:57:49.327Z</time>
      </trkpt>
      <trkpt lat="47.643608" lon="7.695441">
        <ele>310.821117</ele>
        <time>2021-11-20T22:58:00.177Z</time>
      </trkpt>
      <trkpt lat="47.643574" lon="7.695337">
        <ele>310.794045</ele>
        <time>2021-11-20T22:58:01.202Z</time>
      </trkpt>
      <trkpt lat="47.643504" lon="7.695125">
        <ele>310.738756</ele>
        <time>2021-11-20T22:58:03.219Z</time>
      </trkpt>
      <trkpt lat="47.643275" lon="7.694648">
        <ele>310.601590</ele>
        <time>2021-11-20T22:58:08.014Z</time>
      </trkpt>
      <trkpt lat="47.643174" lon="7.694479">
        <ele>310.456654</ele>
        <time>2021-11-20T22:58:09.919Z</time>
      </trkpt>
      <trkpt lat="47.643091" lon="7.694325">
        <ele>310.289363</ele>
        <time>2021-11-20T22:58:11.509Z</time>
      </trkpt>
      <trkpt lat="47.642923" lon="7.693980">
        <ele>309.928267</ele>
        <time>2021-11-20T22:58:14.919Z</time>
      </trkpt>
      <trkpt lat="47.642795" lon="7.694159">
        <ele>309.706842</ele>
        <time>2021-11-20T22:58:16.884Z</time>
      </trkpt>
      <trkpt lat="47.642408" lon="7.694445">
        <ele>309.162528</ele>
        <time>2021-11-20T22:58:21.917Z</time>
      </trkpt>
      <trkpt lat="47.642142" lon="7.694611">
        <ele>308.799218</ele>
        <time>2021-11-20T22:58:25.191Z</time>
      </trkpt>
      <trkpt lat="47.642058" lon="7.694662">
        <ele>308.684951</ele>
        <time>2021-11-20T22:58:26.313Z</time>
      </trkpt>
      <trkpt lat="47.642005" lon="7.694694">
        <ele>308.612911</ele>
        <time>2021-11-20T22:58:26.977Z</time>
      </trkpt>
      <trkpt lat="47.641927" lon="7.694746">
        <ele>308.505252</ele>
        <time>2021-11-20T22:58:27.974Z</time>
      </trkpt>
      <trkpt lat="47.641609" lon="7.694939">
        <ele>308.280906</ele>
        <time>2021-11-20T22:58:32.084Z</time>
      </trkpt>
      <trkpt lat="47.641527" lon="7.694989">
        <ele>308.263572</ele>
        <time>2021-11-20T22:58:33.097Z</time>
      </trkpt>
      <trkpt lat="47.641385" lon="7.695039">
        <ele>308.235035</ele>
        <time>2021-11-20T22:58:35.030Z</time>
      </trkpt>
      <trkpt lat="47.641256" lon="7.695065">
        <ele>308.209580</ele>
        <time>2021-11-20T22:58:36.741Z</time>
      </trkpt>
      <trkpt lat="47.640982" lon="7.695057">
        <ele>308.155993</ele>
        <time>2021-11-20T22:58:40.624Z</time>
      </trkpt>
      <trkpt lat="47.640444" lon="7.695011">
        <ele>308.050621</ele>
        <time>2021-11-20T22:58:48.997Z</time>
      </trkpt>
      <trkpt lat="47.640267" lon="7.695017">
        <ele>308.016002</ele>
        <time>2021-11-20T22:58:52.107Z</time>
      </trkpt>
      <trkpt lat="47.639986" lon="7.695026">
        <ele>307.978906</ele>
        <time>2021-11-20T22:58:56.751Z</time>
      </trkpt>
      <trkpt lat="47.639972" lon="7.695026">
        <ele>307.983753</ele>
        <time>2021-11-20T22:58:57.041Z</time>
      </trkpt>
      <trkpt lat="47.639897" lon="7.695031">
        <ele>308.009748</ele>
        <time>2021-11-20T22:58:58.280Z</time>
      </trkpt>
      <trkpt lat="47.639833" lon="7.695037">
        <ele>308.031952</ele>
        <time>2021-11-20T22:58:59.308Z</time>
      </trkpt>
      <trkpt lat="47.639796" lon="7.695040">
        <ele>308.044783</ele>
        <time>2021-11-20T22:58:59.893Z</time>
      </trkpt>
      <trkpt lat="47.639745" lon="7.695043">
        <ele>308.062455</ele>
        <time>2021-11-20T22:59:00.717Z</time>
      </trkpt>
      <trkpt lat="47.639478" lon="7.695062">
        <ele>308.155010</ele>
        <time>2021-11-20T22:59:05.089Z</time>
      </trkpt>
      <trkpt lat="47.639240" lon="7.695052">
        <ele>308.237451</ele>
        <time>2021-11-20T22:59:08.879Z</time>
      </trkpt>
      <trkpt lat="47.639193" lon="7.695045">
        <ele>308.253806</ele>
        <time>2021-11-20T22:59:09.630Z</time>
      </trkpt>
      <trkpt lat="47.639024" lon="7.695016">
        <ele>308.312712</ele>
        <time>2021-11-20T22:59:12.236Z</time>
      </trkpt>
      <trkpt lat="47.638778" lon="7.694959">
        <ele>308.398922</ele>
        <time>2021-11-20T22:59:16.168Z</time>
      </trkpt>
      <trkpt lat="47.638565" lon="7.694903">
        <ele>308.473821</ele>
        <time>2021-11-20T22:59:19.440Z</time>
      </trkpt>
      <trkpt lat="47.638359" lon="7.694849">
        <ele>308.546253</ele>
        <time>2021-11-20T22:59:22.980Z</time>
      </trkpt>
      <trkpt lat="47.638336" lon="7.694843">
        <ele>308.554339</ele>
        <time>2021-11-20T22:59:23.351Z</time>
      </trkpt>
      <trkpt lat="47.638108" lon="7.694783">
        <ele>308.706304</ele>
        <time>2021-11-20T22:59:27.250Z</time>
      </trkpt>
      <trkpt lat="47.637884" lon="7.694724">
        <ele>308.912886</ele>
        <time>2021-11-20T22:59:31.079Z</time>
      </trkpt>
      <trkpt lat="47.637761" lon="7.694689">
        <ele>309.026611</ele>
        <time>2021-11-20T22:59:33.389Z</time>
      </trkpt>
      <trkpt lat="47.637648" lon="7.694652">
        <ele>309.131689</ele>
        <time>2021-11-20T22:59:35.466Z</time>
      </trkpt>
      <trkpt lat="47.637504" lon="7.694589">
        <ele>309.268012</ele>
        <time>2021-11-20T22:59:38.114Z</time>
      </trkpt>
      <trkpt lat="47.637408" lon="7.694555">
        <ele>309.357633</ele>
        <time>2021-11-20T22:59:39.955Z</time>
      </trkpt>
      <trkpt lat="47.637356" lon="7.694533">
        <ele>309.406733</ele>
        <time>2021-11-20T22:59:40.954Z</time>
      </trkpt>
      <trkpt lat="47.637176" lon="7.694468">
        <ele>309.574952</ele>
        <time>2021-11-20T22:59:44.237Z</time>
      </trkpt>
      <trkpt lat="47.636627" lon="7.694220">
        <ele>310.096057</ele>
        <time>2021-11-20T22:59:55.496Z</time>
      </trkpt>
      <trkpt lat="47.636107" lon="7.693985">
        <ele>310.544740</ele>
        <time>2021-11-20T23:00:06.749Z</time>
      </trkpt>
      <trkpt lat="47.635549" lon="7.693752">
        <ele>311.006538</ele>
        <time>2021-11-20T23:00:17.741Z</time>
      </trkpt>
      <trkpt lat="47.635429" lon="7.693811">
        <ele>311.107247</ele>
        <time>2021-11-20T23:00:20.365Z</time>
      </trkpt>
      <trkpt lat="47.635319" lon="7.693560">
        <ele>311.267980</ele>
        <time>2021-11-20T23:00:23.447Z</time>
      </trkpt>
      <trkpt lat="47.635263" lon="7.693458">
        <ele>311.338610</ele>
        <time>2021-11-20T23:00:24.993Z</time>
      </trkpt>
      <trkpt lat="47.635194" lon="7.693332">
        <ele>311.425770</ele>
        <time>2021-11-20T23:00:26.939Z</time>
      </trkpt>
      <trkpt lat="47.635074" lon="7.693170">
        <ele>311.555008</ele>
        <time>2021-11-20T23:00:29.176Z</time>
      </trkpt>
      <trkpt lat="47.634913" lon="7.692997">
        <ele>311.697453</ele>
        <time>2021-11-20T23:00:32.356Z</time>
      </trkpt>
      <trkpt lat="47.634764" lon="7.692840">
        <ele>311.802342</ele>
        <time>2021-11-20T23:00:34.826Z</time>
      </trkpt>
      <trkpt lat="47.634614" lon="7.692696">
        <ele>311.904885</ele>
        <time>2021-11-20T23:00:37.696Z</time>
      </trkpt>
      <trkpt lat="47.634464" lon="7.692573">
        <ele>312.003253</ele>
        <time>2021-11-20T23:00:40.008Z</time>
      </trkpt>
      <trkpt lat="47.634405" lon="7.692546">
        <ele>312.038691</ele>
        <time>2021-11-20T23:00:41.108Z</time>
      </trkpt>
      <trkpt lat="47.634345" lon="7.692519">
        <ele>312.074679</ele>
        <time>2021-11-20T23:00:42.252Z</time>
      </trkpt>
      <trkpt lat="47.634216" lon="7.692469">
        <ele>312.151207</ele>
        <time>2021-11-20T23:00:44.088Z</time>
      </trkpt>
      <trkpt lat="47.633633" lon="7.692190">
        <ele>312.502811</ele>
        <time>2021-11-20T23:00:54.377Z</time>
      </trkpt>
      <trkpt lat="47.633588" lon="7.692141">
        <ele>312.534848</ele>
        <time>2021-11-20T23:00:55.203Z</time>
      </trkpt>
      <trkpt lat="47.633399" lon="7.692413">
        <ele>312.685968</ele>
        <time>2021-11-20T23:01:01.127Z</time>
      </trkpt>
      <trkpt lat="47.633266" lon="7.692577">
        <ele>313.318711</ele>
        <time>2021-11-20T23:01:04.496Z</time>
      </trkpt>
      <trkpt lat="47.633202" lon="7.692660">
        <ele>313.637526</ele>
        <time>2021-11-20T23:01:06.680Z</time>
      </trkpt>
      <trkpt lat="47.633173" lon="7.692695">
        <ele>313.777736</ele>
        <time>2021-11-20T23:01:07.763Z</time>
      </trkpt>
      <trkpt lat="47.633091" lon="7.692798">
        <ele>314.180707</ele>
        <time>2021-11-20T23:01:09.873Z</time>
      </trkpt>
      <trkpt lat="47.632822" lon="7.693157">
        <ele>315.537733</ele>
        <time>2021-11-20T23:01:18.956Z</time>
      </trkpt>
      <trkpt lat="47.632763" lon="7.693227">
        <ele>315.821075</ele>
        <time>2021-11-20T23:01:20.838Z</time>
      </trkpt>
      <trkpt lat="47.632642" lon="7.693416">
        <ele>316.480029</ele>
        <time>2021-11-20T23:01:26.758Z</time>
      </trkpt>
      <trkpt lat="47.632526" lon="7.693622">
        <ele>317.158595</ele>
        <time>2021-11-20T23:01:33.091Z</time>
      </trkpt>
      <trkpt lat="47.632440" lon="7.693874">
        <ele>317.872598</ele>
        <time>2021-11-20T23:01:40.907Z</time>
      </trkpt>
      <trkpt lat="47.632297" lon="7.694443">
        <ele>319.407623</ele>
        <time>2021-11-20T23:01:55.932Z</time>
      </trkpt>
      <trkpt lat="47.632229" lon="7.694703">
        <ele>320.065226</ele>
        <time>2021-11-20T23:02:02.524Z</time>
      </trkpt>
      <trkpt lat="47.632164" lon="7.694950">
        <ele>320.688608</ele>
        <time>2021-11-20T23:02:08.900Z</time>
      </trkpt>
      <trkpt lat="47.632096" lon="7.695178">
        <ele>321.274767</ele>
        <time>2021-11-20T23:02:14.621Z</time>
      </trkpt>
      <trkpt lat="47.632076" lon="7.695243">
        <ele>321.442752</ele>
        <time>2021-11-20T23:02:16.220Z</time>
      </trkpt>
      <trkpt lat="47.631985" lon="7.695469">
        <ele>322.061680</ele>
        <time>2021-11-20T23:02:21.078Z</time>
      </trkpt>
      <trkpt lat="47.631973" lon="7.695502">
        <ele>322.149835</ele>
        <time>2021-11-20T23:02:23.258Z</time>
      </trkpt>
      <trkpt lat="47.631911" lon="7.695669">
        <ele>322.598078</ele>
        <time>2021-11-20T23:02:25.924Z</time>
      </trkpt>
      <trkpt lat="47.631816" lon="7.695863">
        <ele>323.161857</ele>
        <time>2021-11-20T23:02:30.370Z</time>
      </trkpt>
      <trkpt lat="47.631501" lon="7.695775">
        <ele>324.280068</ele>
        <time>2021-11-20T23:02:40.101Z</time>
      </trkpt>
      <trkpt lat="47.630920" lon="7.695687">
        <ele>325.735031</ele>
        <time>2021-11-20T23:02:57.309Z</time>
      </trkpt>
      <trkpt lat="47.630798" lon="7.695688">
        <ele>325.752457</ele>
        <time>2021-11-20T23:03:00.403Z</time>
      </trkpt>
      <trkpt lat="47.630492" lon="7.695689">
        <ele>325.796163</ele>
        <time>2021-11-20T23:03:08.069Z</time>
      </trkpt>
      <trkpt lat="47.629730" lon="7.695969">
        <ele>325.908287</ele>
        <time>2021-11-20T23:03:21.546Z</time>
      </trkpt>
      <trkpt lat="47.629568" lon="7.696115">
        <ele>325.935359</ele>
        <time>2021-11-20T23:03:25.081Z</time>
      </trkpt>
      <trkpt lat="47.629210" lon="7.696607">
        <ele>326.143687</ele>
        <time>2021-11-20T23:03:34.243Z</time>
      </trkpt>
      <trkpt lat="47.628516" lon="7.697169">
        <ele>326.668736</ele>
        <time>2021-11-20T23:03:51.837Z</time>
      </trkpt>
      <trkpt lat="47.628021" lon="7.697269">
        <ele>327.000495</ele>
        <time>2021-11-20T23:04:03.878Z</time>
      </trkpt>
      <trkpt lat="47.627884" lon="7.697343">
        <ele>327.097317</ele>
        <time>2021-11-20T23:04:06.859Z</time>
      </trkpt>
      <trkpt lat="47.627231" lon="7.697773">
        <ele>328.723705</ele>
        <time>2021-11-20T23:04:23.105Z</time>
      </trkpt>
      <trkpt lat="47.626452" lon="7.698602">
        <ele>331.148064</ele>
        <time>2021-11-20T23:04:47.995Z</time>
      </trkpt>
      <trkpt lat="47.626086" lon="7.698992">
        <ele>332.444394</ele>
        <time>2021-11-20T23:05:00.543Z</time>
      </trkpt>
      <trkpt lat="47.625461" lon="7.699273">
        <ele>334.544385</ele>
        <time>2021-11-20T23:05:19.145Z</time>
      </trkpt>
      <trkpt lat="47.625309" lon="7.699433">
        <ele>335.143666</ele>
        <time>2021-11-20T23:05:24.573Z</time>
      </trkpt>
      <trkpt lat="47.624857" lon="7.700230">
        <ele>337.401114</ele>
        <time>2021-11-20T23:05:44.457Z</time>
      </trkpt>
      <trkpt lat="47.624323" lon="7.701445">
        <ele>340.859541</ele>
        <time>2021-11-20T23:06:09.046Z</time>
      </trkpt>
      <trkpt lat="47.623958" lon="7.701951">
        <ele>342.631581</ele>
        <time>2021-11-20T23:06:25.310Z</time>
      </trkpt>
      <trkpt lat="47.623648" lon="7.702270">
        <ele>344.043371</ele>
        <time>2021-11-20T23:06:37.237Z</time>
      </trkpt>
      <trkpt lat="47.623513" lon="7.702279">
        <ele>344.891824</ele>
        <time>2021-11-20T23:06:40.854Z</time>
      </trkpt>
      <trkpt lat="47.623205" lon="7.702085">
        <ele>346.992649</ele>
        <time>2021-11-20T23:06:52.790Z</time>
      </trkpt>
      <trkpt lat="47.623108" lon="7.702060">
        <ele>347.610785</ele>
        <time>2021-11-20T23:06:55.650Z</time>
      </trkpt>
      <trkpt lat="47.622996" lon="7.702123">
        <ele>348.362818</ele>
        <time>2021-11-20T23:07:01.674Z</time>
      </trkpt>
      <trkpt lat="47.622874" lon="7.702287">
        <ele>349.396437</ele>
        <time>2021-11-20T23:07:07.125Z</time>
      </trkpt>
      <trkpt lat="47.622692" lon="7.702977">
        <ele>352.531985</ele>
        <time>2021-11-20T23:07:28.354Z</time>
      </trkpt>
      <trkpt lat="47.622344" lon="7.703662">
        <ele>356.508169</ele>
        <time>2021-11-20T23:07:54.820Z</time>
      </trkpt>
      <trkpt lat="47.621888" lon="7.704755">
        <ele>363.841107</ele>
        <time>2021-11-20T23:08:38.331Z</time>
      </trkpt>
      <trkpt lat="47.621789" lon="7.705094">
        <ele>365.948698</ele>
        <time>2021-11-20T23:08:50.673Z</time>
      </trkpt>
      <trkpt lat="47.621611" lon="7.706298">
        <ele>372.695632</ele>
        <time>2021-11-20T23:09:31.256Z</time>
      </trkpt>
      <trkpt lat="47.621593" lon="7.707590">
        <ele>379.257187</ele>
        <time>2021-11-20T23:10:12.781Z</time>
      </trkpt>
      <trkpt lat="47.621520" lon="7.707900">
        <ele>380.924517</ele>
        <time>2021-11-20T23:10:22.524Z</time>
      </trkpt>
      <trkpt lat="47.621330" lon="7.708277">
        <ele>383.314682</ele>
        <time>2021-11-20T23:10:35.541Z</time>
      </trkpt>
      <trkpt lat="47.621059" lon="7.709139">
        <ele>385.571200</ele>
        <time>2021-11-20T23:10:58.380Z</time>
      </trkpt>
      <trkpt lat="47.620944" lon="7.709648">
        <ele>386.628931</ele>
        <time>2021-11-20T23:11:09.050Z</time>
      </trkpt>
      <trkpt lat="47.620838" lon="7.710891">
        <ele>389.097560</ele>
        <time>2021-11-20T23:11:25.991Z</time>
      </trkpt>
      <trkpt lat="47.620668" lon="7.711439">
        <ele>389.156015</ele>
        <time>2021-11-20T23:11:31.474Z</time>
      </trkpt>
      <trkpt lat="47.620583" lon="7.712051">
        <ele>389.109221</ele>
        <time>2021-11-20T23:11:36.599Z</time>
      </trkpt>
      <trkpt lat="47.620562" lon="7.712881">
        <ele>389.047020</ele>
        <time>2021-11-20T23:11:43.509Z</time>
      </trkpt>
      <trkpt lat="47.620355" lon="7.714031">
        <ele>389.649266</ele>
        <time>2021-11-20T23:11:57.809Z</time>
      </trkpt>
      <trkpt lat="47.620154" lon="7.714902">
        <ele>390.781608</ele>
        <time>2021-11-20T23:12:10.950Z</time>
      </trkpt>
      <trkpt lat="47.620083" lon="7.715138">
        <ele>391.099481</ele>
        <time>2021-11-20T23:12:16.152Z</time>
      </trkpt>
      <trkpt lat="47.619370" lon="7.716703">
        <ele>392.790366</ele>
        <time>2021-11-20T23:12:47.506Z</time>
      </trkpt>
      <trkpt lat="47.619222" lon="7.716913">
        <ele>392.957316</ele>
        <time>2021-11-20T23:12:51.602Z</time>
      </trkpt>
      <trkpt lat="47.619037" lon="7.717037">
        <ele>393.122807</ele>
        <time>2021-11-20T23:12:54.870Z</time>
      </trkpt>
      <trkpt lat="47.618344" lon="7.717282">
        <ele>393.703565</ele>
        <time>2021-11-20T23:13:04.244Z</time>
      </trkpt>
      <trkpt lat="47.617832" lon="7.717579">
        <ele>394.036126</ele>
        <time>2021-11-20T23:13:11.289Z</time>
      </trkpt>
      <trkpt lat="47.617441" lon="7.717849">
        <ele>394.287560</ele>
        <time>2021-11-20T23:13:17.194Z</time>
      </trkpt>
      <trkpt lat="47.617269" lon="7.718018">
        <ele>394.407834</ele>
        <time>2021-11-20T23:13:20.282Z</time>
      </trkpt>
      <trkpt lat="47.617098" lon="7.718278">
        <ele>394.550587</ele>
        <time>2021-11-20T23:13:24.367Z</time>
      </trkpt>
      <trkpt lat="47.616298" lon="7.719670">
        <ele>398.185735</ele>
        <time>2021-11-20T23:13:56.847Z</time>
      </trkpt>
      <trkpt lat="47.615890" lon="7.720244">
        <ele>400.526388</ele>
        <time>2021-11-20T23:14:17.607Z</time>
      </trkpt>
      <trkpt lat="47.615630" lon="7.720579">
        <ele>401.959914</ele>
        <time>2021-11-20T23:14:30.384Z</time>
      </trkpt>
      <trkpt lat="47.615394" lon="7.720757">
        <ele>403.138290</ele>
        <time>2021-11-20T23:14:39.781Z</time>
      </trkpt>
      <trkpt lat="47.615110" lon="7.720843">
        <ele>404.462844</ele>
        <time>2021-11-20T23:14:50.074Z</time>
      </trkpt>
      <trkpt lat="47.614657" lon="7.720991">
        <ele>406.582523</ele>
        <time>2021-11-20T23:15:05.761Z</time>
      </trkpt>
      <trkpt lat="47.614307" lon="7.721193">
        <ele>408.298699</ele>
        <time>2021-11-20T23:15:18.328Z</time>
      </trkpt>
      <trkpt lat="47.613293" lon="7.722239">
        <ele>413.342567</ele>
        <time>2021-11-20T23:15:54.750Z</time>
      </trkpt>
      <trkpt lat="47.613151" lon="7.722474">
        <ele>414.145260</ele>
        <time>2021-11-20T23:16:01.086Z</time>
      </trkpt>
      <trkpt lat="47.612626" lon="7.724023">
        <ele>418.168115</ele>
        <time>2021-11-20T23:16:36.315Z</time>
      </trkpt>
      <trkpt lat="47.612294" lon="7.725494">
        <ele>420.909580</ele>
        <time>2021-11-20T23:17:06.908Z</time>
      </trkpt>
      <trkpt lat="47.611696" lon="7.727069">
        <ele>420.387486</ele>
        <time>2021-11-20T23:17:23.887Z</time>
      </trkpt>
      <trkpt lat="47.611558" lon="7.727374">
        <ele>419.888741</ele>
        <time>2021-11-20T23:17:26.581Z</time>
      </trkpt>
      <trkpt lat="47.611673" lon="7.727743">
        <ele>419.336776</ele>
        <time>2021-11-20T23:17:29.309Z</time>
      </trkpt>
      <trkpt lat="47.611794" lon="7.728207">
        <ele>418.661279</ele>
        <time>2021-11-20T23:17:32.607Z</time>
      </trkpt>
      <trkpt lat="47.612102" lon="7.728839">
        <ele>416.343348</ele>
        <time>2021-11-20T23:17:37.622Z</time>
      </trkpt>
      <trkpt lat="47.612234" lon="7.729223">
        <ele>414.810115</ele>
        <time>2021-11-20T23:17:40.311Z</time>
      </trkpt>
      <trkpt lat="47.612445" lon="7.730023">
        <ele>411.754443</ele>
        <time>2021-11-20T23:17:45.656Z</time>
      </trkpt>
      <trkpt lat="47.612490" lon="7.730332">
        <ele>410.629964</ele>
        <time>2021-11-20T23:17:47.663Z</time>
      </trkpt>
      <trkpt lat="47.612414" lon="7.731732">
        <ele>404.974597</ele>
        <time>2021-11-20T23:17:56.475Z</time>
      </trkpt>
      <trkpt lat="47.612582" lon="7.733083">
        <ele>399.098166</ele>
        <time>2021-11-20T23:18:04.786Z</time>
      </trkpt>
      <trkpt lat="47.612580" lon="7.733841">
        <ele>395.967859</ele>
        <time>2021-11-20T23:18:09.451Z</time>
      </trkpt>
      <trkpt lat="47.612580" lon="7.733842">
        <ele>395.963877</ele>
        <time>2021-11-20T23:18:09.481Z</time>
      </trkpt>
      <trkpt lat="47.612562" lon="7.734273">
        <ele>394.244449</ele>
        <time>2021-11-20T23:18:12.251Z</time>
      </trkpt>
      <trkpt lat="47.612560" lon="7.734334">
        <ele>394.001275</ele>
        <time>2021-11-20T23:18:12.619Z</time>
      </trkpt>
      <trkpt lat="47.612558" lon="7.734604">
        <ele>392.926134</ele>
        <time>2021-11-20T23:18:14.256Z</time>
      </trkpt>
      <trkpt lat="47.612618" lon="7.734756">
        <ele>392.224786</ele>
        <time>2021-11-20T23:18:15.355Z</time>
      </trkpt>
      <trkpt lat="47.612755" lon="7.734867">
        <ele>391.302770</ele>
        <time>2021-11-20T23:18:16.748Z</time>
      </trkpt>
      <trkpt lat="47.613181" lon="7.734997">
        <ele>388.733942</ele>
        <time>2021-11-20T23:18:20.762Z</time>
      </trkpt>
      <trkpt lat="47.613390" lon="7.735211">
        <ele>387.233976</ele>
        <time>2021-11-20T23:18:23.071Z</time>
      </trkpt>
      <trkpt lat="47.613434" lon="7.735397">
        <ele>386.698097</ele>
        <time>2021-11-20T23:18:24.354Z</time>
      </trkpt>
      <trkpt lat="47.613375" lon="7.735736">
        <ele>386.163057</ele>
        <time>2021-11-20T23:18:26.665Z</time>
      </trkpt>
      <trkpt lat="47.613317" lon="7.735838">
        <ele>385.959136</ele>
        <time>2021-11-20T23:18:27.627Z</time>
      </trkpt>
      <trkpt lat="47.613210" lon="7.735944">
        <ele>385.667461</ele>
        <time>2021-11-20T23:18:28.885Z</time>
      </trkpt>
      <trkpt lat="47.612712" lon="7.736151">
        <ele>384.495063</ele>
        <time>2021-11-20T23:18:34.521Z</time>
      </trkpt>
      <trkpt lat="47.612447" lon="7.736778">
        <ele>383.364138</ele>
        <time>2021-11-20T23:18:40.268Z</time>
      </trkpt>
      <trkpt lat="47.612194" lon="7.737048">
        <ele>382.853071</ele>
        <time>2021-11-20T23:18:44.584Z</time>
      </trkpt>
      <trkpt lat="47.612044" lon="7.737224">
        <ele>383.136247</ele>
        <time>2021-11-20T23:18:47.306Z</time>
      </trkpt>
      <trkpt lat="47.611965" lon="7.737457">
        <ele>383.396577</ele>
        <time>2021-11-20T23:18:50.704Z</time>
      </trkpt>
      <trkpt lat="47.611893" lon="7.737711">
        <ele>383.671612</ele>
        <time>2021-11-20T23:18:54.388Z</time>
      </trkpt>
      <trkpt lat="47.611872" lon="7.738156">
        <ele>384.116884</ele>
        <time>2021-11-20T23:19:00.768Z</time>
      </trkpt>
      <trkpt lat="47.611785" lon="7.738609">
        <ele>384.587044</ele>
        <time>2021-11-20T23:19:07.574Z</time>
      </trkpt>
      <trkpt lat="47.611751" lon="7.738698">
        <ele>384.689154</ele>
        <time>2021-11-20T23:19:09.592Z</time>
      </trkpt>
      <trkpt lat="47.611684" lon="7.738828">
        <ele>384.852492</ele>
        <time>2021-11-20T23:19:12.093Z</time>
      </trkpt>
      <trkpt lat="47.611618" lon="7.738936">
        <ele>384.997994</ele>
        <time>2021-11-20T23:19:14.399Z</time>
      </trkpt>
      <trkpt lat="47.611382" lon="7.739254">
        <ele>385.493428</ele>
        <time>2021-11-20T23:19:22.484Z</time>
      </trkpt>
      <trkpt lat="47.611129" lon="7.739819">
        <ele>386.679021</ele>
        <time>2021-11-20T23:19:34.982Z</time>
      </trkpt>
      <trkpt lat="47.610898" lon="7.741056">
        <ele>388.922657</ele>
        <time>2021-11-20T23:19:56.984Z</time>
      </trkpt>
      <trkpt lat="47.610871" lon="7.741420">
        <ele>389.562753</ele>
        <time>2021-11-20T23:20:02.416Z</time>
      </trkpt>
      <trkpt lat="47.610879" lon="7.741793">
        <ele>390.243877</ele>
        <time>2021-11-20T23:20:08.167Z</time>
      </trkpt>
      <trkpt lat="47.611010" lon="7.743033">
        <ele>392.999041</ele>
        <time>2021-11-20T23:20:30.726Z</time>
      </trkpt>
      <trkpt lat="47.611161" lon="7.743634">
        <ele>394.406943</ele>
        <time>2021-11-20T23:20:43.963Z</time>
      </trkpt>
      <trkpt lat="47.611241" lon="7.743837">
        <ele>394.923100</ele>
        <time>2021-11-20T23:20:48.786Z</time>
      </trkpt>
      <trkpt lat="47.611456" lon="7.744262">
        <ele>396.086239</ele>
        <time>2021-11-20T23:20:59.162Z</time>
      </trkpt>
      <trkpt lat="47.611609" lon="7.744853">
        <ele>397.441534</ele>
        <time>2021-11-20T23:21:11.372Z</time>
      </trkpt>
      <trkpt lat="47.611651" lon="7.745141">
        <ele>398.072345</ele>
        <time>2021-11-20T23:21:17.854Z</time>
      </trkpt>
      <trkpt lat="47.611691" lon="7.745486">
        <ele>398.821763</ele>
        <time>2021-11-20T23:21:24.483Z</time>
      </trkpt>
      <trkpt lat="47.611647" lon="7.746050">
        <ele>400.037229</ele>
        <time>2021-11-20T23:21:35.780Z</time>
      </trkpt>
      <trkpt lat="47.611508" lon="7.746851">
        <ele>401.711909</ele>
        <time>2021-11-20T23:21:49.559Z</time>
      </trkpt>
      <trkpt lat="47.611423" lon="7.747196">
        <ele>401.948326</ele>
        <time>2021-11-20T23:21:55.462Z</time>
      </trkpt>
      <trkpt lat="47.611024" lon="7.748403">
        <ele>402.813562</ele>
        <time>2021-11-20T23:22:10.882Z</time>
      </trkpt>
      <trkpt lat="47.610897" lon="7.748667">
        <ele>403.022307</ele>
        <time>2021-11-20T23:22:14.090Z</time>
      </trkpt>
      <trkpt lat="47.610399" lon="7.749144">
        <ele>403.850633</ele>
        <time>2021-11-20T23:22:23.864Z</time>
      </trkpt>
      <trkpt lat="47.610331" lon="7.749289">
        <ele>404.113144</ele>
        <time>2021-11-20T23:22:25.943Z</time>
      </trkpt>
      <trkpt lat="47.610303" lon="7.749507">
        <ele>404.442963</ele>
        <time>2021-11-20T23:22:28.857Z</time>
      </trkpt>
      <trkpt lat="47.610345" lon="7.749815">
        <ele>404.909984</ele>
        <time>2021-11-20T23:22:33.813Z</time>
      </trkpt>
      <trkpt lat="47.610520" lon="7.750319">
        <ele>405.752539</ele>
        <time>2021-11-20T23:22:43.146Z</time>
      </trkpt>
      <trkpt lat="47.610643" lon="7.750603">
        <ele>406.254212</ele>
        <time>2021-11-20T23:22:48.605Z</time>
      </trkpt>
      <trkpt lat="47.610714" lon="7.750722">
        <ele>406.490382</ele>
        <time>2021-11-20T23:22:51.636Z</time>
      </trkpt>
      <trkpt lat="47.611094" lon="7.750951">
        <ele>407.454067</ele>
        <time>2021-11-20T23:23:03.187Z</time>
      </trkpt>
      <trkpt lat="47.611197" lon="7.751064">
        <ele>408.139914</ele>
        <time>2021-11-20T23:23:06.383Z</time>
      </trkpt>
      <trkpt lat="47.611255" lon="7.751205">
        <ele>408.736053</ele>
        <time>2021-11-20T23:23:09.873Z</time>
      </trkpt>
      <trkpt lat="47.611288" lon="7.751378">
        <ele>409.384946</ele>
        <time>2021-11-20T23:23:13.889Z</time>
      </trkpt>
      <trkpt lat="47.611242" lon="7.752336">
        <ele>412.851255</ele>
        <time>2021-11-20T23:23:36.795Z</time>
      </trkpt>
      <trkpt lat="47.611269" lon="7.753071">
        <ele>415.507904</ele>
        <time>2021-11-20T23:23:57.509Z</time>
      </trkpt>
      <trkpt lat="47.611310" lon="7.753428">
        <ele>416.814927</ele>
        <time>2021-11-20T23:24:07.232Z</time>
      </trkpt>
      <trkpt lat="47.611506" lon="7.753985">
        <ele>419.867032</ele>
        <time>2021-11-20T23:24:24.545Z</time>
      </trkpt>
      <trkpt lat="47.611701" lon="7.754245">
        <ele>421.794943</ele>
        <time>2021-11-20T23:24:35.849Z</time>
      </trkpt>
      <trkpt lat="47.611848" lon="7.754391">
        <ele>423.095730</ele>
        <time>2021-11-20T23:24:43.575Z</time>
      </trkpt>
      <trkpt lat="47.612146" lon="7.754726">
        <ele>425.845030</ele>
        <time>2021-11-20T23:25:00.459Z</time>
      </trkpt>
      <trkpt lat="47.612192" lon="7.754954">
        <ele>427.024732</ele>
        <time>2021-11-20T23:25:08.154Z</time>
      </trkpt>
      <trkpt lat="47.612161" lon="7.755353">
        <ele>429.015628</ele>
        <time>2021-11-20T23:25:20.087Z</time>
      </trkpt>
      <trkpt lat="47.612159" lon="7.755380">
        <ele>429.150270</ele>
        <time>2021-11-20T23:25:21.976Z</time>
      </trkpt>
      <trkpt lat="47.612161" lon="7.755449">
        <ele>429.492613</ele>
        <time>2021-11-20T23:25:24.107Z</time>
      </trkpt>
      <trkpt lat="47.612172" lon="7.755521">
        <ele>429.858560</ele>
        <time>2021-11-20T23:25:26.260Z</time>
      </trkpt>
      <trkpt lat="47.612196" lon="7.755580">
        <ele>430.200134</ele>
        <time>2021-11-20T23:25:28.355Z</time>
      </trkpt>
      <trkpt lat="47.612248" lon="7.755635">
        <ele>430.674635</ele>
        <time>2021-11-20T23:25:31.409Z</time>
      </trkpt>
      <trkpt lat="47.612387" lon="7.755703">
        <ele>431.762253</ele>
        <time>2021-11-20T23:25:38.404Z</time>
      </trkpt>
      <trkpt lat="47.612451" lon="7.755754">
        <ele>432.302111</ele>
        <time>2021-11-20T23:25:42.127Z</time>
      </trkpt>
      <trkpt lat="47.612481" lon="7.755809">
        <ele>432.656524</ele>
        <time>2021-11-20T23:25:44.447Z</time>
      </trkpt>
      <trkpt lat="47.612503" lon="7.755886">
        <ele>433.075467</ele>
        <time>2021-11-20T23:25:46.903Z</time>
      </trkpt>
      <trkpt lat="47.612539" lon="7.756079">
        <ele>434.078623</ele>
        <time>2021-11-20T23:25:53.143Z</time>
      </trkpt>
      <trkpt lat="47.612595" lon="7.756458">
        <ele>436.022282</ele>
        <time>2021-11-20T23:26:04.499Z</time>
      </trkpt>
      <trkpt lat="47.612635" lon="7.756867">
        <ele>438.092602</ele>
        <time>2021-11-20T23:26:17.477Z</time>
      </trkpt>
      <trkpt lat="47.612654" lon="7.757180">
        <ele>439.666909</ele>
        <time>2021-11-20T23:26:26.929Z</time>
      </trkpt>
      <trkpt lat="47.612657" lon="7.757559">
        <ele>441.565627</ele>
        <time>2021-11-20T23:26:38.743Z</time>
      </trkpt>
      <trkpt lat="47.612671" lon="7.757751">
        <ele>442.533054</ele>
        <time>2021-11-20T23:26:44.589Z</time>
      </trkpt>
      <trkpt lat="47.612697" lon="7.758003">
        <ele>443.706768</ele>
        <time>2021-11-20T23:26:50.877Z</time>
      </trkpt>
      <trkpt lat="47.612718" lon="7.758199">
        <ele>444.267925</ele>
        <time>2021-11-20T23:26:57.098Z</time>
      </trkpt>
      <trkpt lat="47.612779" lon="7.758543">
        <ele>445.273689</ele>
        <time>2021-11-20T23:27:04.982Z</time>
      </trkpt>
      <trkpt lat="47.612830" lon="7.758759">
        <ele>445.920816</ele>
        <time>2021-11-20T23:27:11.400Z</time>
      </trkpt>
      <trkpt lat="47.612944" lon="7.759245">
        <ele>447.375814</ele>
        <time>2021-11-20T23:27:22.635Z</time>
      </trkpt>
      <trkpt lat="47.613053" lon="7.759623">
        <ele>448.538297</ele>
        <time>2021-11-20T23:27:30.194Z</time>
      </trkpt>
      <trkpt lat="47.613205" lon="7.760080">
        <ele>449.979195</ele>
        <time>2021-11-20T23:27:39.945Z</time>
      </trkpt>
      <trkpt lat="47.613222" lon="7.760189">
        <ele>450.295536</ele>
        <time>2021-11-20T23:27:42.360Z</time>
      </trkpt>
      <trkpt lat="47.613231" lon="7.760404">
        <ele>450.904624</ele>
        <time>2021-11-20T23:27:45.577Z</time>
      </trkpt>
      <trkpt lat="47.613148" lon="7.760607">
        <ele>451.201628</ele>
        <time>2021-11-20T23:27:49.119Z</time>
      </trkpt>
      <trkpt lat="47.613059" lon="7.760674">
        <ele>451.278897</ele>
        <time>2021-11-20T23:27:51.544Z</time>
      </trkpt>
      <trkpt lat="47.612960" lon="7.760706">
        <ele>451.357341</ele>
        <time>2021-11-20T23:27:53.601Z</time>
      </trkpt>
      <trkpt lat="47.612812" lon="7.760726">
        <ele>451.472397</ele>
        <time>2021-11-20T23:27:56.449Z</time>
      </trkpt>
      <trkpt lat="47.612630" lon="7.760759">
        <ele>451.614350</ele>
        <time>2021-11-20T23:27:59.710Z</time>
      </trkpt>
      <trkpt lat="47.612523" lon="7.760811">
        <ele>451.701522</ele>
        <time>2021-11-20T23:28:01.620Z</time>
      </trkpt>
      <trkpt lat="47.612441" lon="7.760890">
        <ele>451.777220</ele>
        <time>2021-11-20T23:28:03.162Z</time>
      </trkpt>
      <trkpt lat="47.612441" lon="7.760890">
        <ele>451.777220</ele>
        <time>2021-11-20T23:28:03.165Z</time>
      </trkpt>
      <trkpt lat="47.612127" lon="7.761383">
        <ele>452.131203</ele>
        <time>2021-11-20T23:28:09.973Z</time>
      </trkpt>
      <trkpt lat="47.612075" lon="7.761435">
        <ele>452.179756</ele>
        <time>2021-11-20T23:28:10.899Z</time>
      </trkpt>
      <trkpt lat="47.612022" lon="7.761449">
        <ele>452.221434</ele>
        <time>2021-11-20T23:28:11.715Z</time>
      </trkpt>
      <trkpt lat="47.611933" lon="7.761457">
        <ele>452.290464</ele>
        <time>2021-11-20T23:28:13.012Z</time>
      </trkpt>
      <trkpt lat="47.610854" lon="7.761285">
        <ele>453.348841</ele>
        <time>2021-11-20T23:28:30.497Z</time>
      </trkpt>
      <trkpt lat="47.610760" lon="7.761304">
        <ele>453.448087</ele>
        <time>2021-11-20T23:28:32.157Z</time>
      </trkpt>
      <trkpt lat="47.610601" lon="7.761374">
        <ele>453.621594</ele>
        <time>2021-11-20T23:28:35.429Z</time>
      </trkpt>
      <trkpt lat="47.610565" lon="7.761273">
        <ele>453.702169</ele>
        <time>2021-11-20T23:28:36.971Z</time>
      </trkpt>
      <trkpt lat="47.610488" lon="7.761190">
        <ele>453.801745</ele>
        <time>2021-11-20T23:28:38.768Z</time>
      </trkpt>
      <trkpt lat="47.610076" lon="7.761100">
        <ele>454.237402</ele>
        <time>2021-11-20T23:28:47.663Z</time>
      </trkpt>
      <trkpt lat="47.608938" lon="7.760829">
        <ele>456.473639</ele>
        <time>2021-11-20T23:29:16.004Z</time>
      </trkpt>
      <trkpt lat="47.607825" lon="7.760537">
        <ele>458.288040</ele>
        <time>2021-11-20T23:29:41.494Z</time>
      </trkpt>
      <trkpt lat="47.607246" lon="7.760369">
        <ele>458.589612</ele>
        <time>2021-11-20T23:29:51.498Z</time>
      </trkpt>
      <trkpt lat="47.606171" lon="7.760045">
        <ele>459.140757</ele>
        <time>2021-11-20T23:30:06.862Z</time>
      </trkpt>
      <trkpt lat="47.605536" lon="7.759853">
        <ele>459.444501</ele>
        <time>2021-11-20T23:30:16.932Z</time>
      </trkpt>
      <trkpt lat="47.605325" lon="7.759787">
        <ele>459.545572</ele>
        <time>2021-11-20T23:30:20.742Z</time>
      </trkpt>
      <trkpt lat="47.604633" lon="7.759635">
        <ele>459.873448</ele>
        <time>2021-11-20T23:30:33.908Z</time>
      </trkpt>
      <trkpt lat="47.604421" lon="7.759606">
        <ele>459.703684</ele>
        <time>2021-11-20T23:30:38.132Z</time>
      </trkpt>
      <trkpt lat="47.604088" lon="7.759601">
        <ele>459.417926</ele>
        <time>2021-11-20T23:30:44.072Z</time>
      </trkpt>
      <trkpt lat="47.603613" lon="7.759659">
        <ele>459.008956</ele>
        <time>2021-11-20T23:30:50.928Z</time>
      </trkpt>
      <trkpt lat="47.603173" lon="7.759766">
        <ele>458.626356</ele>
        <time>2021-11-20T23:30:56.177Z</time>
      </trkpt>
      <trkpt lat="47.602902" lon="7.759841">
        <ele>458.389801</ele>
        <time>2021-11-20T23:30:59.156Z</time>
      </trkpt>
      <trkpt lat="47.602078" lon="7.760047">
        <ele>454.142946</ele>
        <time>2021-11-20T23:31:07.134Z</time>
      </trkpt>
      <trkpt lat="47.601600" lon="7.760073">
        <ele>451.543546</ele>
        <time>2021-11-20T23:31:11.532Z</time>
      </trkpt>
      <trkpt lat="47.601336" lon="7.760030">
        <ele>450.100232</ele>
        <time>2021-11-20T23:31:13.929Z</time>
      </trkpt>
      <trkpt lat="47.601032" lon="7.760002">
        <ele>448.407457</ele>
        <time>2021-11-20T23:31:16.665Z</time>
      </trkpt>
      <trkpt lat="47.600757" lon="7.759977">
        <ele>446.421790</ele>
        <time>2021-11-20T23:31:19.106Z</time>
      </trkpt>
      <trkpt lat="47.599976" lon="7.759788">
        <ele>440.718615</ele>
        <time>2021-11-20T23:31:26.201Z</time>
      </trkpt>
      <trkpt lat="47.599727" lon="7.759652">
        <ele>438.806213</ele>
        <time>2021-11-20T23:31:28.545Z</time>
      </trkpt>
      <trkpt lat="47.599495" lon="7.759407">
        <ele>436.753563</ele>
        <time>2021-11-20T23:31:31.089Z</time>
      </trkpt>
      <trkpt lat="47.599369" lon="7.759291">
        <ele>435.684718</ele>
        <time>2021-11-20T23:31:32.398Z</time>
      </trkpt>
      <trkpt lat="47.599038" lon="7.759240">
        <ele>433.327749</ele>
        <time>2021-11-20T23:31:35.419Z</time>
      </trkpt>
      <trkpt lat="47.598636" lon="7.759436">
        <ele>430.332598</ele>
        <time>2021-11-20T23:31:39.251Z</time>
      </trkpt>
      <trkpt lat="47.598492" lon="7.759485">
        <ele>429.286893</ele>
        <time>2021-11-20T23:31:40.585Z</time>
      </trkpt>
      <trkpt lat="47.598314" lon="7.759510">
        <ele>428.021387</ele>
        <time>2021-11-20T23:31:42.165Z</time>
      </trkpt>
      <trkpt lat="47.597328" lon="7.759556">
        <ele>420.638910</ele>
        <time>2021-11-20T23:31:51.044Z</time>
      </trkpt>
      <trkpt lat="47.596893" lon="7.759520">
        <ele>416.879864</ele>
        <time>2021-11-20T23:31:54.900Z</time>
      </trkpt>
      <trkpt lat="47.596644" lon="7.759494">
        <ele>414.726157</ele>
        <time>2021-11-20T23:31:57.051Z</time>
      </trkpt>
      <trkpt lat="47.596241" lon="7.759593">
        <ele>411.201661</ele>
        <time>2021-11-20T23:32:00.632Z</time>
      </trkpt>
      <trkpt lat="47.596134" lon="7.759703">
        <ele>410.078306</ele>
        <time>2021-11-20T23:32:01.775Z</time>
      </trkpt>
      <trkpt lat="47.596041" lon="7.759870">
        <ele>408.818149</ele>
        <time>2021-11-20T23:32:03.011Z</time>
      </trkpt>
      <trkpt lat="47.595854" lon="7.760335">
        <ele>405.535219</ele>
        <time>2021-11-20T23:32:06.152Z</time>
      </trkpt>
      <trkpt lat="47.595755" lon="7.760659">
        <ele>403.301903</ele>
        <time>2021-11-20T23:32:08.259Z</time>
      </trkpt>
      <trkpt lat="47.595685" lon="7.760825">
        <ele>402.072676</ele>
        <time>2021-11-20T23:32:09.369Z</time>
      </trkpt>
      <trkpt lat="47.595483" lon="7.761108">
        <ele>399.485375</ele>
        <time>2021-11-20T23:32:11.800Z</time>
      </trkpt>
      <trkpt lat="47.595086" lon="7.761325">
        <ele>395.546049</ele>
        <time>2021-11-20T23:32:15.431Z</time>
      </trkpt>
      <trkpt lat="47.594411" lon="7.761312">
        <ele>389.724560</ele>
        <time>2021-11-20T23:32:21.333Z</time>
      </trkpt>
      <trkpt lat="47.593803" lon="7.761400">
        <ele>386.003593</ele>
        <time>2021-11-20T23:32:26.855Z</time>
      </trkpt>
      <trkpt lat="47.593758" lon="7.761384">
        <ele>385.721725</ele>
        <time>2021-11-20T23:32:27.268Z</time>
      </trkpt>
      <trkpt lat="47.593513" lon="7.761296">
        <ele>384.186258</ele>
        <time>2021-11-20T23:32:29.618Z</time>
      </trkpt>
      <trkpt lat="47.593211" lon="7.761047">
        <ele>382.081515</ele>
        <time>2021-11-20T23:32:32.842Z</time>
      </trkpt>
      <trkpt lat="47.592736" lon="7.760559">
        <ele>378.905913</ele>
        <time>2021-11-20T23:32:38.342Z</time>
      </trkpt>
      <trkpt lat="47.592317" lon="7.760056">
        <ele>376.664732</ele>
        <time>2021-11-20T23:32:43.705Z</time>
      </trkpt>
      <trkpt lat="47.592205" lon="7.759833">
        <ele>375.885190</ele>
        <time>2021-11-20T23:32:45.510Z</time>
      </trkpt>
      <trkpt lat="47.591959" lon="7.759015">
        <ele>373.374111</ele>
        <time>2021-11-20T23:32:51.401Z</time>
      </trkpt>
      <trkpt lat="47.591911" lon="7.758184">
        <ele>370.590834</ele>
        <time>2021-11-20T23:32:56.934Z</time>
      </trkpt>
      <trkpt lat="47.591923" lon="7.757894">
        <ele>369.456324</ele>
        <time>2021-11-20T23:32:58.749Z</time>
      </trkpt>
      <trkpt lat="47.591970" lon="7.757544">
        <ele>368.062830</ele>
        <time>2021-11-20T23:33:01.026Z</time>
      </trkpt>
      <trkpt lat="47.592034" lon="7.757251">
        <ele>366.860225</ele>
        <time>2021-11-20T23:33:02.901Z</time>
      </trkpt>
      <trkpt lat="47.592097" lon="7.757042">
        <ele>365.966323</ele>
        <time>2021-11-20T23:33:04.324Z</time>
      </trkpt>
      <trkpt lat="47.592316" lon="7.756315">
        <ele>362.857259</ele>
        <time>2021-11-20T23:33:09.184Z</time>
      </trkpt>
      <trkpt lat="47.592371" lon="7.756099">
        <ele>361.955723</ele>
        <time>2021-11-20T23:33:10.597Z</time>
      </trkpt>
      <trkpt lat="47.592426" lon="7.755881">
        <ele>361.120812</ele>
        <time>2021-11-20T23:33:11.979Z</time>
      </trkpt>
      <trkpt lat="47.592484" lon="7.755586">
        <ele>360.046320</ele>
        <time>2021-11-20T23:33:13.852Z</time>
      </trkpt>
      <trkpt lat="47.592501" lon="7.755402">
        <ele>359.396903</ele>
        <time>2021-11-20T23:33:14.975Z</time>
      </trkpt>
      <trkpt lat="47.592485" lon="7.755255">
        <ele>358.876225</ele>
        <time>2021-11-20T23:33:15.880Z</time>
      </trkpt>
      <trkpt lat="47.592241" lon="7.754241">
        <ele>355.111538</ele>
        <time>2021-11-20T23:33:22.596Z</time>
      </trkpt>
      <trkpt lat="47.592004" lon="7.753676">
        <ele>352.784859</ele>
        <time>2021-11-20T23:33:26.933Z</time>
      </trkpt>
      <trkpt lat="47.591881" lon="7.753444">
        <ele>352.431754</ele>
        <time>2021-11-20T23:33:28.942Z</time>
      </trkpt>
      <trkpt lat="47.590881" lon="7.751756">
        <ele>352.468956</ele>
        <time>2021-11-20T23:33:53.318Z</time>
      </trkpt>
      <trkpt lat="47.590052" lon="7.749933">
        <ele>355.506152</ele>
        <time>2021-11-20T23:34:32.628Z</time>
      </trkpt>
      <trkpt lat="47.589642" lon="7.749241">
        <ele>356.494215</ele>
        <time>2021-11-20T23:34:46.940Z</time>
      </trkpt>
      <trkpt lat="47.588960" lon="7.748448">
        <ele>356.030302</ele>
        <time>2021-11-20T23:34:59.189Z</time>
      </trkpt>
      <trkpt lat="47.588242" lon="7.747872">
        <ele>355.429403</ele>
        <time>2021-11-20T23:35:08.980Z</time>
      </trkpt>
      <trkpt lat="47.588045" lon="7.747763">
        <ele>354.379063</ele>
        <time>2021-11-20T23:35:11.195Z</time>
      </trkpt>
      <trkpt lat="47.588045" lon="7.747762">
        <ele>354.375694</ele>
        <time>2021-11-20T23:35:11.210Z</time>
      </trkpt>
      <trkpt lat="47.587944" lon="7.747712">
        <ele>353.843799</ele>
        <time>2021-11-20T23:35:12.329Z</time>
      </trkpt>
      <trkpt lat="47.587676" lon="7.747616">
        <ele>352.466571</ele>
        <time>2021-11-20T23:35:14.952Z</time>
      </trkpt>
      <trkpt lat="47.587231" lon="7.747583">
        <ele>350.240930</ele>
        <time>2021-11-20T23:35:19.126Z</time>
      </trkpt>
      <trkpt lat="47.587012" lon="7.747608">
        <ele>349.143744</ele>
        <time>2021-11-20T23:35:21.156Z</time>
      </trkpt>
      <trkpt lat="47.586901" lon="7.747621">
        <ele>348.587550</ele>
        <time>2021-11-20T23:35:22.154Z</time>
      </trkpt>
      <trkpt lat="47.586219" lon="7.747726">
        <ele>344.375257</ele>
        <time>2021-11-20T23:35:28.343Z</time>
      </trkpt>
      <trkpt lat="47.585600" lon="7.747675">
        <ele>339.615376</ele>
        <time>2021-11-20T23:35:33.826Z</time>
      </trkpt>
      <trkpt lat="47.585275" lon="7.747497">
        <ele>336.955279</ele>
        <time>2021-11-20T23:35:36.843Z</time>
      </trkpt>
      <trkpt lat="47.584788" lon="7.747084">
        <ele>332.709796</ele>
        <time>2021-11-20T23:35:41.793Z</time>
      </trkpt>
      <trkpt lat="47.584325" lon="7.746826">
        <ele>330.289834</ele>
        <time>2021-11-20T23:35:46.288Z</time>
      </trkpt>
      <trkpt lat="47.583935" lon="7.746691">
        <ele>328.330427</ele>
        <time>2021-11-20T23:35:50.009Z</time>
      </trkpt>
      <trkpt lat="47.580800" lon="7.746847">
        <ele>316.890017</ele>
        <time>2021-11-20T23:36:21.821Z</time>
      </trkpt>
      <trkpt lat="47.580195" lon="7.746761">
        <ele>314.944464</ele>
        <time>2021-11-20T23:36:28.085Z</time>
      </trkpt>
      <trkpt lat="47.580176" lon="7.746758">
        <ele>314.883299</ele>
        <time>2021-11-20T23:36:28.253Z</time>
      </trkpt>
      <trkpt lat="47.579910" lon="7.746660">
        <ele>314.005902</ele>
        <time>2021-11-20T23:36:31.081Z</time>
      </trkpt>
      <trkpt lat="47.579370" lon="7.746311">
        <ele>312.104984</ele>
        <time>2021-11-20T23:36:36.990Z</time>
      </trkpt>
      <trkpt lat="47.578248" lon="7.745231">
        <ele>307.685616</ele>
        <time>2021-11-20T23:36:50.401Z</time>
      </trkpt>
      <trkpt lat="47.578014" lon="7.745032">
        <ele>306.794422</ele>
        <time>2021-11-20T23:36:53.147Z</time>
      </trkpt>
      <trkpt lat="47.577765" lon="7.744854">
        <ele>305.949507</ele>
        <time>2021-11-20T23:36:56.003Z</time>
      </trkpt>
      <trkpt lat="47.576822" lon="7.744396">
        <ele>302.961465</ele>
        <time>2021-11-20T23:37:06.174Z</time>
      </trkpt>
      <trkpt lat="47.575733" lon="7.744190">
        <ele>299.893724</ele>
        <time>2021-11-20T23:37:17.468Z</time>
      </trkpt>
      <trkpt lat="47.575417" lon="7.744166">
        <ele>299.084347</ele>
        <time>2021-11-20T23:37:20.753Z</time>
      </trkpt>
      <trkpt lat="47.575173" lon="7.744139">
        <ele>298.458467</ele>
        <time>2021-11-20T23:37:23.322Z</time>
      </trkpt>
      <trkpt lat="47.574918" lon="7.744046">
        <ele>297.786734</ele>
        <time>2021-11-20T23:37:26.100Z</time>
      </trkpt>
      <trkpt lat="47.574841" lon="7.744018">
        <ele>297.583930</ele>
        <time>2021-11-20T23:37:26.936Z</time>
      </trkpt>
      <trkpt lat="47.574546" lon="7.743745">
        <ele>296.694344</ele>
        <time>2021-11-20T23:37:30.691Z</time>
      </trkpt>
      <trkpt lat="47.574382" lon="7.743495">
        <ele>296.386488</ele>
        <time>2021-11-20T23:37:33.242Z</time>
      </trkpt>
      <trkpt lat="47.574090" lon="7.742826">
        <ele>295.754851</ele>
        <time>2021-11-20T23:37:39.282Z</time>
      </trkpt>
      <trkpt lat="47.573998" lon="7.742684">
        <ele>295.598783</ele>
        <time>2021-11-20T23:37:40.831Z</time>
      </trkpt>
      <trkpt lat="47.573895" lon="7.742636">
        <ele>295.471916</ele>
        <time>2021-11-20T23:37:42.171Z</time>
      </trkpt>
      <trkpt lat="47.573635" lon="7.742528">
        <ele>295.154640</ele>
        <time>2021-11-20T23:37:45.597Z</time>
      </trkpt>
      <trkpt lat="47.573477" lon="7.743683">
        <ele>294.417162</ele>
        <time>2021-11-20T23:37:56.545Z</time>
      </trkpt>
      <trkpt lat="47.573397" lon="7.744238">
        <ele>294.260039</ele>
        <time>2021-11-20T23:38:01.830Z</time>
      </trkpt>
      <trkpt lat="47.573383" lon="7.744318">
        <ele>294.237157</ele>
        <time>2021-11-20T23:38:02.615Z</time>
      </trkpt>
      <trkpt lat="47.573349" lon="7.744526">
        <ele>294.177905</ele>
        <time>2021-11-20T23:38:04.407Z</time>
      </trkpt>
      <trkpt lat="47.573329" lon="7.744647">
        <ele>294.143414</ele>
        <time>2021-11-20T23:38:06.021Z</time>
      </trkpt>
      <trkpt lat="47.573193" lon="7.745027">
        <ele>294.024322</ele>
        <time>2021-11-20T23:38:09.518Z</time>
      </trkpt>
      <trkpt lat="47.573070" lon="7.745225">
        <ele>293.949804</ele>
        <time>2021-11-20T23:38:12.482Z</time>
      </trkpt>
      <trkpt lat="47.572897" lon="7.745419">
        <ele>293.860781</ele>
        <time>2021-11-20T23:38:15.276Z</time>
      </trkpt>
      <trkpt lat="47.572693" lon="7.745654">
        <ele>293.717235</ele>
        <time>2021-11-20T23:38:18.709Z</time>
      </trkpt>
      <trkpt lat="47.572478" lon="7.745914">
        <ele>293.460388</ele>
        <time>2021-11-20T23:38:22.720Z</time>
      </trkpt>
      <trkpt lat="47.572312" lon="7.746125">
        <ele>293.257969</ele>
        <time>2021-11-20T23:38:25.710Z</time>
      </trkpt>
      <trkpt lat="47.572107" lon="7.746364">
        <ele>293.016546</ele>
        <time>2021-11-20T23:38:28.845Z</time>
      </trkpt>
      <trkpt lat="47.571996" lon="7.746510">
        <ele>292.879177</ele>
        <time>2021-11-20T23:38:30.811Z</time>
      </trkpt>
      <trkpt lat="47.571810" lon="7.746732">
        <ele>292.658126</ele>
        <time>2021-11-20T23:38:33.525Z</time>
      </trkpt>
      <trkpt lat="47.571732" lon="7.746831">
        <ele>292.563071</ele>
        <time>2021-11-20T23:38:34.771Z</time>
      </trkpt>
      <trkpt lat="47.571615" lon="7.746974">
        <ele>292.422699</ele>
        <time>2021-11-20T23:38:36.511Z</time>
      </trkpt>
      <trkpt lat="47.571591" lon="7.747005">
        <ele>292.393232</ele>
        <time>2021-11-20T23:38:36.859Z</time>
      </trkpt>
      <trkpt lat="47.571247" lon="7.747396">
        <ele>291.923054</ele>
        <time>2021-11-20T23:38:41.961Z</time>
      </trkpt>
      <trkpt lat="47.570998" lon="7.747803">
        <ele>291.394886</ele>
        <time>2021-11-20T23:38:46.341Z</time>
      </trkpt>
      <trkpt lat="47.570938" lon="7.747976">
        <ele>291.207890</ele>
        <time>2021-11-20T23:38:47.998Z</time>
      </trkpt>
      <trkpt lat="47.570885" lon="7.748211">
        <ele>290.969690</ele>
        <time>2021-11-20T23:38:50.011Z</time>
      </trkpt>
      <trkpt lat="47.570858" lon="7.749747">
        <ele>289.502347</ele>
        <time>2021-11-20T23:39:01.848Z</time>
      </trkpt>
      <trkpt lat="47.570866" lon="7.750436">
        <ele>288.940419</ele>
        <time>2021-11-20T23:39:07.124Z</time>
      </trkpt>
      <trkpt lat="47.570870" lon="7.750695">
        <ele>288.729161</ele>
        <time>2021-11-20T23:39:09.147Z</time>
      </trkpt>
      <trkpt lat="47.570876" lon="7.751057">
        <ele>288.433879</ele>
        <time>2021-11-20T23:39:12.059Z</time>
      </trkpt>
      <trkpt lat="47.570885" lon="7.751787">
        <ele>287.838501</ele>
        <time>2021-11-20T23:39:17.945Z</time>
      </trkpt>
      <trkpt lat="47.570869" lon="7.752048">
        <ele>287.624792</ele>
        <time>2021-11-20T23:39:20.121Z</time>
      </trkpt>
      <trkpt lat="47.570854" lon="7.752277">
        <ele>287.437175</ele>
        <time>2021-11-20T23:39:22.003Z</time>
      </trkpt>
      <trkpt lat="47.570840" lon="7.752506">
        <ele>287.331293</ele>
        <time>2021-11-20T23:39:23.989Z</time>
      </trkpt>
      <trkpt lat="47.570759" lon="7.753008">
        <ele>287.168139</ele>
        <time>2021-11-20T23:39:28.496Z</time>
      </trkpt>
      <trkpt lat="47.570466" lon="7.754138">
        <ele>286.785481</ele>
        <time>2021-11-20T23:39:40.130Z</time>
      </trkpt>
      <trkpt lat="47.570185" lon="7.755068">
        <ele>286.391856</ele>
        <time>2021-11-20T23:39:49.582Z</time>
      </trkpt>
      <trkpt lat="47.569898" lon="7.756021">
        <ele>285.755142</ele>
        <time>2021-11-20T23:39:58.252Z</time>
      </trkpt>
      <trkpt lat="47.569743" lon="7.756603">
        <ele>285.373402</ele>
        <time>2021-11-20T23:40:03.374Z</time>
      </trkpt>
      <trkpt lat="47.569564" lon="7.757554">
        <ele>284.753968</ele>
        <time>2021-11-20T23:40:11.390Z</time>
      </trkpt>
      <trkpt lat="47.569423" lon="7.758505">
        <ele>284.088886</ele>
        <time>2021-11-20T23:40:19.140Z</time>
      </trkpt>
      <trkpt lat="47.569394" lon="7.758678">
        <ele>283.967125</ele>
        <time>2021-11-20T23:40:20.624Z</time>
      </trkpt>
      <trkpt lat="47.569371" lon="7.758806">
        <ele>283.876647</ele>
        <time>2021-11-20T23:40:21.703Z</time>
      </trkpt>
      <trkpt lat="47.569318" lon="7.759087">
        <ele>283.677350</ele>
        <time>2021-11-20T23:40:24.036Z</time>
      </trkpt>
      <trkpt lat="47.569287" lon="7.759231">
        <ele>283.574104</ele>
        <time>2021-11-20T23:40:25.376Z</time>
      </trkpt>
      <trkpt lat="47.569052" lon="7.760178">
        <ele>282.964220</ele>
        <time>2021-11-20T23:40:34.061Z</time>
      </trkpt>
      <trkpt lat="47.568658" lon="7.761470">
        <ele>282.365101</ele>
        <time>2021-11-20T23:40:46.607Z</time>
      </trkpt>
      <trkpt lat="47.568588" lon="7.761697">
        <ele>282.259637</ele>
        <time>2021-11-20T23:40:48.735Z</time>
      </trkpt>
      <trkpt lat="47.568566" lon="7.761768">
        <ele>282.226623</ele>
        <time>2021-11-20T23:40:49.395Z</time>
      </trkpt>
      <trkpt lat="47.568495" lon="7.761994">
        <ele>282.121279</ele>
        <time>2021-11-20T23:40:51.546Z</time>
      </trkpt>
      <trkpt lat="47.568423" lon="7.762232">
        <ele>282.011064</ele>
        <time>2021-11-20T23:40:53.746Z</time>
      </trkpt>
      <trkpt lat="47.568377" lon="7.762379">
        <ele>281.953117</ele>
        <time>2021-11-20T23:40:55.157Z</time>
      </trkpt>
      <trkpt lat="47.567932" lon="7.763827">
        <ele>281.577481</ele>
        <time>2021-11-20T23:41:09.654Z</time>
      </trkpt>
      <trkpt lat="47.567739" lon="7.764462">
        <ele>281.413061</ele>
        <time>2021-11-20T23:41:16.486Z</time>
      </trkpt>
      <trkpt lat="47.567574" lon="7.765017">
        <ele>281.266995</ele>
        <time>2021-11-20T23:41:22.334Z</time>
      </trkpt>
      <trkpt lat="47.567427" lon="7.765503">
        <ele>281.135861</ele>
        <time>2021-11-20T23:41:27.381Z</time>
      </trkpt>
      <trkpt lat="47.566939" lon="7.766996">
        <ele>280.727398</ele>
        <time>2021-11-20T23:41:42.332Z</time>
      </trkpt>
      <trkpt lat="47.566747" lon="7.767407">
        <ele>280.616007</ele>
        <time>2021-11-20T23:41:46.821Z</time>
      </trkpt>
      <trkpt lat="47.566290" lon="7.768111">
        <ele>280.412263</ele>
        <time>2021-11-20T23:41:55.624Z</time>
      </trkpt>
      <trkpt lat="47.565945" lon="7.768659">
        <ele>280.255948</ele>
        <time>2021-11-20T23:42:02.506Z</time>
      </trkpt>
      <trkpt lat="47.565887" lon="7.768778">
        <ele>280.225331</ele>
        <time>2021-11-20T23:42:04.136Z</time>
      </trkpt>
      <trkpt lat="47.565730" lon="7.769200">
        <ele>280.124826</ele>
        <time>2021-11-20T23:42:08.734Z</time>
      </trkpt>
      <trkpt lat="47.565639" lon="7.769724">
        <ele>280.182614</ele>
        <time>2021-11-20T23:42:14.195Z</time>
      </trkpt>
      <trkpt lat="47.565623" lon="7.769892">
        <ele>280.200750</ele>
        <time>2021-11-20T23:42:16.084Z</time>
      </trkpt>
      <trkpt lat="47.565618" lon="7.770120">
        <ele>280.225135</ele>
        <time>2021-11-20T23:42:18.154Z</time>
      </trkpt>
      <trkpt lat="47.565625" lon="7.770603">
        <ele>280.276776</ele>
        <time>2021-11-20T23:42:23.227Z</time>
      </trkpt>
      <trkpt lat="47.565623" lon="7.771401">
        <ele>280.362077</ele>
        <time>2021-11-20T23:42:32.078Z</time>
      </trkpt>
      <trkpt lat="47.565557" lon="7.771818">
        <ele>280.407861</ele>
        <time>2021-11-20T23:42:36.686Z</time>
      </trkpt>
      <trkpt lat="47.565452" lon="7.772236">
        <ele>280.521262</ele>
        <time>2021-11-20T23:42:41.536Z</time>
      </trkpt>
      <trkpt lat="47.565274" lon="7.772804">
        <ele>280.684263</ele>
        <time>2021-11-20T23:42:48.014Z</time>
      </trkpt>
      <trkpt lat="47.565215" lon="7.772993">
        <ele>280.738464</ele>
        <time>2021-11-20T23:42:50.318Z</time>
      </trkpt>
      <trkpt lat="47.565082" lon="7.773413">
        <ele>280.859219</ele>
        <time>2021-11-20T23:42:55.387Z</time>
      </trkpt>
      <trkpt lat="47.565017" lon="7.773684">
        <ele>280.934077</ele>
        <time>2021-11-20T23:42:58.670Z</time>
      </trkpt>
      <trkpt lat="47.564949" lon="7.774019">
        <ele>281.025129</ele>
        <time>2021-11-20T23:43:02.629Z</time>
      </trkpt>
      <trkpt lat="47.564938" lon="7.774103">
        <ele>281.047400</ele>
        <time>2021-11-20T23:43:03.640Z</time>
      </trkpt>
      <trkpt lat="47.564907" lon="7.774234">
        <ele>281.083532</ele>
        <time>2021-11-20T23:43:05.159Z</time>
      </trkpt>
      <trkpt lat="47.564861" lon="7.774427">
        <ele>281.155771</ele>
        <time>2021-11-20T23:43:07.550Z</time>
      </trkpt>
      <trkpt lat="47.564815" lon="7.774448">
        <ele>281.184918</ele>
        <time>2021-11-20T23:43:08.465Z</time>
      </trkpt>
      <trkpt lat="47.564709" lon="7.774675">
        <ele>281.297715</ele>
        <time>2021-11-20T23:43:11.719Z</time>
      </trkpt>
      <trkpt lat="47.564712" lon="7.774747">
        <ele>281.327191</ele>
        <time>2021-11-20T23:43:12.598Z</time>
      </trkpt>
      <trkpt lat="47.564658" lon="7.774885">
        <ele>281.392374</ele>
        <time>2021-11-20T23:43:14.569Z</time>
      </trkpt>
      <trkpt lat="47.564621" lon="7.774969">
        <ele>281.433362</ele>
        <time>2021-11-20T23:43:15.816Z</time>
      </trkpt>
      <trkpt lat="47.564601" lon="7.775042">
        <ele>281.465555</ele>
        <time>2021-11-20T23:43:16.799Z</time>
      </trkpt>
      <trkpt lat="47.564226" lon="7.776836">
        <ele>282.199583</ele>
        <time>2021-11-20T23:43:38.630Z</time>
      </trkpt>
      <trkpt lat="47.564027" lon="7.778327">
        <ele>282.305689</ele>
        <time>2021-11-20T23:43:54.870Z</time>
      </trkpt>
      <trkpt lat="47.563988" lon="7.778618">
        <ele>282.326401</ele>
        <time>2021-11-20T23:43:57.927Z</time>
      </trkpt>
      <trkpt lat="47.563956" lon="7.778868">
        <ele>282.344166</ele>
        <time>2021-11-20T23:44:00.649Z</time>
      </trkpt>
      <trkpt lat="47.563901" lon="7.779085">
        <ele>282.360348</ele>
        <time>2021-11-20T23:44:02.754Z</time>
      </trkpt>
      <trkpt lat="47.563891" lon="7.779124">
        <ele>282.363261</ele>
        <time>2021-11-20T23:44:03.163Z</time>
      </trkpt>
      <trkpt lat="47.563838" lon="7.779303">
        <ele>282.376908</ele>
        <time>2021-11-20T23:44:05.054Z</time>
      </trkpt>
      <trkpt lat="47.563771" lon="7.779469">
        <ele>282.296329</ele>
        <time>2021-11-20T23:44:06.722Z</time>
      </trkpt>
      <trkpt lat="47.563704" lon="7.779626">
        <ele>282.204262</ele>
        <time>2021-11-20T23:44:08.346Z</time>
      </trkpt>
      <trkpt lat="47.563652" lon="7.779747">
        <ele>282.133162</ele>
        <time>2021-11-20T23:44:09.630Z</time>
      </trkpt>
      <trkpt lat="47.563533" lon="7.779944">
        <ele>282.002118</ele>
        <time>2021-11-20T23:44:11.820Z</time>
      </trkpt>
      <trkpt lat="47.563492" lon="7.780014">
        <ele>281.956178</ele>
        <time>2021-11-20T23:44:12.600Z</time>
      </trkpt>
      <trkpt lat="47.563386" lon="7.780199">
        <ele>281.835892</ele>
        <time>2021-11-20T23:44:14.679Z</time>
      </trkpt>
      <trkpt lat="47.563299" lon="7.780330">
        <ele>281.744794</ele>
        <time>2021-11-20T23:44:16.139Z</time>
      </trkpt>
      <trkpt lat="47.563211" lon="7.780461">
        <ele>281.653180</ele>
        <time>2021-11-20T23:44:17.676Z</time>
      </trkpt>
      <trkpt lat="47.562775" lon="7.781130">
        <ele>281.192208</ele>
        <time>2021-11-20T23:44:25.566Z</time>
      </trkpt>
      <trkpt lat="47.562657" lon="7.781311">
        <ele>281.067471</ele>
        <time>2021-11-20T23:44:27.731Z</time>
      </trkpt>
      <trkpt lat="47.562099" lon="7.782166">
        <ele>280.511888</ele>
        <time>2021-11-20T23:44:37.910Z</time>
      </trkpt>
      <trkpt lat="47.561943" lon="7.782422">
        <ele>280.350938</ele>
        <time>2021-11-20T23:44:40.849Z</time>
      </trkpt>
      <trkpt lat="47.561822" lon="7.782640">
        <ele>280.219228</ele>
        <time>2021-11-20T23:44:43.222Z</time>
      </trkpt>
      <trkpt lat="47.561610" lon="7.782977">
        <ele>280.004247</ele>
        <time>2021-11-20T23:44:47.185Z</time>
      </trkpt>
      <trkpt lat="47.561406" lon="7.783302">
        <ele>279.805920</ele>
        <time>2021-11-20T23:44:51.158Z</time>
      </trkpt>
      <trkpt lat="47.561312" lon="7.783440">
        <ele>279.762193</ele>
        <time>2021-11-20T23:44:52.935Z</time>
      </trkpt>
      <trkpt lat="47.561041" lon="7.783716">
        <ele>279.653522</ele>
        <time>2021-11-20T23:44:57.442Z</time>
      </trkpt>
      <trkpt lat="47.560877" lon="7.783815">
        <ele>279.595000</ele>
        <time>2021-11-20T23:45:00.010Z</time>
      </trkpt>
      <trkpt lat="47.560427" lon="7.783951">
        <ele>279.443223</ele>
        <time>2021-11-20T23:45:06.544Z</time>
      </trkpt>
      <trkpt lat="47.559876" lon="7.784127">
        <ele>279.256948</ele>
        <time>2021-11-20T23:45:14.371Z</time>
      </trkpt>
      <trkpt lat="47.559415" lon="7.784281">
        <ele>278.959842</ele>
        <time>2021-11-20T23:45:20.647Z</time>
      </trkpt>
      <trkpt lat="47.559319" lon="7.784326">
        <ele>278.887085</ele>
        <time>2021-11-20T23:45:21.976Z</time>
      </trkpt>
      <trkpt lat="47.559229" lon="7.784376">
        <ele>278.817632</ele>
        <time>2021-11-20T23:45:23.247Z</time>
      </trkpt>
      <trkpt lat="47.559117" lon="7.784473">
        <ele>278.723892</ele>
        <time>2021-11-20T23:45:24.950Z</time>
      </trkpt>
      <trkpt lat="47.559008" lon="7.784639">
        <ele>278.610950</ele>
        <time>2021-11-20T23:45:27.027Z</time>
      </trkpt>
      <trkpt lat="47.558986" lon="7.784674">
        <ele>278.587626</ele>
        <time>2021-11-20T23:45:27.456Z</time>
      </trkpt>
      <trkpt lat="47.558920" lon="7.784817">
        <ele>278.503146</ele>
        <time>2021-11-20T23:45:28.996Z</time>
      </trkpt>
      <trkpt lat="47.558822" lon="7.785030">
        <ele>278.377437</ele>
        <time>2021-11-20T23:45:31.272Z</time>
      </trkpt>
      <trkpt lat="47.558782" lon="7.785128">
        <ele>278.321588</ele>
        <time>2021-11-20T23:45:32.277Z</time>
      </trkpt>
      <trkpt lat="47.558747" lon="7.785215">
        <ele>278.272198</ele>
        <time>2021-11-20T23:45:33.152Z</time>
      </trkpt>
      <trkpt lat="47.558660" lon="7.785434">
        <ele>278.148277</ele>
        <time>2021-11-20T23:45:35.342Z</time>
      </trkpt>
      <trkpt lat="47.558577" lon="7.785598">
        <ele>278.048314</ele>
        <time>2021-11-20T23:45:37.095Z</time>
      </trkpt>
      <trkpt lat="47.558367" lon="7.785913">
        <ele>277.519728</ele>
        <time>2021-11-20T23:45:40.714Z</time>
      </trkpt>
      <trkpt lat="47.558166" lon="7.786166">
        <ele>276.647944</ele>
        <time>2021-11-20T23:45:43.648Z</time>
      </trkpt>
      <trkpt lat="47.558071" lon="7.786282">
        <ele>276.241027</ele>
        <time>2021-11-20T23:45:44.970Z</time>
      </trkpt>
      <trkpt lat="47.558006" lon="7.786349">
        <ele>275.979288</ele>
        <time>2021-11-20T23:45:45.810Z</time>
      </trkpt>
      <trkpt lat="47.557921" lon="7.786413">
        <ele>275.664116</ele>
        <time>2021-11-20T23:45:46.804Z</time>
      </trkpt>
      <trkpt lat="47.557901" lon="7.786427">
        <ele>275.590998</ele>
        <time>2021-11-20T23:45:47.021Z</time>
      </trkpt>
      <trkpt lat="47.557823" lon="7.786486">
        <ele>275.301507</ele>
        <time>2021-11-20T23:45:47.917Z</time>
      </trkpt>
      <trkpt lat="47.557711" lon="7.786536">
        <ele>274.914838</ele>
        <time>2021-11-20T23:45:49.091Z</time>
      </trkpt>
      <trkpt lat="47.557562" lon="7.786575">
        <ele>274.414672</ele>
        <time>2021-11-20T23:45:50.562Z</time>
      </trkpt>
      <trkpt lat="47.557490" lon="7.786586">
        <ele>274.175404</ele>
        <time>2021-11-20T23:45:51.270Z</time>
      </trkpt>
      <trkpt lat="47.557180" lon="7.786638">
        <ele>273.144108</ele>
        <time>2021-11-20T23:45:54.239Z</time>
      </trkpt>
      <trkpt lat="47.557118" lon="7.786638">
        <ele>272.939158</ele>
        <time>2021-11-20T23:45:54.821Z</time>
      </trkpt>
      <trkpt lat="47.557035" lon="7.786628">
        <ele>272.663884</ele>
        <time>2021-11-20T23:45:55.600Z</time>
      </trkpt>
      <trkpt lat="47.556958" lon="7.786609">
        <ele>272.405844</ele>
        <time>2021-11-20T23:45:56.340Z</time>
      </trkpt>
      <trkpt lat="47.556914" lon="7.786662">
        <ele>272.218402</ele>
        <time>2021-11-20T23:45:56.876Z</time>
      </trkpt>
      <trkpt lat="47.556883" lon="7.786718">
        <ele>272.056822</ele>
        <time>2021-11-20T23:45:57.330Z</time>
      </trkpt>
      <trkpt lat="47.556812" lon="7.787001">
        <ele>271.441112</ele>
        <time>2021-11-20T23:45:59.266Z</time>
      </trkpt>
      <trkpt lat="47.556783" lon="7.787207">
        <ele>271.017611</ele>
        <time>2021-11-20T23:46:00.624Z</time>
      </trkpt>
      <trkpt lat="47.556658" lon="7.787468">
        <ele>270.373517</ele>
        <time>2021-11-20T23:46:02.704Z</time>
      </trkpt>
      <trkpt lat="47.556539" lon="7.787710">
        <ele>269.770913</ele>
        <time>2021-11-20T23:46:04.674Z</time>
      </trkpt>
      <trkpt lat="47.556357" lon="7.788058">
        <ele>268.884870</ele>
        <time>2021-11-20T23:46:07.641Z</time>
      </trkpt>
      <trkpt lat="47.556249" lon="7.788270">
        <ele>268.350301</ele>
        <time>2021-11-20T23:46:09.461Z</time>
      </trkpt>
      <trkpt lat="47.556137" lon="7.788488">
        <ele>267.798904</ele>
        <time>2021-11-20T23:46:11.368Z</time>
      </trkpt>
      <trkpt lat="47.556111" lon="7.788537">
        <ele>267.673459</ele>
        <time>2021-11-20T23:46:11.793Z</time>
      </trkpt>
      <trkpt lat="47.556069" lon="7.788614">
        <ele>267.474206</ele>
        <time>2021-11-20T23:46:12.537Z</time>
      </trkpt>
      <trkpt lat="47.555936" lon="7.788828">
        <ele>266.888718</ele>
        <time>2021-11-20T23:46:14.781Z</time>
      </trkpt>
      <trkpt lat="47.555085" lon="7.789685">
        <ele>268.209044</ele>
        <time>2021-11-20T23:46:57.113Z</time>
      </trkpt>
      <trkpt lat="47.555062" lon="7.789726">
        <ele>268.270522</ele>
        <time>2021-11-20T23:46:58.836Z</time>
      </trkpt>
      <trkpt lat="47.555052" lon="7.789771">
        <ele>268.325153</ele>
        <time>2021-11-20T23:47:00.290Z</time>
      </trkpt>
      <trkpt lat="47.555031" lon="7.789894">
        <ele>268.471456</ele>
        <time>2021-11-20T23:47:04.520Z</time>
      </trkpt>
      <trkpt lat="47.554999" lon="7.790090">
        <ele>268.703989</ele>
        <time>2021-11-20T23:47:11.672Z</time>
      </trkpt>
      <trkpt lat="47.554865" lon="7.790678">
        <ele>269.419643</ele>
        <time>2021-11-20T23:47:32.828Z</time>
      </trkpt>
      <trkpt lat="47.554858" lon="7.790696">
        <ele>269.443599</ele>
        <time>2021-11-20T23:47:33.826Z</time>
      </trkpt>
      <trkpt lat="47.554788" lon="7.790844">
        <ele>269.652000</ele>
        <time>2021-11-20T23:47:39.391Z</time>
      </trkpt>
      <trkpt lat="47.554756" lon="7.790897">
        <ele>269.750906</ele>
        <time>2021-11-20T23:47:41.957Z</time>
      </trkpt>
      <trkpt lat="47.554756" lon="7.790897">
        <ele>269.750906</ele>
        <time>2021-11-20T23:47:41.978Z</time>
      </trkpt>
      <trkpt lat="47.554756" lon="7.790897">
        <ele>269.750906</ele>
        <time>2021-11-20T23:47:41.981Z</time>
      </trkpt>
      <trkpt lat="47.554911" lon="7.791459">
        <ele>270.685960</ele>
        <time>2021-11-20T23:48:01.816Z</time>
      </trkpt>
      <trkpt lat="47.555027" lon="7.791948">
        <ele>271.484263</ele>
        <time>2021-11-20T23:48:18.055Z</time>
      </trkpt>
      <trkpt lat="47.555085" lon="7.792163">
        <ele>271.840869</ele>
        <time>2021-11-20T23:48:25.335Z</time>
      </trkpt>
      <trkpt lat="47.555127" lon="7.792307">
        <ele>272.082475</ele>
        <time>2021-11-20T23:48:29.734Z</time>
      </trkpt>
      <trkpt lat="47.555237" lon="7.792734">
        <ele>272.786399</ele>
        <time>2021-11-20T23:48:43.864Z</time>
      </trkpt>
      <trkpt lat="47.555277" lon="7.793131">
        <ele>273.404611</ele>
        <time>2021-11-20T23:48:56.004Z</time>
      </trkpt>
      <trkpt lat="47.555274" lon="7.793423">
        <ele>273.847428</ele>
        <time>2021-11-20T23:49:04.663Z</time>
      </trkpt>
      <trkpt lat="47.555281" lon="7.793955">
        <ele>274.580636</ele>
        <time>2021-11-20T23:49:20.186Z</time>
      </trkpt>
      <trkpt lat="47.555282" lon="7.794033">
        <ele>274.688136</ele>
        <time>2021-11-20T23:49:22.468Z</time>
      </trkpt>
      <trkpt lat="47.555288" lon="7.794318">
        <ele>275.081042</ele>
        <time>2021-11-20T23:49:30.982Z</time>
      </trkpt>
      <trkpt lat="47.555288" lon="7.794496">
        <ele>275.326317</ele>
        <time>2021-11-20T23:49:36.033Z</time>
      </trkpt>
      <trkpt lat="47.555141" lon="7.794516">
        <ele>275.627721</ele>
        <time>2021-11-20T23:49:42.432Z</time>
      </trkpt>
      <trkpt lat="47.555010" lon="7.794553">
        <ele>275.900009</ele>
        <time>2021-11-20T23:49:48.284Z</time>
      </trkpt>
      <trkpt lat="47.555010" lon="7.794553">
        <ele>275.900009</ele>
        <time>2021-11-20T23:49:48.347Z</time>
      </trkpt>
      <trkpt lat="47.554864" lon="7.794599">
        <ele>276.204772</ele>
        <time>2021-11-20T23:49:54.703Z</time>
      </trkpt>
      <trkpt lat="47.554495" lon="7.794723">
        <ele>276.977319</ele>
        <time>2021-11-20T23:50:12.106Z</time>
      </trkpt>
      <trkpt lat="47.554352" lon="7.794791">
        <ele>277.283960</ele>
        <time>2021-11-20T23:50:19.356Z</time>
      </trkpt>
      <trkpt lat="47.554254" lon="7.794823">
        <ele>277.510528</ele>
        <time>2021-11-20T23:50:24.095Z</time>
      </trkpt>
      <trkpt lat="47.554004" lon="7.794824">
        <ele>278.414627</ele>
        <time>2021-11-20T23:50:36.494Z</time>
      </trkpt>
      <trkpt lat="47.553930" lon="7.794811">
        <ele>278.684114</ele>
        <time>2021-11-20T23:50:40.354Z</time>
      </trkpt>
      <trkpt lat="47.553883" lon="7.794947">
        <ele>279.057033</ele>
        <time>2021-11-20T23:50:43.568Z</time>
      </trkpt>
      <trkpt lat="47.553854" lon="7.795042">
        <ele>279.311513</ele>
        <time>2021-11-20T23:50:45.917Z</time>
      </trkpt>
      <trkpt lat="47.553847" lon="7.795063">
        <ele>279.368678</ele>
        <time>2021-11-20T23:50:46.474Z</time>
      </trkpt>
      <trkpt lat="47.553724" lon="7.795281">
        <ele>280.062190</ele>
        <time>2021-11-20T23:50:53.708Z</time>
      </trkpt>
      <trkpt lat="47.553702" lon="7.795313">
        <ele>280.173679</ele>
        <time>2021-11-20T23:50:54.789Z</time>
      </trkpt>
      <trkpt lat="47.553628" lon="7.795414">
        <ele>280.537525</ele>
        <time>2021-11-20T23:50:58.107Z</time>
      </trkpt>
      <trkpt lat="47.553580" lon="7.795460">
        <ele>280.744254</ele>
        <time>2021-11-20T23:51:00.229Z</time>
      </trkpt>
      <trkpt lat="47.553379" lon="7.795607">
        <ele>281.554870</ele>
        <time>2021-11-20T23:51:08.356Z</time>
      </trkpt>
      <trkpt lat="47.553256" lon="7.795697">
        <ele>282.050968</ele>
        <time>2021-11-20T23:51:13.203Z</time>
      </trkpt>
      <trkpt lat="47.553218" lon="7.795662">
        <ele>282.212777</ele>
        <time>2021-11-20T23:51:14.507Z</time>
      </trkpt>
      <trkpt lat="47.553188" lon="7.795642">
        <ele>282.331745</ele>
        <time>2021-11-20T23:51:15.469Z</time>
      </trkpt>
      <trkpt lat="47.553162" lon="7.795633">
        <ele>282.428302</ele>
        <time>2021-11-20T23:51:16.403Z</time>
      </trkpt>
      <trkpt lat="47.553139" lon="7.795630">
        <ele>282.511801</ele>
        <time>2021-11-20T23:51:17.087Z</time>
      </trkpt>
      <trkpt lat="47.552930" lon="7.795600">
        <ele>283.271163</ele>
        <time>2021-11-20T23:51:23.157Z</time>
      </trkpt>
      <trkpt lat="47.552916" lon="7.795713">
        <ele>283.551574</ele>
        <time>2021-11-20T23:51:25.420Z</time>
      </trkpt>
      <trkpt lat="47.552886" lon="7.795976">
        <ele>284.256030</ele>
        <time>2021-11-20T23:51:30.900Z</time>
      </trkpt>
      <trkpt lat="47.552817" lon="7.796239">
        <ele>285.099862</ele>
        <time>2021-11-20T23:51:37.167Z</time>
      </trkpt>
      <trkpt lat="47.552762" lon="7.796425">
        <ele>285.707138</ele>
        <time>2021-11-20T23:51:41.742Z</time>
      </trkpt>
      <trkpt lat="47.552493" lon="7.797048">
        <ele>287.918870</ele>
        <time>2021-11-20T23:51:58.548Z</time>
      </trkpt>
      <trkpt lat="47.552152" lon="7.797876">
        <ele>290.819610</ele>
        <time>2021-11-20T23:52:20.603Z</time>
      </trkpt>
      <trkpt lat="47.552084" lon="7.798083">
        <ele>291.508082</ele>
        <time>2021-11-20T23:52:26.142Z</time>
      </trkpt>
      <trkpt lat="47.551948" lon="7.798607">
        <ele>292.792456</ele>
        <time>2021-11-20T23:52:37.952Z</time>
      </trkpt>
      <trkpt lat="47.551805" lon="7.799326">
        <ele>294.327662</ele>
        <time>2021-11-20T23:52:51.839Z</time>
      </trkpt>
      <trkpt lat="47.551793" lon="7.799434">
        <ele>294.551837</ele>
        <time>2021-11-20T23:52:54.123Z</time>
      </trkpt>
      <trkpt lat="47.551754" lon="7.799766">
        <ele>295.242037</ele>
        <time>2021-11-20T23:53:00.473Z</time>
      </trkpt>
      <trkpt lat="47.551712" lon="7.800249">
        <ele>296.239459</ele>
        <time>2021-11-20T23:53:09.393Z</time>
      </trkpt>
      <trkpt lat="47.551704" lon="7.800451">
        <ele>296.653892</ele>
        <time>2021-11-20T23:53:12.579Z</time>
      </trkpt>
      <trkpt lat="47.551672" lon="7.801147">
        <ele>297.616590</ele>
        <time>2021-11-20T23:53:21.602Z</time>
      </trkpt>
      <trkpt lat="47.551669" lon="7.801438">
        <ele>297.809721</ele>
        <time>2021-11-20T23:53:26.181Z</time>
      </trkpt>
      <trkpt lat="47.551666" lon="7.801632">
        <ele>297.938494</ele>
        <time>2021-11-20T23:53:28.194Z</time>
      </trkpt>
      <trkpt lat="47.551669" lon="7.801853">
        <ele>298.085180</ele>
        <time>2021-11-20T23:53:31.452Z</time>
      </trkpt>
      <trkpt lat="47.551671" lon="7.802077">
        <ele>298.233841</ele>
        <time>2021-11-20T23:53:33.769Z</time>
      </trkpt>
      <trkpt lat="47.551679" lon="7.802228">
        <ele>298.334353</ele>
        <time>2021-11-20T23:53:34.888Z</time>
      </trkpt>
      <trkpt lat="47.551688" lon="7.802394">
        <ele>298.444866</ele>
        <time>2021-11-20T23:53:37.845Z</time>
      </trkpt>
      <trkpt lat="47.551700" lon="7.802648">
        <ele>298.613834</ele>
        <time>2021-11-20T23:53:40.124Z</time>
      </trkpt>
      <trkpt lat="47.551732" lon="7.803125">
        <ele>298.931933</ele>
        <time>2021-11-20T23:53:46.275Z</time>
      </trkpt>
      <trkpt lat="47.551744" lon="7.803277">
        <ele>299.033488</ele>
        <time>2021-11-20T23:53:47.483Z</time>
      </trkpt>
      <trkpt lat="47.551751" lon="7.803369">
        <ele>299.094926</ele>
        <time>2021-11-20T23:53:49.158Z</time>
      </trkpt>
      <trkpt lat="47.551692" lon="7.803510">
        <ele>299.202663</ele>
        <time>2021-11-20T23:53:52.745Z</time>
      </trkpt>
      <trkpt lat="47.551741" lon="7.804294">
        <ele>299.696780</ele>
        <time>2021-11-20T23:54:05.343Z</time>
      </trkpt>
      <trkpt lat="47.551744" lon="7.804473">
        <ele>299.809148</ele>
        <time>2021-11-20T23:54:08.378Z</time>
      </trkpt>
      <trkpt lat="47.551731" lon="7.804667">
        <ele>299.931495</ele>
        <time>2021-11-20T23:54:12.478Z</time>
      </trkpt>
      <trkpt lat="47.551709" lon="7.805000">
        <ele>300.141473</ele>
        <time>2021-11-20T23:54:17.018Z</time>
      </trkpt>
      <trkpt lat="47.551681" lon="7.805477">
        <ele>300.441952</ele>
        <time>2021-11-20T23:54:24.765Z</time>
      </trkpt>
      <trkpt lat="47.551671" lon="7.806117">
        <ele>300.833314</ele>
        <time>2021-11-20T23:54:34.854Z</time>
      </trkpt>
      <trkpt lat="47.551651" lon="7.806246">
        <ele>300.826578</ele>
        <time>2021-11-20T23:54:37.757Z</time>
      </trkpt>
      <trkpt lat="47.551895" lon="7.806278">
        <ele>300.808111</ele>
        <time>2021-11-20T23:54:41.282Z</time>
      </trkpt>
      <trkpt lat="47.552015" lon="7.806307">
        <ele>300.798944</ele>
        <time>2021-11-20T23:54:44.152Z</time>
      </trkpt>
      <trkpt lat="47.552068" lon="7.806445">
        <ele>300.790864</ele>
        <time>2021-11-20T23:54:45.609Z</time>
      </trkpt>
      <trkpt lat="47.552398" lon="7.808880">
        <ele>300.401225</ele>
        <time>2021-11-20T23:55:07.752Z</time>
      </trkpt>
      <trkpt lat="47.552566" lon="7.810386">
        <ele>299.722130</ele>
        <time>2021-11-20T23:55:20.763Z</time>
      </trkpt>
      <trkpt lat="47.552711" lon="7.812955">
        <ele>298.600696</ele>
        <time>2021-11-20T23:55:43.372Z</time>
      </trkpt>
      <trkpt lat="47.552844" lon="7.816432">
        <ele>297.362419</ele>
        <time>2021-11-20T23:56:13.865Z</time>
      </trkpt>
      <trkpt lat="47.552948" lon="7.819358">
        <ele>297.782147</ele>
        <time>2021-11-20T23:56:45.095Z</time>
      </trkpt>
      <trkpt lat="47.552896" lon="7.820699">
        <ele>298.367633</ele>
        <time>2021-11-20T23:57:01.179Z</time>
      </trkpt>
      <trkpt lat="47.552567" lon="7.824508">
        <ele>300.256143</ele>
        <time>2021-11-20T23:57:47.664Z</time>
      </trkpt>
      <trkpt lat="47.552491" lon="7.827227">
        <ele>301.712282</ele>
        <time>2021-11-20T23:58:19.403Z</time>
      </trkpt>
      <trkpt lat="47.552515" lon="7.828094">
        <ele>302.530224</ele>
        <time>2021-11-20T23:58:31.113Z</time>
      </trkpt>
      <trkpt lat="47.552477" lon="7.828294">
        <ele>302.726077</ele>
        <time>2021-11-20T23:58:33.730Z</time>
      </trkpt>
      <trkpt lat="47.552421" lon="7.828481">
        <ele>302.918920</ele>
        <time>2021-11-20T23:58:36.662Z</time>
      </trkpt>
      <trkpt lat="47.552404" lon="7.828582">
        <ele>303.017041</ele>
        <time>2021-11-20T23:58:38.346Z</time>
      </trkpt>
      <trkpt lat="47.552416" lon="7.828822">
        <ele>303.243891</ele>
        <time>2021-11-20T23:58:41.580Z</time>
      </trkpt>
      <trkpt lat="47.552554" lon="7.829266">
        <ele>303.704664</ele>
        <time>2021-11-20T23:58:48.931Z</time>
      </trkpt>
      <trkpt lat="47.552645" lon="7.830686">
        <ele>306.205054</ele>
        <time>2021-11-20T23:59:12.237Z</time>
      </trkpt>
      <trkpt lat="47.552690" lon="7.832598">
        <ele>309.760224</ele>
        <time>2021-11-20T23:59:47.714Z</time>
      </trkpt>
      <trkpt lat="47.552616" lon="7.832891">
        <ele>310.366799</ele>
        <time>2021-11-20T23:59:53.078Z</time>
      </trkpt>
      <trkpt lat="47.552556" lon="7.832977">
        <ele>310.606623</ele>
        <time>2021-11-20T23:59:55.810Z</time>
      </trkpt>
      <trkpt lat="47.552511" lon="7.833072">
        <ele>310.831659</ele>
        <time>2021-11-20T23:59:57.835Z</time>
      </trkpt>
      <trkpt lat="47.552467" lon="7.833198">
        <ele>311.106727</ele>
        <time>2021-11-21T00:00:00.237Z</time>
      </trkpt>
      <trkpt lat="47.552452" lon="7.833284">
        <ele>311.278952</ele>
        <time>2021-11-21T00:00:01.848Z</time>
      </trkpt>
      <trkpt lat="47.552696" lon="7.833789">
        <ele>312.483152</ele>
        <time>2021-11-21T00:00:12.879Z</time>
      </trkpt>
      <trkpt lat="47.552700" lon="7.833938">
        <ele>312.772278</ele>
        <time>2021-11-21T00:00:15.824Z</time>
      </trkpt>
      <trkpt lat="47.552714" lon="7.835010">
        <ele>314.483297</ele>
        <time>2021-11-21T00:00:34.301Z</time>
      </trkpt>
      <trkpt lat="47.552719" lon="7.836790">
        <ele>316.672031</ele>
        <time>2021-11-21T00:00:59.584Z</time>
      </trkpt>
      <trkpt lat="47.552697" lon="7.838068">
        <ele>318.049808</ele>
        <time>2021-11-21T00:01:17.226Z</time>
      </trkpt>
      <trkpt lat="47.552736" lon="7.838578">
        <ele>318.571651</ele>
        <time>2021-11-21T00:01:24.353Z</time>
      </trkpt>
      <trkpt lat="47.552802" lon="7.839009">
        <ele>319.020993</ele>
        <time>2021-11-21T00:01:30.572Z</time>
      </trkpt>
      <trkpt lat="47.552939" lon="7.839526">
        <ele>319.585698</ele>
        <time>2021-11-21T00:01:38.362Z</time>
      </trkpt>
      <trkpt lat="47.553231" lon="7.841529">
        <ele>321.744930</ele>
        <time>2021-11-21T00:02:08.492Z</time>
      </trkpt>
      <trkpt lat="47.553216" lon="7.841849">
        <ele>322.084516</ele>
        <time>2021-11-21T00:02:13.016Z</time>
      </trkpt>
      <trkpt lat="47.553123" lon="7.842222">
        <ele>322.505480</ele>
        <time>2021-11-21T00:02:18.245Z</time>
      </trkpt>
      <trkpt lat="47.553133" lon="7.842431">
        <ele>322.697178</ele>
        <time>2021-11-21T00:02:21.375Z</time>
      </trkpt>
      <trkpt lat="47.552833" lon="7.842495">
        <ele>322.978882</ele>
        <time>2021-11-21T00:02:28.684Z</time>
      </trkpt>
      <trkpt lat="47.552380" lon="7.842592">
        <ele>323.404287</ele>
        <time>2021-11-21T00:02:39.732Z</time>
      </trkpt>
      <trkpt lat="47.551922" lon="7.842704">
        <ele>323.835725</ele>
        <time>2021-11-21T00:02:50.298Z</time>
      </trkpt>
      <trkpt lat="47.551668" lon="7.842770">
        <ele>324.075402</ele>
        <time>2021-11-21T00:02:56.257Z</time>
      </trkpt>
      <trkpt lat="47.551454" lon="7.842815">
        <ele>324.276293</ele>
        <time>2021-11-21T00:03:01.155Z</time>
      </trkpt>
      <trkpt lat="47.551344" lon="7.844621">
        <ele>325.555702</ele>
        <time>2021-11-21T00:03:24.182Z</time>
      </trkpt>
      <trkpt lat="47.551306" lon="7.845186">
        <ele>325.958307</ele>
        <time>2021-11-21T00:03:31.866Z</time>
      </trkpt>
      <trkpt lat="47.551205" lon="7.846694">
        <ele>327.328747</ele>
        <time>2021-11-21T00:03:52.161Z</time>
      </trkpt>
      <trkpt lat="47.551184" lon="7.847206">
        <ele>327.824014</ele>
        <time>2021-11-21T00:03:59.549Z</time>
      </trkpt>
      <trkpt lat="47.551196" lon="7.847517">
        <ele>328.124786</ele>
        <time>2021-11-21T00:04:03.971Z</time>
      </trkpt>
      <trkpt lat="47.551669" lon="7.848083">
        <ele>328.993598</ele>
        <time>2021-11-21T00:04:16.581Z</time>
      </trkpt>
      <trkpt lat="47.551242" lon="7.848702">
        <ele>329.844189</ele>
        <time>2021-11-21T00:04:29.064Z</time>
      </trkpt>
      <trkpt lat="47.550975" lon="7.849066">
        <ele>330.360806</ele>
        <time>2021-11-21T00:04:36.380Z</time>
      </trkpt>
      <trkpt lat="47.550810" lon="7.849346">
        <ele>330.718019</ele>
        <time>2021-11-21T00:04:42.773Z</time>
      </trkpt>
      <trkpt lat="47.550488" lon="7.850081">
        <ele>331.459895</ele>
        <time>2021-11-21T00:04:58.264Z</time>
      </trkpt>
      <trkpt lat="47.550333" lon="7.850434">
        <ele>331.672665</ele>
        <time>2021-11-21T00:05:05.592Z</time>
      </trkpt>
      <trkpt lat="47.550009" lon="7.851173">
        <ele>332.117896</ele>
        <time>2021-11-21T00:05:20.182Z</time>
      </trkpt>
      <trkpt lat="47.549875" lon="7.851471">
        <ele>332.298812</ele>
        <time>2021-11-21T00:05:25.711Z</time>
      </trkpt>
      <trkpt lat="47.549652" lon="7.851969">
        <ele>332.600763</ele>
        <time>2021-11-21T00:05:34.063Z</time>
      </trkpt>
      <trkpt lat="47.549535" lon="7.852225">
        <ele>332.667181</ele>
        <time>2021-11-21T00:05:38.121Z</time>
      </trkpt>
      <trkpt lat="47.549285" lon="7.852784">
        <ele>332.513472</ele>
        <time>2021-11-21T00:05:46.757Z</time>
      </trkpt>
      <trkpt lat="47.549708" lon="7.853279">
        <ele>332.330415</ele>
        <time>2021-11-21T00:05:57.148Z</time>
      </trkpt>
      <trkpt lat="47.550221" lon="7.853833">
        <ele>332.114830</ele>
        <time>2021-11-21T00:06:09.059Z</time>
      </trkpt>
      <trkpt lat="47.549883" lon="7.854434">
        <ele>331.853767</ele>
        <time>2021-11-21T00:06:15.736Z</time>
      </trkpt>
      <trkpt lat="47.549566" lon="7.855225">
        <ele>331.527102</ele>
        <time>2021-11-21T00:06:26.881Z</time>
      </trkpt>
      <trkpt lat="47.549362" lon="7.855774">
        <ele>331.304561</ele>
        <time>2021-11-21T00:06:34.803Z</time>
      </trkpt>
      <trkpt lat="47.548887" lon="7.857308">
        <ele>331.206817</ele>
        <time>2021-11-21T00:06:56.911Z</time>
      </trkpt>
      <trkpt lat="47.548743" lon="7.857692">
        <ele>331.231585</ele>
        <time>2021-11-21T00:07:02.882Z</time>
      </trkpt>
      <trkpt lat="47.548701" lon="7.857893">
        <ele>331.243449</ele>
        <time>2021-11-21T00:07:05.854Z</time>
      </trkpt>
      <trkpt lat="47.548686" lon="7.857973">
        <ele>331.248131</ele>
        <time>2021-11-21T00:07:06.977Z</time>
      </trkpt>
      <trkpt lat="47.548611" lon="7.858381">
        <ele>331.271973</ele>
        <time>2021-11-21T00:07:13.191Z</time>
      </trkpt>
      <trkpt lat="47.548334" lon="7.859801">
        <ele>332.192576</ele>
        <time>2021-11-21T00:07:36.229Z</time>
      </trkpt>
      <trkpt lat="47.548049" lon="7.860929">
        <ele>333.109469</ele>
        <time>2021-11-21T00:07:57.247Z</time>
      </trkpt>
      <trkpt lat="47.547930" lon="7.861711">
        <ele>333.903882</ele>
        <time>2021-11-21T00:08:12.010Z</time>
      </trkpt>
      <trkpt lat="47.547568" lon="7.863151">
        <ele>335.608519</ele>
        <time>2021-11-21T00:08:41.138Z</time>
      </trkpt>
      <trkpt lat="47.547320" lon="7.863864">
        <ele>336.278962</ele>
        <time>2021-11-21T00:08:55.078Z</time>
      </trkpt>
      <trkpt lat="47.546974" lon="7.864423">
        <ele>336.301092</ele>
        <time>2021-11-21T00:09:05.902Z</time>
      </trkpt>
      <trkpt lat="47.546885" lon="7.864500">
        <ele>336.305547</ele>
        <time>2021-11-21T00:09:08.987Z</time>
      </trkpt>
      <trkpt lat="47.546894" lon="7.864837">
        <ele>336.315388</ele>
        <time>2021-11-21T00:09:12.870Z</time>
      </trkpt>
      <trkpt lat="47.546889" lon="7.865225">
        <ele>336.326711</ele>
        <time>2021-11-21T00:09:18.296Z</time>
      </trkpt>
      <trkpt lat="47.546819" lon="7.865489">
        <ele>336.334987</ele>
        <time>2021-11-21T00:09:22.240Z</time>
      </trkpt>
      <trkpt lat="47.546510" lon="7.865766">
        <ele>336.350599</ele>
        <time>2021-11-21T00:09:28.874Z</time>
      </trkpt>
      <trkpt lat="47.546327" lon="7.865959">
        <ele>336.188515</ele>
        <time>2021-11-21T00:09:32.389Z</time>
      </trkpt>
      <trkpt lat="47.546096" lon="7.866147">
        <ele>335.994357</ele>
        <time>2021-11-21T00:09:36.945Z</time>
      </trkpt>
      <trkpt lat="47.545240" lon="7.866887">
        <ele>335.264257</ele>
        <time>2021-11-21T00:09:53.619Z</time>
      </trkpt>
      <trkpt lat="47.545160" lon="7.866985">
        <ele>335.187786</ele>
        <time>2021-11-21T00:09:55.574Z</time>
      </trkpt>
      <trkpt lat="47.545003" lon="7.867278">
        <ele>335.064833</ele>
        <time>2021-11-21T00:10:01.243Z</time>
      </trkpt>
      <trkpt lat="47.544568" lon="7.867693">
        <ele>335.684684</ele>
        <time>2021-11-21T00:10:14.033Z</time>
      </trkpt>
      <trkpt lat="47.544469" lon="7.867776">
        <ele>335.820963</ele>
        <time>2021-11-21T00:10:16.896Z</time>
      </trkpt>
      <trkpt lat="47.544410" lon="7.867825">
        <ele>335.901996</ele>
        <time>2021-11-21T00:10:18.984Z</time>
      </trkpt>
      <trkpt lat="47.544246" lon="7.867967">
        <ele>336.129568</ele>
        <time>2021-11-21T00:10:23.668Z</time>
      </trkpt>
      <trkpt lat="47.544214" lon="7.867988">
        <ele>336.171498</ele>
        <time>2021-11-21T00:10:24.515Z</time>
      </trkpt>
      <trkpt lat="47.543801" lon="7.868269">
        <ele>336.715969</ele>
        <time>2021-11-21T00:10:36.106Z</time>
      </trkpt>
      <trkpt lat="47.543657" lon="7.868359">
        <ele>336.903209</ele>
        <time>2021-11-21T00:10:40.469Z</time>
      </trkpt>
      <trkpt lat="47.543201" lon="7.868657">
        <ele>337.180589</ele>
        <time>2021-11-21T00:10:50.904Z</time>
      </trkpt>
      <trkpt lat="47.543105" lon="7.868711">
        <ele>337.180589</ele>
        <time>2021-11-21T00:10:53.541Z</time>
      </trkpt>
      <trkpt lat="47.543049" lon="7.868759">
        <ele>337.180589</ele>
        <time>2021-11-21T00:10:54.925Z</time>
      </trkpt>
      <trkpt lat="47.542722" lon="7.869201">
        <ele>337.180589</ele>
        <time>2021-11-21T00:11:04.528Z</time>
      </trkpt>
      <trkpt lat="47.542696" lon="7.869257">
        <ele>337.180589</ele>
        <time>2021-11-21T00:11:05.274Z</time>
      </trkpt>
      <trkpt lat="47.542657" lon="7.869354">
        <ele>337.180589</ele>
        <time>2021-11-21T00:11:06.682Z</time>
      </trkpt>
      <trkpt lat="47.542620" lon="7.869404">
        <ele>337.180589</ele>
        <time>2021-11-21T00:11:07.806Z</time>
      </trkpt>
    </trkseg>
  </trk>
</gpx>